[[{"header":{"parameterUnit":"m.s-1","parameterCategory":1,"la1":31.0,"la2":29.5877,"lo1":-88.7671,"lo2":-86.6584,"dx":0.0162,"dy":0.0185,"nx":115,"ny":88,"refTime":"2023-02-03T18:00:00:Z","depth":0,"parameterNumber":2,"parameterNumberName":"U-component_of_WINDS"},"data":[0.0,0.0,0.0,0.0,0.0,0.0,0.0,0.0,0.0,0.0,0.0,0.0,0.0,0.0,0.0,0.0,0.0,0.0,0.0,0.0,0.0,0.0,0.0,0.0,0.0,0.0,0.0,0.0,0.0,0.0,0.0,0.0,0.0,0.0,0.0,0.0,0.0,0.0,0.0,0.0,0.0,0.0,0.0,0.0,0.0,0.0,0.0,0.0,0.0,0.0,0.0,0.0,0.0,0.0,0.0,0.0,0.0,0.0,0.0,0.0,0.0,0.0,0.0,0.0,0.0,0.0,0.0,0.0,0.0,0.0,0.0,0.0,0.0,0.0,0.0,0.0,0.0,0.0,0.0,0.0,0.0,0.0,0.0,0.0,0.0,0.0,0.0,0.0,0.0,0.0,0.0,0.0,0.0,0.0,0.0,0.0,0.0,0.0,0.0,0.0,0.0,0.0,0.0,0.0,0.0,0.0,0.0,0.0,0.0,0.0,0.0,0.0,0.0,0.0,0.0,0.0,0.0,0.0,0.0,0.0,0.0,0.0,0.0,0.0,0.0,0.0,0.0,0.0,0.0,0.0,0.0,0.0,0.0,0.0,0.0,0.0,0.0,0.0,0.0,0.0,0.0,0.0,0.0,0.0,0.0,0.0,0.0,0.0,0.0,0.0,0.0,0.0,0.0,0.0,0.0,0.0,0.0,0.0,0.0,0.0,0.0,0.0,0.0,0.0,0.0,0.0,0.0,0.0,0.0,0.0,0.0,0.0,0.0,0.0,0.0,0.0,0.0,0.0,0.0,0.0,0.0,0.0,0.0,0.0,0.0,0.0,0.0,0.0,0.0,0.0,0.0,0.0,0.0,0.0,0.0,0.0,0.0,0.0,0.0,0.0,0.0,0.0,0.0,0.0,0.0,0.0,0.0,0.0,0.0,0.0,0.0,0.0,0.0,0.0,0.0,0.0,0.0,0.0,0.0,0.0,0.0,0.0,0.0,0.0,0.0,0.0,0.0,0.0,0.0,0.0,0.0,0.0,0.0,0.0,0.0,0.0,0.0,0.0,0.0,0.0,0.0,0.0,0.0,0.0,0.0,0.0,0.0,0.0,0.0,0.0,0.0,0.0,0.0,0.0,0.0,0.0,0.0,0.0,0.0,0.0,0.0,0.0,0.0,0.0,0.0,0.0,0.0,0.0,0.0,0.0,0.0,0.0,0.0,0.0,0.0,0.0,0.0,0.0,0.0,0.0,0.0,0.0,0.0,0.0,0.0,0.0,0.0,0.0,0.0,0.0,0.0,0.0,0.0,0.0,0.0,0.0,0.0,0.0,0.0,0.0,0.0,0.0,0.0,0.0,0.0,0.0,0.0,0.0,0.0,0.0,0.0,0.0,0.0,0.0,0.0,0.0,0.0,0.0,0.0,0.0,0.0,0.0,0.0,0.0,0.0,0.0,0.0,0.0,0.0,0.0,0.0,0.0,0.0,0.0,0.0,0.0,0.0,0.0,0.0,0.0,0.0,0.0,0.0,0.0,0.0,0.0,0.0,0.0,0.0,0.0,0.0,0.0,0.0,0.0,0.0,0.0,0.0,0.0,0.0,0.0,0.0,0.0,0.0,0.0,0.0,0.0,0.0,0.0,0.0,0.0,0.0,0.0,0.0,0.0,0.0,0.0,0.0,0.0,0.0,0.0,0.0,0.0,0.0,0.0,0.0,0.0,0.0,0.0,0.0,0.0,0.0,0.0,0.0,0.0,0.0,0.0,0.0,0.0,0.0,0.0,0.0,0.0,0.0,0.0,0.0,0.0,0.0,0.0,0.0,0.0,0.0,0.0,0.0,0.0,0.0,0.0,0.0,0.0,0.0,0.0,0.0,0.0,0.0,0.0,0.0,0.0,0.0,0.0,0.0,0.0,0.0,0.0,0.0,0.0,0.0,0.0,0.0,0.0,0.0,0.0,0.0,0.0,0.0,0.0,0.0,0.0,0.0,0.0,0.0,0.0,0.0,0.0,0.0,0.0,0.0,0.0,0.0,0.0,0.0,0.0,0.0,0.0,0.0,0.0,0.0,0.0,0.0,0.0,0.0,0.0,0.0,0.0,0.0,0.0,0.0,0.0,0.0,0.0,0.0,0.0,0.0,0.0,0.0,0.0,0.0,0.0,0.0,0.0,0.0,0.0,0.0,0.0,0.0,0.0,0.0,0.0,0.0,0.0,0.0,0.0,0.0,0.0,0.0,0.0,0.0,0.0,0.0,0.0,0.0,0.0,0.0,0.0,0.0,0.0,0.0,0.0,0.0,0.0,0.0,0.0,0.0,0.0,0.0,0.0,0.0,0.0,0.0,0.0,0.0,0.0,0.0,0.0,0.0,0.0,0.0,0.0,0.0,0.0,0.0,0.0,0.0,0.0,0.0,0.0,0.0,0.0,0.0,0.0,0.0,0.0,0.0,0.0,0.0,0.0,0.0,0.0,0.0,0.0,0.0,0.0,0.0,0.0,0.0,0.0,0.0,0.0,0.0,0.0,0.0,0.0,0.0,0.0,0.0,0.0,0.0,0.0,0.0,0.0,0.0,0.0,0.0,0.0,0.0,0.0,0.0,0.0,0.0,0.0,0.0,0.0,0.0,0.0,0.0,0.0,0.0,0.0,0.0,0.0,0.0,0.0,0.0,0.0,0.0,0.0,0.0,0.0,0.0,0.0,0.0,0.0,0.0,0.0,0.0,0.0,0.0,0.0,0.0,0.0,0.0,0.0,0.0,0.0,0.0,0.0,0.0,0.0,0.0,0.0,0.0,0.0,0.0,0.0,0.0,0.0,0.0,0.0,0.0,0.0,0.0,0.0,0.0,0.0,0.0,0.0,0.0,0.0,0.0,0.0,0.0,0.0,0.0,0.0,0.0,0.0,0.0,0.0,0.0,0.0,0.0,0.0,0.0,0.0,0.0,0.0,0.0,0.0,0.0,0.0,0.0,0.0,0.0,0.0,0.0,0.0,0.0,0.0,0.0,0.0,0.0,0.0,0.0,0.0,0.0,0.0,0.0,0.0,0.0,0.0,0.0,0.0,0.0,0.0,0.0,0.0,0.0,0.0,0.0,0.0,0.0,0.0,0.0,0.0,0.0,0.0,0.0,0.0,0.0,0.0,0.0,0.0,0.0,0.0,0.0,0.0,0.0,0.0,0.0,0.0,0.0,0.0,0.0,0.0,0.0,0.0,0.0,0.0,0.0,0.0,0.0,0.0,0.0,0.0,0.0,0.0,0.0,0.0,0.0,0.0,0.0,0.0,0.0,0.0,0.0,0.0,0.0,0.0,0.0,0.0,0.0,0.0,0.0,0.0,0.0,0.0,0.0,0.0,0.0,0.0,0.0,0.0,0.0,0.0,0.0,0.0,0.0,0.0,0.0,0.0,0.0,0.0,0.0,0.0,0.0,0.0,0.0,0.0,0.0,0.0,0.0,0.0,0.0,0.0,0.0,0.0,0.0,0.0,0.0,0.0,0.0,0.0,0.0,0.0,0.0,0.0,0.0,0.0,0.0,0.0,0.0,0.0,0.0,0.0,0.0,0.0,0.0,0.0,0.0,0.0,0.0,0.0,0.0,0.0,0.0,0.0,0.0,0.0,0.0,0.0,0.0,0.0,0.0,0.0,0.0,0.0,0.0,0.0,0.0,0.0,0.0,0.0,0.0,0.0,0.0,0.0,0.0,0.0,0.0,0.0,0.0,0.0,0.0,0.0,0.0,0.0,0.0,0.0,0.0,0.0,0.0,0.0,0.0,0.0,0.0,0.0,0.0,0.0,0.0,0.0,0.0,0.0,0.0,0.0,0.0,0.0,0.0,0.0,0.0,0.0,0.0,0.0,0.0,0.0,0.0,0.0,0.0,0.0,0.0,0.0,0.0,0.0,0.0,0.0,0.0,0.0,0.0,0.0,0.0,0.0,0.0,0.0,0.0,0.0,0.0,0.0,0.0,0.0,0.0,0.0,0.0,0.0,0.0,0.0,0.0,0.0,0.0,0.0,0.0,0.0,0.0,0.0,0.0,0.0,0.0,0.0,0.0,0.0,0.0,0.0,0.0,0.0,0.0,0.0,0.0,0.0,0.0,0.0,0.0,0.0,0.0,0.0,0.0,0.0,0.0,0.0,0.0,0.0,0.0,0.0,0.0,0.0,0.0,0.0,0.0,0.0,0.0,0.0,0.0,0.0,0.0,0.0,0.0,0.0,0.0,0.0,0.0,0.0,0.0,0.0,0.0,0.0,0.0,0.0,0.0,0.0,0.0,0.0,-0.9903,0.0,0.0,0.0,0.0,0.0,0.0,0.0,0.0,0.0,0.0,0.0,0.0,0.0,0.0,0.0,0.0,0.0,0.0,0.0,0.0,0.0,0.0,0.0,0.0,0.0,0.0,0.0,0.0,0.0,0.0,0.0,0.0,0.0,0.0,0.0,0.0,0.0,0.0,0.0,0.0,0.0,0.0,0.0,0.0,0.0,0.0,0.0,0.0,0.0,0.0,0.0,0.0,0.0,0.0,0.0,0.0,0.0,0.0,0.0,0.0,0.0,0.0,0.0,0.0,0.0,0.0,0.0,0.0,0.0,0.0,0.0,0.0,0.0,0.0,0.0,0.0,0.0,0.0,0.0,0.0,0.0,0.0,0.0,0.0,0.0,0.0,0.0,0.0,0.0,0.0,0.0,0.0,0.0,0.0,0.0,0.0,0.0,0.0,0.0,0.0,0.0,0.0,0.0,0.0,0.0,0.0,0.0,0.0,0.0,0.0,-0.994,-0.981,-0.981,-0.9706,-0.9472,0.0,0.0,0.0,0.0,0.0,0.0,0.0,0.0,0.0,0.0,0.0,0.0,0.0,0.0,0.0,0.0,0.0,0.0,0.0,0.0,0.0,0.0,0.0,0.0,0.0,0.0,0.0,0.0,0.0,0.0,0.0,0.0,0.0,0.0,0.0,0.0,0.0,0.0,0.0,0.0,0.0,0.0,0.0,0.0,0.0,0.0,0.0,0.0,0.0,0.0,0.0,0.0,0.0,0.0,0.0,0.0,0.0,0.0,0.0,0.0,0.0,0.0,0.0,0.0,0.0,0.0,0.0,0.0,0.0,0.0,0.0,0.0,0.0,0.0,0.0,0.0,0.0,0.0,0.0,0.0,0.0,0.0,0.0,0.0,0.0,0.0,0.0,0.0,0.0,0.0,0.0,0.0,0.0,0.0,0.0,0.0,0.0,0.0,0.0,0.0,0.0,0.0,0.0,0.0,0.0,0.0,0.0,0.0,0.0,0.0,0.0,0.0,-0.9368,-0.929,-0.9159,0.0,0.0,0.0,0.0,0.0,0.0,0.0,0.0,0.0,0.0,0.0,0.0,0.0,0.0,0.0,0.0,0.0,0.0,0.0,0.0,0.0,0.0,0.0,0.0,0.0,0.0,0.0,0.0,0.0,0.0,0.0,0.0,0.0,0.0,0.0,0.0,0.0,0.0,0.0,0.0,0.0,0.0,0.0,0.0,0.0,0.0,0.0,0.0,0.0,0.0,0.0,0.0,0.0,0.0,0.0,0.0,0.0,0.0,0.0,0.0,0.0,0.0,0.0,0.0,0.0,0.0,0.0,0.0,0.0,0.0,0.0,0.0,0.0,0.0,0.0,0.0,0.0,0.0,0.0,0.0,0.0,0.0,0.0,0.0,0.0,0.0,0.0,0.0,0.0,0.0,0.0,0.0,0.0,0.0,0.0,0.0,0.0,0.0,0.0,0.0,0.0,0.0,0.0,0.0,0.0,0.0,0.0,0.0,0.0,0.0,-0.9237,-0.9237,-0.9211,0.0,-0.9028,0.0,0.0,0.0,0.0,0.0,0.0,0.0,0.0,0.0,0.0,0.0,0.0,0.0,0.0,0.0,0.0,0.0,0.0,0.0,0.0,0.0,0.0,0.0,0.0,0.0,0.0,0.0,0.0,0.0,0.0,0.0,0.0,0.0,0.0,0.0,0.0,0.0,0.0,0.0,0.0,0.0,0.0,0.0,0.0,0.0,0.0,0.0,0.0,0.0,0.0,0.0,0.0,0.0,0.0,0.0,0.0,0.0,0.0,0.0,0.0,0.0,0.0,0.0,0.0,0.0,0.0,0.0,0.0,0.0,0.0,0.0,0.0,0.0,0.0,0.0,0.0,0.0,0.0,0.0,0.0,0.0,0.0,0.0,0.0,0.0,0.0,0.0,0.0,0.0,0.0,0.0,0.0,0.0,0.0,0.0,0.0,0.0,0.0,0.0,0.0,0.0,0.0,0.0,0.0,0.0,0.0,0.0,0.0,0.0,0.0,-0.8962,-0.8962,-0.8962,-0.8936,0.0,0.0,0.0,0.0,0.0,0.0,0.0,0.0,0.0,0.0,0.0,0.0,0.0,0.0,0.0,0.0,0.0,0.0,0.0,0.0,0.0,0.0,0.0,0.0,0.0,0.0,0.0,0.0,0.0,0.0,0.0,0.0,0.0,0.0,0.0,0.0,0.0,0.0,0.0,0.0,0.0,0.0,0.0,0.0,0.0,0.0,0.0,0.0,0.0,0.0,0.0,0.0,0.0,0.0,0.0,0.0,0.0,0.0,0.0,0.0,0.0,0.0,0.0,0.0,0.0,0.0,0.0,0.0,0.0,0.0,0.0,0.0,0.0,0.0,0.0,0.0,0.0,0.0,0.0,0.0,0.0,0.0,0.0,0.0,0.0,0.0,0.0,0.0,0.0,0.0,0.0,0.0,0.0,0.0,0.0,0.0,0.0,0.0,0.0,0.0,0.0,0.0,0.0,0.0,0.0,0.0,0.0,0.0,0.0,0.0,-0.8857,-0.8778,-0.8778,-0.8778,-0.8778,-0.8778,0.0,0.0,0.0,0.0,0.0,0.0,0.0,0.0,0.0,0.0,0.0,0.0,0.0,0.0,0.0,0.0,0.0,0.0,0.0,0.0,0.0,0.0,0.0,0.0,0.0,0.0,0.0,0.0,0.0,0.0,0.0,0.0,0.0,0.0,0.0,0.0,0.0,0.0,0.0,0.0,0.0,0.0,0.0,0.0,0.0,0.0,0.0,0.0,0.0,0.0,0.0,0.0,0.0,0.0,0.0,0.0,0.0,0.0,0.0,0.0,0.0,0.0,0.0,0.0,0.0,0.0,0.0,0.0,0.0,0.0,0.0,0.0,0.0,0.0,0.0,0.0,0.0,0.0,0.0,0.0,0.0,0.0,0.0,0.0,0.0,0.0,0.0,0.0,0.0,0.0,0.0,0.0,0.0,0.0,0.0,0.0,0.0,0.0,0.0,0.0,0.0,0.0,0.0,0.0,0.0,0.0,0.0,0.0,-0.8804,-0.8804,-0.8778,-0.8778,-0.8778,-0.8778,0.0,0.0,0.0,0.0,0.0,0.0,0.0,0.0,0.0,0.0,0.0,0.0,0.0,0.0,0.0,0.0,0.0,0.0,0.0,0.0,0.0,0.0,0.0,0.0,0.0,0.0,0.0,0.0,0.0,0.0,0.0,0.0,0.0,0.0,0.0,0.0,0.0,0.0,0.0,0.0,0.0,0.0,0.0,0.0,0.0,0.0,0.0,0.0,0.0,0.0,0.0,0.0,0.0,0.0,0.0,0.0,0.0,0.0,0.0,0.0,0.0,0.0,0.0,0.0,0.0,0.0,0.0,0.0,0.0,0.0,0.0,0.0,0.0,0.0,0.0,0.0,0.0,0.0,0.0,0.0,0.0,0.0,0.0,0.0,0.0,0.0,0.0,0.0,0.0,0.0,0.0,0.0,0.0,0.0,0.0,0.0,0.0,0.0,0.0,0.0,0.0,0.0,0.0,0.0,0.0,0.0,0.0,0.0,0.0,-0.8818,-0.8778,-0.8778,-0.8778,-0.8778,-0.8778,0.0,0.0,0.0,0.0,0.0,0.0,0.0,0.0,0.0,0.0,0.0,0.0,0.0,0.0,0.0,0.0,0.0,0.0,0.0,0.0,0.0,0.0,0.0,0.0,0.0,0.0,0.0,0.0,0.0,0.0,0.0,0.0,0.0,0.0,0.0,0.0,0.0,0.0,0.0,0.0,0.0,0.0,0.0,0.0,0.0,0.0,0.0,0.0,0.0,0.0,0.0,0.0,0.0,0.0,0.0,0.0,0.0,0.0,0.0,0.0,0.0,0.0,0.0,0.0,0.0,0.0,0.0,0.0,0.0,0.0,0.0,0.0,0.0,0.0,0.0,0.0,0.0,0.0,0.0,0.0,0.0,0.0,0.0,0.0,0.0,0.0,0.0,0.0,0.0,0.0,0.0,0.0,0.0,0.0,0.0,0.0,0.0,0.0,0.0,0.0,0.0,0.0,0.0,0.0,0.0,0.0,0.0,0.0,0.0,-0.9098,0.0,-0.9098,-0.9098,-0.9098,-0.9045,0.0,0.0,0.0,0.0,0.0,0.0,0.0,0.0,0.0,0.0,0.0,0.0,0.0,0.0,0.0,0.0,0.0,0.0,0.0,0.0,0.0,0.0,0.0,0.0,0.0,0.0,0.0,0.0,0.0,0.0,0.0,0.0,0.0,0.0,0.0,0.0,0.0,0.0,0.0,0.0,0.0,0.0,0.0,0.0,0.0,0.0,0.0,0.0,0.0,0.0,0.0,0.0,0.0,0.0,0.0,0.0,0.0,0.0,0.0,0.0,0.0,0.0,0.0,0.0,0.0,0.0,0.0,0.0,0.0,0.0,0.0,0.0,0.0,0.0,0.0,0.0,0.0,0.0,0.0,0.0,0.0,0.0,0.0,0.0,0.0,0.0,0.0,0.0,0.0,0.0,0.0,0.0,0.0,0.0,0.0,0.0,0.0,0.0,0.0,0.0,0.0,0.0,0.0,0.0,0.0,0.0,0.0,0.0,-0.9686,-0.9702,-0.9673,-0.9646,-0.9715,-0.9659,-0.9539,0.0,0.0,0.0,0.0,0.0,0.0,0.0,0.0,0.0,0.0,0.0,0.0,0.0,0.0,0.0,0.0,0.0,0.0,0.0,0.0,0.0,0.0,0.0,0.0,0.0,0.0,0.0,0.0,0.0,0.0,0.0,0.0,0.0,0.0,0.0,0.0,0.0,0.0,0.0,0.0,0.0,0.0,0.0,0.0,0.0,0.0,0.0,0.0,0.0,0.0,0.0,0.0,0.0,0.0,0.0,0.0,0.0,0.0,0.0,0.0,0.0,0.0,0.0,0.0,0.0,0.0,0.0,0.0,0.0,0.0,0.0,0.0,0.0,0.0,0.0,0.0,0.0,0.0,0.0,0.0,0.0,0.0,0.0,0.0,0.0,0.0,0.0,0.0,0.0,0.0,0.0,0.0,0.0,0.0,0.0,0.0,0.0,0.0,0.0,0.0,0.0,0.0,0.0,0.0,0.0,0.0,0.0,0.0,0.0,-0.9699,-0.9715,-0.9715,-0.9715,-0.9715,-0.9633,0.0,0.0,0.0,0.0,0.0,0.0,0.0,0.0,0.0,0.0,0.0,0.0,0.0,0.0,0.0,0.0,0.0,0.0,0.0,0.0,0.0,0.0,0.0,0.0,0.0,0.0,0.0,0.0,0.0,0.0,0.0,0.0,0.0,0.0,0.0,0.0,0.0,0.0,0.0,0.0,0.0,0.0,0.0,0.0,0.0,0.0,0.0,0.0,0.0,0.0,0.0,0.0,0.0,0.0,0.0,0.0,0.0,0.0,0.0,0.0,0.0,0.0,0.0,0.0,0.0,0.0,0.0,0.0,0.0,0.0,0.0,0.0,0.0,0.0,0.0,0.0,0.0,0.0,0.0,0.0,0.0,0.0,0.0,0.0,0.0,0.0,0.0,0.0,0.0,0.0,0.0,0.0,0.0,0.0,0.0,0.0,0.0,0.0,0.0,0.0,0.0,0.0,0.0,0.0,0.0,0.0,0.0,0.0,0.0,-1.0064,-1.0007,-1.0037,-1.0037,-1.0037,-0.9967,-0.9846,0.0,0.0,0.0,0.0,0.0,0.0,0.0,0.0,0.0,0.0,0.0,0.0,0.0,0.0,0.0,0.0,0.0,0.0,0.0,0.0,0.0,0.0,0.0,0.0,0.0,0.0,0.0,0.0,0.0,0.0,0.0,0.0,0.0,0.0,0.0,0.0,0.0,0.0,0.0,0.0,0.0,0.0,0.0,0.0,0.0,0.0,0.0,0.0,0.0,0.0,0.0,0.0,0.0,0.0,0.0,0.0,0.0,0.0,0.0,0.0,0.0,0.0,0.0,0.0,0.0,0.0,0.0,0.0,0.0,0.0,0.0,0.0,0.0,0.0,0.0,0.0,0.0,0.0,0.0,0.0,0.0,0.0,0.0,0.0,0.0,0.0,0.0,0.0,0.0,0.0,0.0,0.0,0.0,0.0,0.0,0.0,0.0,0.0,0.0,0.0,0.0,0.0,0.0,0.0,0.0,0.0,0.0,0.0,-1.0586,-1.0586,-1.0573,-1.0573,-1.0573,-1.0452,0.0,0.0,0.0,0.0,0.0,0.0,0.0,0.0,0.0,0.0,0.0,0.0,0.0,0.0,0.0,0.0,0.0,0.0,0.0,0.0,0.0,0.0,0.0,0.0,0.0,0.0,0.0,0.0,0.0,0.0,0.0,0.0,0.0,0.0,0.0,0.0,0.0,0.0,0.0,0.0,0.0,0.0,0.0,0.0,0.0,0.0,0.0,0.0,0.0,0.0,0.0,0.0,0.0,0.0,0.0,0.0,0.0,0.0,0.0,0.0,0.0,0.0,0.0,0.0,0.0,0.0,0.0,0.0,0.0,0.0,0.0,0.0,0.0,0.0,0.0,0.0,0.0,0.0,0.0,0.0,0.0,0.0,0.0,0.0,0.0,0.0,0.0,0.0,0.0,0.0,0.0,0.0,0.0,0.0,0.0,0.0,0.0,0.0,0.0,0.0,0.0,0.0,0.0,0.0,0.0,0.0,0.0,0.0,0.0,-1.0586,-1.0586,-1.0586,-1.0586,-1.0586,-1.0559,0.0,0.0,0.0,0.0,0.0,0.0,0.0,0.0,0.0,0.0,0.0,0.0,0.0,0.0,0.0,0.0,0.0,0.0,0.0,0.0,0.0,0.0,0.0,0.0,0.0,0.0,0.0,0.0,0.0,0.0,0.0,0.0,0.0,0.0,0.0,0.0,0.0,0.0,0.0,0.0,0.0,0.0,0.0,0.0,0.0,0.0,0.0,0.0,0.0,0.0,0.0,0.0,0.0,0.0,0.0,0.0,0.0,0.0,0.0,0.0,0.0,0.0,0.0,0.0,0.0,0.0,0.0,0.0,0.0,0.0,0.0,0.0,0.0,0.0,0.0,0.0,0.0,0.0,0.0,0.0,0.0,0.0,0.0,0.0,0.0,0.0,0.0,0.0,0.0,0.0,0.0,0.0,0.0,0.0,0.0,0.0,0.0,0.0,0.0,0.0,0.0,0.0,0.0,0.0,0.0,0.0,0.0,0.0,-1.0586,-1.0586,-1.0586,-1.0586,-1.0586,-1.0586,-1.0568,0.0,0.0,0.0,0.0,0.0,0.0,0.0,0.0,0.0,0.0,0.0,0.0,0.0,0.0,0.0,0.0,0.0,0.0,0.0,0.0,0.0,0.0,0.0,0.0,0.0,0.0,0.0,0.0,0.0,0.0,0.0,0.0,0.0,0.0,0.0,0.0,0.0,0.0,0.0,0.0,0.0,0.0,0.0,0.0,0.0,0.0,0.0,0.0,0.0,0.0,0.0,0.0,0.0,0.0,0.0,0.0,0.0,0.0,0.0,0.0,0.0,0.0,0.0,0.0,0.0,0.0,0.0,0.0,0.0,0.0,0.0,0.0,0.0,0.0,0.0,0.0,0.0,0.0,0.0,0.0,0.0,0.0,0.0,0.0,0.0,0.0,0.0,0.0,0.0,0.0,0.0,0.0,0.0,0.0,0.0,0.0,0.0,0.0,0.0,0.0,0.0,0.0,0.0,0.0,0.0,0.0,0.0,0.0,-1.064,-1.064,-1.06,-1.0586,-1.0586,-1.0586,-1.0504,0.0,0.0,0.0,0.0,0.0,0.0,0.0,0.0,0.0,0.0,0.0,0.0,0.0,0.0,0.0,0.0,0.0,0.0,0.0,0.0,0.0,0.0,0.0,0.0,0.0,0.0,0.0,0.0,0.0,0.0,0.0,0.0,0.0,0.0,0.0,0.0,0.0,0.0,0.0,0.0,0.0,0.0,0.0,0.0,0.0,0.0,0.0,0.0,0.0,0.0,0.0,0.0,0.0,0.0,0.0,0.0,0.0,0.0,0.0,0.0,0.0,0.0,0.0,0.0,0.0,0.0,0.0,0.0,0.0,0.0,0.0,0.0,0.0,0.0,0.0,0.0,0.0,0.0,0.0,0.0,0.0,0.0,0.0,0.0,0.0,0.0,0.0,0.0,0.0,0.0,0.0,0.0,0.0,0.0,0.0,0.0,0.0,0.0,0.0,0.0,0.0,0.0,0.0,0.0,0.0,0.0,0.0,0.0,-1.0902,-1.0935,-1.0707,-1.0586,-1.0586,-1.0586,-1.0523,0.0,0.0,0.0,0.0,0.0,0.0,0.0,0.0,0.0,0.0,0.0,0.0,0.0,0.0,0.0,0.0,0.0,0.0,0.0,0.0,0.0,0.0,0.0,0.0,0.0,0.0,0.0,0.0,0.0,0.0,0.0,0.0,0.0,0.0,0.0,0.0,0.0,0.0,0.0,0.0,0.0,0.0,0.0,0.0,0.0,0.0,0.0,0.0,-0.1399,0.0,0.0,0.0,0.0,0.0,0.0,0.0,0.0,0.0,0.0,0.0,0.0,0.0,0.0,0.0,0.0,0.0,0.0,0.0,0.0,0.0,0.0,0.0,0.0,0.0,0.0,0.0,0.0,0.0,0.0,0.0,0.0,0.0,0.0,0.0,0.0,0.0,0.0,0.0,0.0,0.0,0.0,0.0,0.0,0.0,0.0,0.0,0.0,0.0,0.0,0.0,0.0,0.0,0.0,0.0,0.0,0.0,0.0,0.0,-1.1196,-1.1196,-1.1049,-1.0969,-1.0969,-1.0969,-1.0705,0.0,0.0,0.0,0.0,0.0,0.0,0.0,0.0,0.0,0.0,0.0,0.0,0.0,0.0,0.0,0.0,0.0,0.0,0.0,0.0,0.0,0.0,0.0,0.0,0.0,0.0,0.0,0.0,0.0,0.0,0.0,0.0,0.0,0.0,0.0,0.0,0.0,0.0,0.0,0.0,0.0,0.0,0.0,0.0,0.0,0.0,0.0,0.0,0.0,0.0,0.0,0.0,0.0,0.0,0.0,0.0,0.0,0.0,0.0,0.0,0.0,0.0,0.0,0.0,0.0,0.0,0.0,0.0,0.0,0.0,0.0,0.0,0.0,0.0,0.0,0.0,0.0,0.0,0.0,0.0,0.0,0.0,0.0,0.0,0.0,0.0,0.0,0.0,0.0,0.0,0.0,0.0,0.0,0.0,0.0,0.0,0.0,0.0,0.0,0.0,0.0,0.0,0.0,0.0,0.0,0.0,0.0,-1.1482,-1.1455,-1.149,-1.145,-1.1423,-1.1423,-1.1423,-1.0994,-1.0199,0.0,0.0,0.0,0.0,0.0,0.0,0.0,0.0,0.0,0.0,0.0,0.0,0.0,0.0,0.0,0.0,0.0,0.0,0.0,0.0,0.0,0.0,0.0,0.0,0.0,0.0,0.0,0.0,0.0,0.0,0.0,0.0,0.0,0.0,0.0,0.0,0.0,0.0,-0.4383,-0.418,0.0,0.0,0.0,0.0,0.0,0.0,0.0,0.0,-0.2244,0.0,0.0,0.0,0.0,0.0,0.0,0.0,0.0,0.0,0.0,0.0,0.0,0.0,0.0,0.0,0.0,0.0,0.0,0.0,0.0,0.0,0.0,0.0,0.0,0.0,0.0,0.0,0.0,0.0,0.0,0.0,0.0,0.0,0.0,0.0,0.0,0.0,0.0,0.0,0.0,0.0,0.0,0.0,0.0,0.0,0.0,0.0,0.0,0.0,0.0,0.0,0.0,0.0,0.0,0.0,0.0,-1.2158,-1.1917,-1.1832,-1.1832,-1.1557,-1.1423,-1.1423,-1.1423,-1.1212,-1.078,0.0,0.0,0.0,0.0,0.0,0.0,0.0,0.0,0.0,0.0,0.0,0.0,0.0,0.0,0.0,0.0,0.0,0.0,0.0,0.0,0.0,0.0,0.0,0.0,0.0,0.0,0.0,0.0,0.0,0.0,0.0,0.0,0.0,0.0,0.0,0.0,0.0,0.0,0.0,-0.4451,-0.4303,0.0,0.0,0.0,0.0,0.0,0.0,0.0,0.0,-0.2909,0.0,0.0,0.0,0.0,0.0,0.0,0.0,0.0,0.0,0.0,0.0,0.0,0.0,0.0,0.0,0.0,0.0,0.0,0.0,0.0,0.0,0.0,0.0,0.0,0.0,0.0,0.0,0.0,0.0,0.0,0.0,0.0,0.0,0.0,0.0,0.0,0.0,0.0,0.0,0.0,0.0,0.0,0.0,0.0,0.0,0.0,0.0,0.0,0.0,0.0,0.0,0.0,0.0,0.0,0.0,-1.2291,-1.2158,-1.2127,-1.2091,-1.1957,-1.1877,-1.1877,-1.1877,-1.1633,0.0,0.0,0.0,0.0,0.0,0.0,0.0,0.0,0.0,0.0,0.0,0.0,0.0,0.0,0.0,0.0,0.0,0.0,0.0,0.0,0.0,0.0,0.0,0.0,0.0,0.0,0.0,0.0,0.0,0.0,0.0,0.0,0.0,0.0,0.0,0.0,0.0,0.0,0.0,0.0,-0.4762,-0.472,-0.472,0.0,0.0,0.0,0.0,0.0,0.0,-0.3889,-0.3636,0.0,0.0,0.0,0.0,0.0,0.0,0.0,0.0,0.0,0.0,0.0,0.0,0.0,0.0,0.0,0.0,0.0,0.0,0.0,0.0,0.0,0.0,0.0,0.0,0.0,0.0,0.0,0.0,0.0,0.0,0.0,0.0,0.0,0.0,0.0,0.0,0.0,0.0,0.0,0.0,0.0,0.0,0.0,0.0,0.0,0.0,0.0,0.0,0.0,0.0,0.0,0.0,0.0,0.0,0.0,-1.2398,-1.2398,-1.2358,-1.2305,-1.2305,-1.2305,-1.2305,-1.2305,-1.2015,0.0,0.0,0.0,0.0,0.0,0.0,0.0,0.0,0.0,0.0,0.0,0.0,0.0,0.0,0.0,0.0,0.0,0.0,0.0,0.0,0.0,0.0,0.0,0.0,0.0,0.0,0.0,0.0,0.0,0.0,0.0,0.0,0.0,0.0,0.0,0.0,0.0,0.0,0.0,0.0,0.0,-0.5097,-0.5121,-0.503,0.0,0.0,0.0,0.0,-0.4984,-0.4604,0.0,0.0,0.0,0.0,0.0,0.0,0.0,0.0,0.0,0.0,0.0,0.0,0.0,0.0,0.0,0.0,0.0,0.0,0.0,0.0,0.0,0.0,0.0,0.0,0.0,0.0,0.0,0.0,0.0,0.0,0.0,0.0,0.0,0.0,0.0,0.0,0.0,0.0,0.0,0.0,0.0,0.0,0.0,0.0,0.0,0.0,0.0,0.0,0.0,0.0,0.0,0.0,0.0,0.0,0.0,0.0,-1.2744,-1.273,-1.2596,-1.2318,-1.2305,-1.2305,-1.2305,-1.2305,-1.2107,0.0,0.0,0.0,0.0,0.0,0.0,0.0,0.0,0.0,0.0,0.0,0.0,0.0,0.0,0.0,0.0,0.0,0.0,0.0,0.0,0.0,0.0,0.0,0.0,0.0,0.0,0.0,0.0,0.0,0.0,0.0,0.0,0.0,0.0,0.0,0.0,0.0,0.0,0.0,0.0,0.0,-0.5514,-0.5553,-0.5488,-0.55,0.0,0.0,-0.5461,-0.55,-0.5449,0.0,0.0,0.0,0.0,0.0,0.0,0.0,0.0,0.0,0.0,0.0,0.0,0.0,0.0,0.0,0.0,0.0,0.0,0.0,0.0,0.0,0.0,0.0,0.0,0.0,0.0,0.0,0.0,0.0,0.0,0.0,0.0,0.0,0.0,0.0,0.0,0.0,0.0,0.0,0.0,0.0,0.0,0.0,0.0,0.0,0.0,0.0,0.0,0.0,0.0,0.0,0.0,0.0,0.0,0.0,-1.3146,-1.3013,-1.3052,-1.2946,-1.2826,-1.2812,-1.2732,-1.2596,-1.2596,-1.2366,0.0,0.0,0.0,0.0,0.0,0.0,0.0,0.0,0.0,0.0,0.0,0.0,0.0,0.0,0.0,0.0,0.0,0.0,0.0,0.0,0.0,0.0,0.0,0.0,0.0,0.0,0.0,0.0,0.0,0.0,0.0,0.0,0.0,0.0,0.0,0.0,0.0,0.0,0.0,0.0,0.0,0.0,-0.6251,-0.6185,0.0,0.0,0.0,-0.6143,-0.6384,0.0,0.0,0.0,0.0,0.0,0.0,0.0,0.0,0.0,0.0,0.0,0.0,0.0,0.0,0.0,0.0,0.0,0.0,0.0,0.0,0.0,0.0,0.0,0.0,0.0,0.0,0.0,0.0,0.0,0.0,0.0,0.0,0.0,0.0,0.0,0.0,0.0,0.0,0.0,0.0,0.0,0.0,0.0,0.0,0.0,0.0,0.0,0.0,0.0,0.0,0.0,0.0,0.0,0.0,0.0,0.0,0.0,-1.328,-1.328,-1.328,-1.3213,-1.3213,-1.3093,-1.2918,-1.2904,0.0,0.0,0.0,0.0,0.0,0.0,0.0,0.0,0.0,0.0,0.0,0.0,0.0,0.0,0.0,0.0,0.0,0.0,0.0,0.0,0.0,0.0,0.0,0.0,0.0,0.0,0.0,-0.7414,0.0,0.0,0.0,0.0,0.0,0.0,0.0,0.0,0.0,0.0,0.0,0.0,0.0,0.0,-0.6997,-0.7082,-0.7016,-0.7012,0.0,0.0,-0.6943,-0.7233,-0.6893,-0.6613,0.0,0.0,0.0,0.0,0.0,0.0,0.0,0.0,0.0,0.0,0.0,0.0,0.0,0.0,0.0,0.0,0.0,0.0,0.0,0.0,0.0,0.0,0.0,0.0,0.0,0.0,0.0,0.0,0.0,0.0,0.0,0.0,0.0,0.0,0.0,0.0,0.0,0.0,0.0,0.0,0.0,0.0,0.0,0.0,0.0,0.0,0.0,0.0,0.0,0.0,0.0,0.0,0.0,0.0,-1.3895,-1.3586,-1.3573,-1.344,-1.3227,-1.3213,-1.32,-1.3186,-1.3173,-1.3094,0.0,0.0,0.0,0.0,0.0,0.0,0.0,0.0,0.0,0.0,0.0,0.0,0.0,0.0,0.0,0.0,0.0,0.0,0.0,0.0,0.0,0.0,0.0,0.0,0.0,0.0,0.0,0.0,0.0,0.0,0.0,0.0,0.0,0.0,0.0,0.0,0.0,0.0,0.0,0.0,0.0,-0.8024,-0.8,-0.8,-0.8008,0.0,-0.8016,-0.7934,-0.7777,-0.7728,-0.7548,-0.7136,0.0,0.0,0.0,0.0,0.0,0.0,0.0,0.0,0.0,0.0,0.0,0.0,0.0,0.0,0.0,0.0,0.0,0.0,0.0,0.0,0.0,0.0,0.0,0.0,0.0,0.0,0.0,0.0,0.0,0.0,0.0,0.0,0.0,0.0,0.0,0.0,0.0,0.0,0.0,0.0,0.0,0.0,0.0,0.0,0.0,0.0,0.0,0.0,0.0,0.0,0.0,0.0,0.0,-1.4028,-1.3921,-1.3921,-1.3868,-1.3761,-1.3748,-1.3667,-1.344,-1.344,-1.336,0.0,0.0,0.0,0.0,0.0,0.0,0.0,0.0,0.0,0.0,0.0,0.0,0.0,0.0,0.0,0.0,0.0,0.0,0.0,0.0,0.0,0.0,0.0,0.0,0.0,0.0,0.0,0.0,-0.9526,-0.9515,-0.9634,0.0,0.0,0.0,0.0,0.0,0.0,0.0,0.0,0.0,0.0,-0.8881,-0.8914,-0.889,0.0,0.0,-0.9033,-0.8948,-0.8734,-0.8641,-0.8438,-0.8136,-0.7881,0.0,0.0,0.0,0.0,0.0,0.0,0.0,0.0,0.0,0.0,0.0,0.0,0.0,0.0,0.0,0.0,0.0,0.0,0.0,0.0,0.0,0.0,0.0,0.0,0.0,0.0,0.0,0.0,0.0,0.0,0.0,0.0,0.0,0.0,0.0,0.0,0.0,0.0,0.0,0.0,0.0,0.0,0.0,0.0,0.0,0.0,0.0,0.0,0.0,0.0,0.0,0.0,-1.4349,-1.4349,-1.4269,-1.4215,-1.4215,-1.4135,-1.3988,-1.3746,-1.3733,-1.364,0.0,0.0,0.0,0.0,0.0,0.0,0.0,0.0,0.0,0.0,0.0,0.0,0.0,0.0,0.0,0.0,0.0,0.0,0.0,0.0,0.0,0.0,0.0,0.0,0.0,0.0,0.0,0.0,-1.0758,-1.0708,-1.0873,0.0,0.0,0.0,0.0,0.0,0.0,0.0,0.0,0.0,0.0,-0.9981,-1.0087,-1.0064,-1.007,-1.0269,-1.0246,-1.0168,-0.9951,-0.9733,-0.9511,-0.9298,0.0,0.0,0.0,0.0,0.0,0.0,0.0,0.0,0.0,0.0,0.0,0.0,0.0,0.0,0.0,0.0,0.0,0.0,0.0,0.0,0.0,0.0,0.0,0.0,0.0,0.0,0.0,-1.5818,0.0,0.0,-1.5832,0.0,0.0,0.0,0.0,0.0,0.0,0.0,0.0,0.0,0.0,0.0,0.0,0.0,0.0,0.0,0.0,0.0,0.0,0.0,0.0,0.0,0.0,-1.4981,-1.4981,-1.4656,-1.4522,-1.4509,-1.4242,-1.4095,-1.4095,-1.4082,-1.4082,-1.4055,0.0,0.0,0.0,0.0,0.0,0.0,0.0,0.0,0.0,0.0,0.0,0.0,0.0,0.0,0.0,0.0,0.0,0.0,0.0,0.0,0.0,0.0,0.0,0.0,0.0,0.0,-1.1958,-1.1982,-1.1938,0.0,0.0,0.0,0.0,0.0,0.0,0.0,0.0,0.0,0.0,-1.1262,-1.1348,-1.1574,-1.166,-1.1714,-1.1897,-1.1768,-1.1553,-1.1295,-1.1068,-1.0852,0.0,0.0,0.0,0.0,0.0,0.0,0.0,0.0,0.0,0.0,0.0,0.0,0.0,0.0,0.0,0.0,0.0,0.0,0.0,0.0,0.0,0.0,0.0,0.0,0.0,0.0,0.0,-1.5832,-1.5832,0.0,0.0,0.0,0.0,0.0,0.0,0.0,0.0,0.0,0.0,0.0,-1.5832,-1.5832,0.0,0.0,0.0,0.0,0.0,0.0,0.0,0.0,0.0,0.0,0.0,0.0,-1.5008,-1.5008,-1.4914,-1.4816,-1.4816,-1.4723,-1.4713,-1.4713,-1.4713,-1.4576,-1.4376,0.0,0.0,0.0,0.0,0.0,0.0,0.0,0.0,0.0,0.0,0.0,0.0,0.0,0.0,0.0,0.0,0.0,0.0,0.0,0.0,0.0,0.0,0.0,0.0,0.0,-1.2858,0.0,0.0,0.0,0.0,0.0,0.0,0.0,0.0,0.0,0.0,0.0,-1.1892,-1.2003,-1.2143,-1.233,-1.2592,-1.2659,-1.2718,0.0,0.0,0.0,0.0,0.0,0.0,0.0,0.0,0.0,0.0,0.0,0.0,0.0,0.0,-0.842,-0.7484,-0.7281,-0.7116,-0.6819,0.0,0.0,0.0,0.0,0.0,0.0,0.0,0.0,0.0,0.0,0.0,0.0,0.0,0.0,-1.5832,0.0,-1.5832,0.0,0.0,0.0,0.0,0.0,0.0,0.0,0.0,-1.5832,-1.5832,-1.5832,-1.5832,-1.5832,0.0,-1.5832,-1.5832,0.0,0.0,0.0,0.0,0.0,0.0,0.0,0.0,-1.5257,-1.5257,-1.5164,-1.5156,-1.5156,-1.5062,-1.5008,-1.5008,-1.5008,-1.4914,-1.4683,-1.4496,-1.4389,0.0,0.0,0.0,0.0,0.0,0.0,0.0,0.0,0.0,0.0,0.0,0.0,0.0,0.0,0.0,0.0,0.0,0.0,0.0,0.0,0.0,0.0,0.0,-1.3944,0.0,0.0,0.0,0.0,0.0,0.0,0.0,0.0,0.0,-1.2738,-1.2846,-1.3063,-1.3076,-1.3163,-1.3343,-1.3572,0.0,0.0,0.0,0.0,0.0,0.0,0.0,-1.3495,-1.319,-1.3178,-1.3074,-1.2551,-1.217,-1.1751,-1.1354,0.0,0.0,-0.8607,-0.8253,-0.8076,-0.7697,-0.7401,-0.719,-0.7063,-0.6851,-0.673,0.0,0.0,0.0,0.0,0.0,0.0,0.0,0.0,-1.5832,-1.5832,0.0,-1.5832,0.0,0.0,0.0,0.0,0.0,-1.5832,0.0,0.0,-1.5832,-1.5832,-1.5832,-1.5832,-1.5832,-1.5832,-1.5832,-1.5832,-1.5832,-1.5832,0.0,0.0,0.0,0.0,0.0,0.0,-1.5832,-1.5805,-1.5551,-1.5404,-1.5404,-1.5182,-1.5048,-1.5048,-1.5035,-1.5035,-1.5022,-1.4995,-1.5008,-1.5008,-1.4995,0.0,0.0,0.0,0.0,0.0,0.0,0.0,0.0,0.0,0.0,0.0,0.0,0.0,0.0,0.0,0.0,0.0,0.0,0.0,0.0,-1.479,0.0,0.0,0.0,0.0,0.0,0.0,0.0,0.0,0.0,0.0,-1.4301,-1.4276,-1.4321,-1.4308,0.0,0.0,0.0,0.0,-1.4707,-1.499,-1.481,-1.463,-1.463,-1.445,-1.4359,-1.4314,0.0,0.0,-1.3338,-1.3474,-1.3371,-1.2689,-1.2484,-1.1852,-0.9826,-0.9227,-0.8955,-0.8736,-0.848,-0.826,-0.8216,-0.804,-0.7915,-1.5832,0.0,0.0,0.0,0.0,-1.5832,-1.5832,-1.5832,-1.5832,-1.5832,-1.5832,-1.5832,0.0,0.0,0.0,0.0,0.0,0.0,-1.5832,-1.5832,-1.5832,-1.5832,-1.5832,-1.5832,-1.5832,-1.5832,-1.5832,-1.5832,-1.5832,-1.5832,-1.5832,-1.5832,0.0,0.0,0.0,0.0,-1.5832,-1.5771,-1.5752,-1.5698,-1.5651,-1.5618,-1.5578,-1.5578,-1.5378,-1.5271,-1.5271,-1.5129,-1.5008,-1.5008,-1.5008,0.0,0.0,0.0,0.0,0.0,0.0,0.0,0.0,0.0,0.0,0.0,0.0,0.0,0.0,0.0,0.0,0.0,0.0,0.0,-1.483,-1.491,-1.4963,0.0,0.0,0.0,0.0,0.0,0.0,0.0,0.0,0.0,-1.5351,-1.4884,-1.4501,0.0,0.0,-1.4895,-1.5153,-1.5179,-1.5259,-1.5551,-1.5485,0.0,-1.5251,-1.5344,-1.5297,-1.5204,-1.4942,-1.4707,-1.4582,-1.4313,-1.396,-1.3553,-1.3371,-1.2961,-1.2068,-1.1212,-1.0567,-1.0168,-0.9757,-0.9446,-0.9392,-0.9117,-0.8834,-1.5832,-1.5832,-1.5832,-1.5832,-1.5832,-1.5832,-1.5832,-1.5832,-1.5832,-1.5832,-1.5832,-1.5832,-1.5899,-1.6005,-1.6077,0.0,0.0,0.0,-1.6179,-1.6179,-1.6179,-1.6179,-1.6179,-1.6166,-1.6179,-1.6179,-1.6166,-1.6179,-1.6166,-1.6059,-1.6005,-1.6005,0.0,0.0,-1.5832,-1.5832,-1.5832,-1.5832,-1.5832,-1.5832,-1.5832,-1.5832,-1.5832,-1.5818,-1.5611,-1.5565,-1.5565,-1.5404,-1.5297,-1.5311,-1.5311,-1.5297,0.0,0.0,0.0,0.0,0.0,0.0,0.0,0.0,0.0,0.0,0.0,-1.5008,-1.5008,0.0,0.0,0.0,-1.507,-1.5137,-1.5137,-1.5244,0.0,0.0,0.0,0.0,0.0,0.0,0.0,-1.5877,-1.5891,-1.5912,-1.5947,-1.5524,-1.5206,-1.5068,-1.5219,-1.5378,-1.5538,0.0,-1.5631,-1.5758,-1.5832,-1.5784,-1.5642,-1.5724,-1.5784,-1.5642,-1.5497,-1.5331,-1.5238,-1.4988,-1.47,-1.4423,-1.4297,-1.4065,-1.3694,-1.3077,-1.2346,-1.1446,-1.0852,-1.0528,-1.0482,-1.0111,-0.9778,-1.5851,-1.5851,-1.5899,-1.5872,-1.5784,-1.5811,-1.5824,-1.5824,-1.5838,-1.5851,-1.5851,-1.5851,-1.6046,-1.6375,-1.6593,0.0,-1.67,-1.67,-1.67,-1.67,-1.67,-1.67,-1.67,-1.67,-1.67,-1.67,-1.67,-1.67,-1.6687,-1.6433,-1.6299,-1.6299,-1.6032,-1.5824,-1.5784,-1.5832,-1.5832,-1.5832,-1.5832,-1.5832,-1.5832,-1.5832,-1.5832,-1.5832,-1.5832,-1.5832,-1.5832,-1.5832,-1.5832,-1.5832,-1.5832,-1.5832,-1.5832,0.0,0.0,0.0,0.0,0.0,0.0,0.0,0.0,0.0,0.0,0.0,0.0,0.0,0.0,0.0,-1.5271,0.0,-1.5477,-1.5671,0.0,0.0,0.0,-1.6319,-1.6636,-1.6636,-1.6636,-1.6636,0.0,0.0,-1.6272,-1.6224,-1.6163,-1.5879,-1.5832,-1.5832,-1.5832,-1.5866,-1.5879,-1.5913,-1.5879,-1.5832,-1.5832,-1.5832,-1.5784,-1.5784,-1.5832,-1.5724,-1.552,-1.552,-1.5391,-1.5188,-1.5166,-1.5022,-1.4783,-1.4651,-1.4242,-1.2662,-1.1939,-1.1569,-1.1533,-1.1218,-1.0893,-1.65,-1.65,-1.65,-1.6246,-1.5845,-1.6072,-1.6166,-1.6192,-1.6393,-1.65,-1.65,-1.65,-1.654,-1.6607,-1.6673,-1.67,-1.67,-1.67,-1.67,-1.67,-1.67,-1.67,-1.67,-1.67,-1.67,-1.67,-1.67,-1.67,-1.67,-1.6633,-1.6607,-1.6607,-1.6526,-1.6273,-1.5845,-1.5832,-1.5832,-1.5832,-1.5832,-1.5832,-1.5832,-1.5832,-1.5832,-1.5832,-1.5832,-1.5832,-1.5832,-1.6021,-1.613,-1.613,-1.613,-1.613,-1.6082,-1.5927,0.0,0.0,0.0,0.0,0.0,0.0,0.0,0.0,0.0,-1.5618,-1.5618,0.0,-1.5631,0.0,-1.5685,-1.5772,-1.5974,-1.6075,0.0,0.0,-1.6494,-1.6588,-1.6885,-1.6885,-1.6885,-1.6885,-1.6932,-1.6791,-1.6541,-1.6494,-1.6494,-1.64,-1.6258,-1.6082,-1.6116,-1.6258,-1.6447,-1.64,-1.6211,-1.613,-1.6082,-1.5927,-1.5832,-1.5832,-1.5832,-1.5784,-1.5737,-1.5737,-1.5689,-1.5642,-1.5499,-1.5404,-1.5296,-1.5178,-1.4902,-1.4432,-1.3636,-1.2958,-1.273,-1.2491,-1.2299,-1.67,-1.67,-1.67,-1.6513,-1.6233,-1.6393,-1.6509,-1.6473,-1.6633,-1.67,-1.6714,-1.6847,-1.6951,-1.6914,-1.7034,-1.7101,-1.7101,-1.7101,-1.7101,-1.7101,-1.7088,-1.7088,-1.7101,-1.7101,-1.7101,-1.7101,-1.7101,-1.7088,-1.7088,-1.6967,-1.6951,-1.6901,-1.6767,-1.654,-1.6233,-1.6219,-1.6219,-1.6219,-1.6219,-1.6171,-1.6219,-1.6171,-1.6166,-1.6032,-1.6032,-1.6013,-1.5987,-1.613,-1.6272,-1.6353,-1.64,-1.6319,-1.6224,-1.6204,-1.6061,0.0,0.0,0.0,0.0,0.0,0.0,0.0,0.0,0.0,0.0,0.0,-1.6021,-1.6163,-1.6163,-1.6211,-1.6366,-1.6494,-1.6636,-1.6904,-1.7012,-1.72,-1.7448,-1.7481,-1.7495,-1.7495,-1.7495,-1.7387,-1.7153,-1.7106,-1.7059,-1.6904,-1.6871,-1.673,-1.6447,-1.6494,-1.6588,-1.6588,-1.6494,-1.6305,-1.6224,-1.5974,-1.5832,-1.5832,-1.5832,-1.5832,-1.5832,-1.5832,-1.5832,-1.5784,-1.5689,-1.5642,-1.5642,-1.5547,-1.5404,-1.5213,-1.4819,-1.4292,-1.3919,-1.363,-1.3437,-1.6901,-1.6941,-1.6941,-1.6941,-1.6927,-1.6941,-1.6874,-1.6767,-1.6807,-1.682,-1.6834,-1.7088,-1.7273,-1.734,-1.7528,-1.7662,-1.7702,-1.7702,-1.7702,-1.7702,-1.7702,-1.7755,-1.7702,-1.7702,-1.7702,-1.7702,-1.7755,-1.7675,-1.7635,-1.7382,-1.73,-1.7246,-1.6954,-1.682,-1.682,-1.682,-1.678,-1.67,-1.67,-1.67,-1.67,-1.67,-1.658,-1.6353,-1.6375,-1.6365,-1.6395,-1.6477,-1.6667,-1.6938,-1.6938,-1.6843,-1.6619,-1.6787,-1.6704,0.0,-1.6435,0.0,0.0,0.0,0.0,0.0,0.0,0.0,0.0,-1.6319,-1.6461,-1.6683,-1.6683,-1.673,-1.673,-1.6979,-1.72,-1.7434,-1.7667,-1.79,-1.8226,-1.8226,-1.8226,-1.8226,-1.8226,-1.8133,-1.7854,-1.7822,-1.7761,-1.7606,-1.7714,-1.765,-1.7116,-1.6947,-1.6871,-1.6777,-1.673,-1.6636,-1.6305,-1.6021,-1.5879,-1.5879,-1.5832,-1.5832,-1.5832,-1.5832,-1.5832,-1.5832,-1.5784,-1.5784,-1.5832,-1.5784,-1.5737,-1.5594,-1.5499,-1.5309,-1.4831,-1.4496,-1.434,-1.7929,-1.8156,-1.8156,-1.8156,-1.8156,-1.8156,-1.7742,-1.7139,-1.7315,-1.7408,-1.7422,-1.7475,-1.7649,-1.7822,-1.7876,-1.809,-1.8317,-1.8317,-1.8317,-1.8317,-1.8317,-1.8317,-1.8317,-1.8317,-1.8317,-1.8317,-1.8317,-1.8196,-1.7902,-1.7903,-1.7742,-1.7554,-1.7435,-1.7422,-1.7422,0.0,0.0,0.0,-1.67,-1.67,-1.67,-1.67,-1.6673,-1.662,-1.6833,0.0,-1.7295,-1.792,-1.8409,-1.8701,-1.8701,0.0,0.0,0.0,0.0,0.0,0.0,0.0,0.0,0.0,0.0,0.0,-1.7816,-1.7508,-1.6914,-1.7012,-1.7106,-1.7138,-1.7138,-1.7232,-1.7481,-1.7527,-1.7761,-1.821,-1.8303,-1.8504,-1.892,-1.9012,-1.9012,-1.9012,-1.9012,-1.8874,-1.8674,-1.8596,-1.8612,-1.8582,-1.855,-1.866,-1.8879,-1.8254,-1.7822,-1.7807,-1.7478,-1.7026,-1.6588,-1.6333,-1.6218,-1.6082,-1.5927,-1.5845,-1.5858,-1.5858,-1.5845,-1.5858,-1.5832,-1.5845,-1.5845,-1.5832,-1.5824,-1.5737,-1.575,-1.5594,-1.5131,-1.4987,-1.4939,-1.8357,-1.849,-1.849,-1.849,0.0,-1.849,-1.8237,-1.7876,-1.7969,-1.8036,-1.8023,-1.8036,-1.8171,-1.8427,-1.8427,-1.8618,-1.8933,-1.8919,-1.8919,-1.8919,-1.8919,-1.8919,-1.8919,-1.8919,-1.8864,-1.8698,-1.8698,-1.8576,-1.8277,-1.8263,-1.8183,-1.8036,-1.8036,-1.8023,-1.8023,-1.7889,-1.7595,-1.7141,-1.7141,-1.7141,-1.7141,-1.7141,-1.7177,-1.7144,-1.7296,0.0,0.0,0.0,0.0,0.0,0.0,0.0,0.0,-1.9281,0.0,-1.8814,-1.89,-1.9014,-1.9011,-1.8981,-1.9051,-1.9221,-1.9478,-1.9082,-1.7791,-1.79,-1.804,-1.804,-1.8025,-1.8087,-1.8226,-1.8365,-1.8659,-1.9236,-1.9455,-1.969,-2.0198,-2.0342,-2.0326,-2.0326,-2.0326,-2.0279,-2.0154,-2.0154,-2.0154,-2.0154,-2.0154,-2.0204,-2.0289,-1.9446,-1.8754,-1.8782,-1.8479,-1.8049,-1.7568,-1.723,-1.7036,-1.6905,-1.6662,-1.6468,-1.6419,-1.6308,-1.6259,-1.6273,-1.6259,-1.6259,-1.6259,-1.6259,-1.6259,-1.6211,-1.6211,-1.6109,-1.5748,-1.5556,-1.5404,-1.8597,-1.8651,-1.8637,-1.8637,-1.8651,-1.8693,-1.8762,-1.8805,0.0,0.0,0.0,-1.8657,-1.8794,-1.9043,-1.9043,-1.9306,-1.9625,-1.9625,-1.968,-1.9736,-1.9736,-1.968,-1.9625,-1.9625,-1.9459,-1.9125,-1.9125,-1.9001,-1.8724,-1.8737,-1.8642,-1.8546,-1.8601,-1.8546,-1.8477,-1.825,-1.7996,-1.7756,-1.7635,-1.7582,-1.7582,-1.7582,-1.7632,-1.7661,-1.7699,-1.7983,-1.8531,-1.893,-1.941,-1.9952,-2.0198,-2.0329,-2.0198,-2.0355,-2.0237,-1.9836,-2.0006,-2.0087,-2.0116,-2.0133,-2.0248,-2.0638,-2.1103,-2.0657,-1.9065,-1.9142,-1.9297,-1.9297,-1.9297,-1.9297,-1.9281,-1.9467,-1.983,-2.0426,-2.0631,-2.0985,-2.1514,-2.1613,-2.1579,-2.1709,-2.1674,-2.1709,-2.1722,-2.1722,-2.1757,-2.1739,-2.1687,-2.1791,-2.1617,-2.0612,-1.9702,-1.9701,-1.9425,-1.9097,-1.8636,-1.8262,-1.8044,-1.7718,-1.7435,-1.7263,-1.7164,-1.6964,-1.6764,-1.676,-1.675,-1.6687,-1.67,-1.666,-1.67,-1.67,-1.67,-1.6633,-1.6406,-1.6152,-1.5883,-1.9011,-1.9252,-1.931,-1.9252,-1.9296,-1.9527,-1.9814,-1.9988,-1.9194,-1.8864,-1.8864,-1.914,-1.9445,-1.9682,-1.9682,-1.9991,-2.053,-2.053,-2.0644,-2.0929,-2.0929,-2.0815,-2.053,-2.053,-2.0359,-2.0144,-2.0144,-1.9947,-1.9654,-1.9626,-1.9333,-1.8891,-1.8864,-1.8767,-1.8546,-1.845,-1.841,-1.8357,-1.7849,-1.7582,-1.7582,-1.7582,-1.7726,-1.7962,-1.8157,-1.8651,-1.9486,-2.0205,-2.0969,-2.1728,-2.1963,-2.2214,-2.2414,-2.2265,-2.2114,-2.2013,-2.2064,-2.2114,-2.2113,-2.2113,-2.2077,-2.2132,-2.2284,-2.202,-2.1173,-2.1077,-2.1125,-2.1108,-2.1091,-2.1125,-2.1125,-2.1139,-2.1298,-2.1622,-2.1687,-2.1847,-2.2173,-2.2173,-2.2286,-2.2476,-2.247,-2.2582,-2.276,-2.2808,-2.2826,-2.2771,-2.2833,-2.2851,-2.2751,-2.1786,-2.086,-2.0523,-2.0103,-1.9714,-1.945,-1.8947,-1.8647,-1.8256,-1.8052,-1.7882,-1.7646,-1.7396,-1.7146,-1.7041,-1.6931,-1.6804,-1.674,-1.67,-1.6754,-1.6767,-1.678,-1.6727,-1.666,-1.658,-1.6357,-1.9239,-1.9417,-1.9533,-1.9649,-1.9649,-1.9924,-2.027,-2.0472,-2.026,-2.0019,-1.9893,-2.0005,-2.0372,-2.0742,-2.0799,-2.1099,-2.1759,-2.1702,-2.1873,-2.2157,-2.2044,-2.1873,-2.1759,-2.1531,-2.1303,-2.1031,-2.1017,-2.0773,-2.0345,-2.0274,-2.009,-1.9681,-1.9681,-1.9568,-1.9455,-1.9304,-1.911,-1.8998,-1.84,-1.8076,-1.8076,-1.8225,-1.8441,-1.8779,-1.9209,-1.9852,-2.0688,-2.1375,-2.211,-2.2927,-2.3255,-2.3565,-2.3976,-2.3925,-2.3925,-2.4061,-2.4061,-2.4061,-2.4061,-2.4215,-2.4296,-2.4235,-2.4454,-2.4442,-2.4076,-2.3003,-2.2328,-2.2328,-2.2328,-2.2328,-2.2328,-2.2328,-2.2494,-2.2996,-2.3015,-2.3201,-2.3595,-2.368,-2.3729,-2.3825,-2.3844,-2.3873,-2.4037,-2.4018,-2.4018,-2.4018,-2.4018,-2.4063,-2.4103,-2.3468,-2.2708,-2.2004,-2.156,-2.118,-2.0716,-2.0282,-1.9845,-1.9542,-1.9173,-1.8818,-1.8578,-1.8207,-1.7951,-1.7657,-1.7438,-1.7336,-1.7219,-1.7181,-1.7181,-1.7181,-1.7181,-1.7141,-1.7045,-1.6834,-1.6607,-1.9475,-1.9533,-1.9822,-1.9982,-2.0169,-2.0443,-2.0788,-2.1131,-2.1417,-2.1474,-2.1402,-2.1231,-2.1417,-2.1873,-2.193,-2.223,-2.274,-2.2853,-2.3006,-2.3191,-2.3078,-2.2965,-2.2796,-2.2513,-2.223,-2.193,-2.1888,-2.1588,-2.1174,-2.1074,-2.0845,-2.05,-2.0443,-2.0385,-2.027,-2.0032,-1.9807,-1.9566,-1.9135,-1.8791,-1.8601,-1.8864,-1.9181,-1.9635,-2.0073,-2.0728,-2.1634,-2.2226,-2.2921,-2.3718,-2.414,-2.4613,-2.5102,-2.5258,-2.5344,-2.5552,-2.5585,-2.5585,-2.5585,-2.5759,-2.5914,-2.5914,-2.6121,-2.6275,-2.6161,-2.4869,-2.3858,-2.3781,-2.3788,-2.377,-2.3807,-2.377,-2.394,-2.4433,-2.447,-2.4688,-2.51,-2.5225,-2.5206,-2.5256,-2.5275,-2.5256,-2.5374,-2.5374,-2.5374,-2.5355,-2.5355,-2.5374,-2.5275,-2.5107,-2.4609,-2.3802,-2.311,-2.2484,-2.203,-2.1505,-2.1081,-2.0822,-2.0328,-1.9886,-1.9576,-1.919,-1.8826,-1.838,-1.8146,-1.7962,-1.7779,-1.7674,-1.766,-1.7568,-1.7515,-1.7527,-1.7326,-1.7101,-1.6847,-1.9751,-1.9809,-2.0155,-2.0572,-2.1089,-2.1375,-2.1831,-2.2415,-2.2456,-2.295,-2.3472,-2.278,-2.2642,-2.2837,-2.2925,-2.3167,-2.3505,-2.368,-2.3809,-2.3898,-2.4089,-2.3921,-2.3505,-2.3432,-2.3191,-2.2853,-2.2642,-2.2529,-2.2343,-2.2059,-2.1717,-2.1146,-2.0845,-2.0544,-2.0371,-2.03,-2.0286,-2.0228,-2.0143,-1.9694,-1.896,-1.9195,-1.9635,-2.0197,-2.0321,-2.0837,-2.2005,-2.2548,-2.3241,-2.4035,-2.4859,-2.5433,-2.5763,-2.5933,-2.6139,-2.6139,-2.6139,-2.6121,-2.6139,-2.6172,-2.621,-2.6172,-2.6487,-2.6641,-2.6641,-2.6621,-2.6403,-2.599,-2.5856,-2.5761,-2.5875,-2.5818,-2.5793,-2.5863,-2.592,-2.6021,-2.6034,-2.6058,-2.6161,-2.6417,-2.6321,-2.6519,-2.6594,-2.6625,-2.6715,-2.6606,-2.6517,-2.6485,-2.6333,-2.6282,-2.6149,-2.5544,-2.4427,-2.3326,-2.2906,-2.2333,-2.2028,-2.1689,-2.1197,-2.085,-2.0519,-1.9933,-1.9234,-1.9342,-1.8769,-1.8429,-1.819,-1.7964,-1.7899,-1.7808,-1.7728,-1.7582,-1.7542,-1.7475,-1.7288,-2.0213,-2.0385,-2.0687,-2.1261,-2.2017,-2.2372,-2.2965,-2.3739,-2.3991,-2.4589,-2.5275,-2.5007,-2.4718,-2.4478,-2.4678,-2.4949,-2.5235,-2.5332,-2.5503,-2.5634,-2.5651,-2.5463,-2.5235,-2.5064,-2.4678,-2.4194,-2.4064,-2.3683,-2.311,-2.2626,-2.2286,-2.2002,-2.1702,-2.1474,-2.136,-2.136,-2.1246,-2.1074,-2.1246,-2.1057,-2.0556,-2.0471,-2.0583,-2.0879,-2.1536,-2.2245,-2.3058,-2.3733,-2.4479,-2.5469,-2.5952,-2.6379,-2.7036,-2.7122,-2.7281,-2.7439,-2.7439,-2.7439,-2.7439,-2.7458,-2.7439,-2.7439,-2.7563,-2.7616,-2.7616,-2.7721,-2.7668,-2.7453,-2.6995,-2.6705,-2.6673,-2.6654,-2.6686,-2.6654,-2.6634,-2.6654,-2.6705,-2.6654,-2.6756,-2.6807,-2.6858,-2.6858,-2.6961,-2.7012,-2.7012,-2.7012,-2.7012,-2.7019,-2.6878,-2.6858,-2.6705,-2.6442,-2.5697,-2.509,-2.4473,-2.3927,-2.3514,-2.3151,-2.2682,-2.2212,-2.1865,-2.137,-2.0856,-2.0507,-1.9891,-1.9424,-1.9226,-1.8766,-1.8496,-1.8279,-1.7983,-1.7809,-1.7849,-1.7716,-1.7475,-2.0845,-2.1146,-2.1678,-2.2471,-2.3324,-2.3604,-2.4236,-2.5016,-2.5442,-2.6024,-2.6734,-2.7013,-2.6907,-2.6522,-2.6434,-2.6486,-2.6792,-2.6907,-2.6964,-2.7136,-2.7022,-2.6831,-2.6774,-2.6486,-2.6117,-2.5663,-2.5457,-2.4922,-2.4048,-2.3537,-2.3165,-2.2979,-2.2673,-2.24,-2.2343,-2.2343,-2.223,-2.1987,-2.223,-2.223,-2.1987,-2.193,-2.1888,-2.1831,-2.2667,-2.3496,-2.4111,-2.4778,-2.5624,-2.6554,-2.6826,-2.726,-2.7853,-2.796,-2.8067,-2.8247,-2.8301,-2.8301,-2.8301,-2.8301,-2.8301,-2.8301,-2.8301,-2.8301,-2.8301,-2.8301,-2.8301,-2.8242,-2.7715,-2.7402,-2.7363,-2.7363,-2.7363,-2.7363,-2.7363,-2.7363,-2.7383,-2.7363,-2.7331,-2.7363,-2.7389,-2.7363,-2.7363,-2.7402,-2.7422,-2.7422,-2.7402,-2.7363,-2.7363,-2.7402,-2.7299,-2.7104,-2.7052,-2.6626,-2.5852,-2.5185,-2.4841,-2.4526,-2.3983,-2.3491,-2.3241,-2.2708,-2.2119,-2.1431,-2.1009,-2.0441,-1.9903,-1.9455,-1.9099,-1.8878,-1.8536,-1.817,-1.817,-1.7969,-1.7876,-2.1759,-2.2219,-2.3356,-2.4252,-2.4986,-2.5294,-2.5758,-2.6353,-2.6677,-2.7194,-2.7818,-2.8418,-2.8913,-2.8953,-2.7909,-2.7498,-2.7783,-2.8048,-2.8066,-2.7895,-2.8086,-2.8068,-2.7765,-2.748,-2.7308,-2.7176,-2.6641,-2.603,-2.5384,-2.504,-2.4547,-2.3999,-2.3683,-2.3336,-2.3126,-2.3085,-2.2981,-2.3085,-2.3085,-2.2997,-2.3054,-2.3528,-2.3488,-2.3126,-2.3552,-2.4167,-2.4778,-2.5569,-2.6227,-2.6609,-2.7368,-2.7853,-2.796,-2.814,-2.832,-2.834,-2.834,-2.832,-2.8359,-2.8379,-2.8359,-2.834,-2.8398,-2.834,-2.8418,-2.8418,-2.8418,-2.832,-2.832,-2.8242,-2.8223,-2.8125,-2.8125,-2.8144,-2.8184,-2.8164,-2.8184,-2.8105,-2.8223,-2.8184,-2.8125,-2.8086,-2.8164,-2.8242,-2.8144,-2.8144,-2.8184,-2.8144,-2.8105,-2.8144,-2.8144,-2.8072,-2.8033,-2.7738,-2.6484,-2.6102,-2.5752,-2.5475,-2.5092,-2.4562,-2.4017,-2.3453,-2.2955,-2.2436,-2.2046,-2.1464,-2.0609,-2.0062,-1.9734,-1.9389,-1.8877,-1.8588,-1.8574,-1.8464,-1.8357,-2.3294,-2.4079,-2.4903,-2.5558,-2.5983,-2.6516,-2.7146,-2.7705,-2.829,-2.875,-2.9137,-2.9404,-2.9695,-2.9967,-2.9524,-2.9235,-2.9177,-2.9293,-2.9235,-2.9177,-2.9235,-2.9235,-2.9177,-2.906,-2.8737,-2.836,-2.79,-2.7254,-2.6446,-2.6059,-2.5778,-2.553,-2.5256,-2.5,-2.4942,-2.4942,-2.4942,-2.4926,-2.4942,-2.4942,-2.4926,-2.5269,-2.54,-2.5138,-2.4867,-2.5,-2.5624,-2.6118,-2.6699,-2.7422,-2.7745,-2.796,-2.816,-2.8501,-2.8828,-2.9082,-2.9121,-2.9101,-2.9121,-2.9101,-2.9121,-2.9176,-2.9101,-2.9082,-2.9176,-2.9121,-2.9101,-2.9156,-2.9101,-2.9101,-2.9004,-2.8633,-2.8301,-2.8301,-2.8301,-2.832,-2.8301,-2.8301,-2.8301,-2.8301,-2.8301,-2.8301,-2.832,-2.8301,-2.8301,-2.8301,-2.8301,-2.8301,-2.8301,-2.8301,-2.8301,-2.8301,-2.8281,-2.815,-2.7738,-2.7357,-2.704,-2.6667,-2.6312,-2.5972,-2.5541,-2.4841,-2.4261,-2.3846,-2.3338,-2.2663,-2.189,-2.1015,-2.0623,-2.0005,-1.947,-1.9164,-1.9108,-1.8886,-1.8653,-2.5003,-2.5771,-2.6388,-2.6865,-2.7315,-2.784,-2.8436,-2.8941,-2.9496,-2.9863,-3.0039,-3.0157,-3.0333,-3.0509,-3.0587,-3.045,-3.0216,-3.0216,-3.0216,-3.0235,-3.0216,-3.0235,-3.0235,-3.0098,-2.9829,-2.9427,-2.9021,-2.8465,-2.7763,-2.7271,-2.6969,-2.6853,-2.6516,-2.6331,-2.6273,-2.6331,-2.6273,-2.6331,-2.6388,-2.6429,-2.6504,-2.6831,-2.7004,-2.6932,-2.6542,-2.6385,-2.6663,-2.7105,-2.7655,-2.8202,-2.8365,-2.8529,-2.875,-2.8984,-2.9258,-2.9531,-2.957,-2.957,-2.957,-2.957,-2.9626,-2.9626,-2.957,-2.957,-2.957,-2.957,-2.957,-2.957,-2.957,-2.957,-2.9473,-2.9043,-2.8711,-2.8711,-2.8691,-2.8711,-2.8711,-2.873,-2.873,-2.873,-2.8613,-2.8535,-2.8476,-2.8359,-2.832,-2.8301,-2.8301,-2.8301,-2.8301,-2.8301,-2.8301,-2.8301,-2.8301,-2.8301,-2.8111,-2.7912,-2.7718,-2.7416,-2.7163,-2.6987,-2.6718,-2.6045,-2.5551,-2.5165,-2.4612,-2.3888,-2.3119,-2.2173,-2.1417,-2.0716,-2.0201,-1.9849,-1.9566,-1.9215,-1.9034,-2.6656,-2.7088,-2.7669,-2.8278,-2.8847,-2.9179,-2.9589,-2.9884,-3.0197,-3.0392,-3.045,-3.0704,-3.084,-3.0898,-3.084,-3.0898,-3.084,-3.0782,-3.084,-3.084,-3.084,-3.084,-3.084,-3.0528,-3.0372,-3.0275,-3.002,-2.9707,-2.9242,-2.8634,-2.8235,-2.7831,-2.7405,-2.7182,-2.696,-2.7089,-2.7053,-2.7129,-2.7377,-2.7513,-2.7498,-2.8028,-2.8274,-2.8294,-2.8465,-2.8333,-2.7879,-2.8578,-2.8951,-2.9045,-2.9325,-2.9551,-2.9512,-2.957,-2.959,-2.9724,-2.9704,-2.9629,-2.9704,-2.9687,-2.9726,-2.9726,-2.9648,-2.9783,-2.9766,-2.9726,-2.9726,-2.9746,-2.9707,-2.9668,-2.9687,-2.9685,-2.9531,-2.9587,-2.9414,-2.947,-2.9528,-2.9531,-2.9551,-2.9434,-2.9141,-2.8945,-2.8848,-2.8672,-2.8496,-2.8476,-2.8457,-2.8476,-2.8516,-2.8516,-2.8379,-2.8379,-2.8516,-2.8633,-2.8476,-2.832,-2.8179,-2.8018,-2.778,-2.7638,-2.7314,-2.6772,-2.6263,-2.5881,-2.511,-2.439,-2.3608,-2.2724,-2.2116,-2.146,-2.1001,-2.053,-2.0173,-1.9832,-1.9557,-2.8348,-2.8678,-2.9127,-2.9378,-2.9627,-2.9981,-3.0138,-3.0274,-3.0587,-3.0762,-3.0762,-3.084,-3.0898,-3.0898,-3.0898,-3.0898,-3.0898,-3.0898,-3.0898,-3.0898,-3.0898,-3.0898,-3.0898,-3.0762,-3.0645,-3.0392,-3.0333,-3.0098,-2.9766,-2.9536,-2.9381,-2.9226,-2.9056,-2.896,-2.8864,-2.896,-2.896,-2.9018,-2.9058,-2.9117,-2.9117,-2.9291,-2.9408,-2.9408,-2.9698,-2.9756,-2.9621,-2.9279,-2.9254,-2.9422,-2.9514,-2.9707,-2.9941,-3.0,-3.0156,-3.043,-3.0488,-3.0469,-3.0469,-3.0449,-3.0449,-3.0469,-3.0469,-3.0469,-3.0488,-3.0449,-3.0449,-3.0469,-3.0488,-3.0488,-3.0488,-3.0488,-3.0215,-2.9685,-2.957,-2.9629,-2.9648,-2.9629,-2.957,-2.957,-2.9453,-2.9375,-2.9355,-2.918,-2.9101,-2.9101,-2.9121,-2.9121,-2.9141,-2.9082,-2.918,-2.9235,-2.9235,-2.9062,-2.8965,-2.8906,-2.8871,-2.8645,-2.8435,-2.8134,-2.7825,-2.7517,-2.7064,-2.6445,-2.5661,-2.4944,-2.4111,-2.344,-2.2837,-2.2173,-2.1631,-2.1174,-2.0788,-2.0399,-1.9996,-2.9383,-2.9608,-2.9962,-3.0098,-3.0098,-3.047,-3.0567,-3.0626,-3.082,-3.0898,-3.0898,-3.0898,-3.0898,-3.0898,-3.0898,-3.0898,-3.0898,-3.0898,-3.0898,-3.0898,-3.0898,-3.0898,-3.0898,-3.0898,-3.082,-3.0626,-3.0567,-3.045,-3.0294,-3.0157,-3.0098,-3.0098,-2.9981,-2.9844,-2.9922,-2.9922,-2.9922,-2.9922,-2.9962,-3.0098,-3.0098,-3.0216,-3.0294,-3.0274,-3.045,-3.0567,-3.0529,-3.0045,-2.9831,-3.0059,-3.0059,-3.0195,-3.043,-3.0469,-3.0586,-3.0801,-3.0898,-3.0879,-3.0898,-3.084,-3.0898,-3.0898,-3.0898,-3.0879,-3.0879,-3.0898,-3.0898,-3.0898,-3.0879,-3.0898,-3.0879,-3.0879,-3.0625,-3.0156,-3.0098,-3.0059,-3.0059,-3.0059,-3.0078,-3.0078,-2.9978,-2.9824,-2.9805,-2.9629,-2.959,-2.957,-2.957,-2.957,-2.957,-2.9551,-2.9646,-2.9646,-2.9528,-2.9434,-2.9512,-2.9531,-2.9531,-2.928,-2.9011,-2.8703,-2.8365,-2.8055,-2.7689,-2.6955,-2.6172,-2.5734,-2.4944,-2.4334,-2.3792,-2.3062,-2.2286,-2.1831,-2.1375,-2.0673,-2.0213,-2.9922,-2.9981,-3.0274,-3.045,-3.045,-3.0762,-3.0898,-3.0898,-3.0898,-3.0898,-3.0898,-3.0898,-3.0898,-3.0898,-3.0898,-3.0898,-3.0898,-3.0898,-3.0898,-3.0898,-3.0898,-3.0898,-3.0898,-3.0898,-3.0898,-3.082,-3.0898,-3.0898,-3.0762,-3.0509,-3.045,-3.0392,-3.0157,-2.9981,-3.0039,-2.9981,-3.0039,-3.0098,-3.0274,-3.0392,-3.045,-3.0704,-3.084,-3.084,-3.082,-3.0898,-3.0801,-3.0742,-3.082,-3.0859,-3.0781,-3.0781,-3.0859,-3.0898,-3.0859,-3.0898,-3.0898,-3.0898,-3.0898,-3.0898,-3.0898,-3.0898,-3.0898,-3.0898,-3.0898,-3.0898,-3.0898,-3.0898,-3.0898,-3.0898,-3.0898,-3.0898,-3.084,-3.0879,-3.0742,-3.0762,-3.0859,-3.082,-3.0742,-3.0703,-3.0508,-3.0234,-3.0234,-2.9941,-2.9805,-2.9766,-2.9785,-2.9824,-2.988,-2.9939,-2.9763,-2.9802,-2.9902,-2.9941,-3.0059,-3.0059,-3.0059,-3.0019,-2.969,-2.9397,-2.8972,-2.86,-2.8342,-2.7636,-2.6993,-2.6445,-2.5915,-2.536,-2.4641,-2.3792,-2.3119,-2.2456,-2.1831,-2.1131,-2.05,-3.0645,-3.0645,-3.0704,-3.0762,-3.0762,-3.0898,-3.0898,-3.0898,-3.0898,-3.0898,-3.0898,-3.0898,-3.0898,-3.0898,-3.0898,-3.0898,-3.0898,-3.0898,-3.0898,-3.0898,-3.0898,-3.0898,-3.0898,-3.0898,-3.0898,-3.0898,-3.0898,-3.0898,-3.0879,-3.0762,-3.0762,-3.0762,-3.0645,-3.0587,-3.0645,-3.0587,-3.0645,-3.0645,-3.0704,-3.0762,-3.0762,-3.082,-3.0898,-3.0898,-3.0898,-3.0898,-3.0898,-3.0898,-3.0898,-3.0898,-3.0898,-3.0898,-3.0898,-3.0898,-3.0898,-3.0898,-3.0898,-3.0898,-3.0898,-3.0898,-3.0898,-3.0898,-3.0898,-3.0898,-3.0898,-3.0898,-3.0898,-3.0898,-3.0898,-3.0898,-3.0898,-3.0898,-3.0898,-3.0898,-3.0898,-3.0898,-3.0898,-3.0898,-3.0898,-3.0879,-3.0762,-3.0684,-3.0625,-3.0566,-3.0469,-3.0469,-3.0449,-3.0449,-3.0371,-3.0391,-3.037,-3.0488,-3.0605,-3.0586,-3.0586,-3.0586,-3.0605,-3.0644,-3.043,-3.0156,-2.9614,-2.9097,-2.893,-2.8555,-2.8087,-2.7605,-2.7086,-2.6549,-2.559,-2.4687,-2.3868,-2.3238,-2.2446,-2.1732,-2.0917,-3.0898,-3.0898,-3.0898,-3.0898,-3.0898,-3.0898,-3.0898,-3.0898,-3.0898,-3.0898,-3.0898,-3.0898,-3.0898,-3.0898,-3.0898,-3.0898,-3.0898,-3.0898,-3.0898,-3.0898,-3.0898,-3.0898,-3.0898,-3.0898,-3.0898,-3.0898,-3.0898,-3.0898,-3.0898,-3.0898,-3.0898,-3.0898,-3.0898,-3.0898,-3.0898,-3.0898,-3.0898,-3.0898,-3.0898,-3.0898,-3.0898,-3.0898,-3.0898,-3.0898,-3.0898,-3.0898,-3.0898,-3.0898,-3.0898,-3.0898,-3.0898,-3.0898,-3.0898,-3.0898,-3.0898,-3.0898,-3.0898,-3.0898,-3.0898,-3.0898,-3.0898,-3.0898,-3.0898,-3.0898,-3.0898,-3.0898,-3.0898,-3.0898,-3.0898,-3.0898,-3.0898,-3.0898,-3.0898,-3.0898,-3.0898,-3.0898,-3.0898,-3.0898,-3.0898,-3.0898,-3.0898,-3.0898,-3.0898,-3.0898,-3.0898,-3.0879,-3.0801,-3.082,-3.082,-3.0898,-3.0898,-3.0898,-3.0898,-3.0801,-3.0762,-3.0762,-3.0742,-3.082,-3.0781,-3.0566,-3.0158,-2.9597,-2.9424,-2.9273,-2.9029,-2.8747,-2.8108,-2.7529,-2.6742,-2.5826,-2.4895,-2.3983,-2.3178,-2.233,-2.1537,-3.0898,-3.0898,-3.0898,-3.0898,-3.0898,-3.0898,-3.0898,-3.0898,-3.0898,-3.0898,-3.0898,-3.0898,-3.0898,-3.0898,-3.0898,-3.0898,-3.0898,-3.0898,-3.0898,-3.0898,-3.0898,-3.0898,-3.0898,-3.0898,-3.0898,-3.0898,-3.0898,-3.0898,-3.0898,-3.0898,-3.0898,-3.0898,-3.0898,-3.0898,-3.0898,-3.0898,-3.0898,-3.0898,-3.0898,-3.0898,-3.0898,-3.0898,-3.0898,-3.0898,-3.0898,-3.0898,-3.0898,-3.0898,-3.0898,-3.0898,-3.0898,-3.0898,-3.0898,-3.0898,-3.0898,-3.0898,-3.0898,-3.0898,-3.0898,-3.0898,-3.0898,-3.0898,-3.0898,-3.0898,-3.0898,-3.0898,-3.0898,-3.0898,-3.0898,-3.0898,-3.0898,-3.0898,-3.0898,-3.0898,-3.0898,-3.0898,-3.0898,-3.0898,-3.0898,-3.0898,-3.0898,-3.0898,-3.0898,-3.0898,-3.0898,-3.0898,-3.0898,-3.0898,-3.0898,-3.0898,-3.0898,-3.0898,-3.0898,-3.0898,-3.0879,-3.0879,-3.0859,-3.0879,-3.0879,-3.0723,-3.0488,-3.008,-2.9922,-2.9731,-2.9774,-2.9526,-2.9107,-2.8446,-2.7744,-2.6897,-2.5903,-2.4918,-2.4021,-2.3146,-2.2285,-3.0898,-3.0898,-3.0898,-3.0898,-3.0898,-3.0898,-3.0898,-3.0898,-3.0898,-3.0898,-3.0898,-3.0898,-3.0898,-3.0898,-3.0898,-3.0898,-3.0898,-3.0898,-3.0898,-3.0898,-3.0898,-3.0898,-3.0898,-3.0898,-3.0898,-3.0898,-3.0898,-3.0898,-3.0898,-3.0898,-3.0898,-3.0898,-3.0898,-3.0898,-3.0898,-3.0898,-3.0898,-3.0898,-3.0898,-3.0898,-3.0898,-3.0898,-3.0898,-3.0898,-3.0898,-3.0898,-3.0898,-3.0898,-3.0898,-3.0898,-3.0898,-3.0898,-3.0898,-3.0898,-3.0898,-3.0898,-3.0898,-3.0898,-3.0898,-3.0898,-3.0898,-3.0898,-3.0898,-3.0898,-3.0898,-3.0898,-3.0898,-3.0898,-3.0898,-3.0898,-3.0898,-3.0898,-3.0898,-3.0898,-3.0898,-3.0898,-3.0898,-3.0898,-3.0898,-3.0898,-3.0898,-3.0898,-3.0898,-3.0898,-3.0898,-3.0898,-3.0898,-3.0898,-3.0898,-3.0898,-3.0898,-3.0898,-3.0898,-3.0898,-3.0898,-3.0898,-3.0898,-3.0898,-3.0898,-3.0879,-3.0644,-3.0566,-3.0351,-3.043,-3.0587,-3.0276,-2.9794,-2.9317,-2.8591,-2.7755,-2.6845,-2.5867,-2.4902,-2.3959,-2.2925,-3.0898,-3.0898,-3.0898,-3.0898,-3.0898,-3.0898,-3.0898,-3.0898,-3.0898,-3.0898,-3.0898,-3.0898,-3.0898,-3.0898,-3.0898,-3.0898,-3.0898,-3.0898,-3.0898,-3.0898,-3.0898,-3.0898,-3.0898,-3.0898,-3.0898,-3.0898,-3.0898,-3.0898,-3.0898,-3.0898,-3.0898,-3.0898,-3.0898,-3.0898,-3.0898,-3.0898,-3.0898,-3.0898,-3.0898,-3.0898,-3.0898,-3.0898,-3.0898,-3.0898,-3.0898,-3.0898,-3.0898,-3.0898,-3.0898,-3.0898,-3.0898,-3.0898,-3.0898,-3.0898,-3.0898,-3.0898,-3.0898,-3.0898,-3.0898,-3.0898,-3.0898,-3.0898,-3.0898,-3.0898,-3.0898,-3.0898,-3.0898,-3.0898,-3.0898,-3.0898,-3.0898,-3.0898,-3.0898,-3.0898,-3.0898,-3.0898,-3.0898,-3.0898,-3.0898,-3.0898,-3.0898,-3.0898,-3.0898,-3.0898,-3.0898,-3.0898,-3.0898,-3.0898,-3.0898,-3.0898,-3.0898,-3.0898,-3.0898,-3.0898,-3.0898,-3.0898,-3.0898,-3.0898,-3.0898,-3.0898,-3.0801,-3.0801,-3.084,-3.0859,-3.084,-3.0762,-3.0335,-2.9872,-2.9389,-2.8692,-2.7786,-2.6707,-2.5603,-2.4547,-2.3497,-3.0898,-3.0898,-3.0898,-3.0898,-3.0898,-3.0898,-3.0898,-3.0898,-3.0898,-3.0898,-3.0898,-3.0898,-3.0898,-3.0898,-3.0898,-3.0898,-3.0898,-3.0898,-3.0898,-3.0898,-3.0898,-3.0898,-3.0898,-3.0898,-3.0898,-3.0898,-3.0898,-3.0898,-3.0898,-3.0898,-3.0898,-3.0898,-3.0898,-3.0898,-3.0898,-3.0898,-3.0898,-3.0898,-3.0898,-3.0898,-3.0898,-3.0898,-3.0898,-3.0898,-3.0898,-3.0898,-3.0898,-3.0898,-3.0898,-3.0898,-3.0898,-3.0898,-3.0898,-3.0898,-3.0898,-3.0898,-3.0898,-3.0898,-3.0898,-3.0898,-3.0898,-3.0898,-3.0898,-3.0898,-3.0898,-3.0898,-3.0898,-3.0898,-3.0898,-3.0898,-3.0898,-3.0898,-3.0898,-3.0898,-3.0898,-3.0898,-3.0898,-3.0898,-3.0898,-3.0898,-3.0898,-3.0898,-3.0898,-3.0898,-3.0898,-3.0898,-3.0898,-3.0898,-3.0898,-3.0898,-3.0898,-3.0898,-3.0898,-3.0898,-3.0898,-3.0898,-3.0898,-3.0898,-3.0898,-3.0898,-3.0898,-3.0898,-3.0898,-3.0898,-3.0879,-3.084,-3.0723,-3.0276,-2.9789,-2.9353,-2.855,-2.7368,-2.6253,-2.5081,-2.4063,-3.0898,-3.0898,-3.0898,-3.0898,-3.0898,-3.0898,-3.0898,-3.0898,-3.0898,-3.0898,-3.0898,-3.0898,-3.0898,-3.0898,-3.0898,-3.0898,-3.0898,-3.0898,-3.0898,-3.0898,-3.0898,-3.0898,-3.0898,-3.0898,-3.0898,-3.0898,-3.0898,-3.0898,-3.0898,-3.0898,-3.0898,-3.0898,-3.0898,-3.0898,-3.0898,-3.0898,-3.0898,-3.0898,-3.0898,-3.0898,-3.0898,-3.0898,-3.0898,-3.0898,-3.0898,-3.0898,-3.0898,-3.0898,-3.0898,-3.0898,-3.0898,-3.0898,-3.0898,-3.0898,-3.0898,-3.0898,-3.0898,-3.0898,-3.0898,-3.0898,-3.0898,-3.0898,-3.0937,-3.0918,-3.0918,-3.0957,-3.1055,-3.1016,-3.0996,-3.0937,-3.0898,-3.0976,-3.0918,-3.0918,-3.0898,-3.0898,-3.0898,-3.0898,-3.0898,-3.0898,-3.0898,-3.0898,-3.0898,-3.0898,-3.0898,-3.0898,-3.0898,-3.0898,-3.0898,-3.0898,-3.0898,-3.0898,-3.0898,-3.0898,-3.0898,-3.0898,-3.0898,-3.0898,-3.0898,-3.0898,-3.0898,-3.0898,-3.0898,-3.0898,-3.0898,-3.0879,-3.0704,-3.045,-3.0157,-2.9667,-2.8879,-2.7966,-2.6781,-2.5533,-2.4546,-3.0898,-3.0898,-3.0898,-3.0898,-3.0898,-3.0898,-3.0898,-3.0898,-3.0898,-3.0898,-3.0898,-3.0898,-3.0898,-3.0898,-3.0898,-3.0898,-3.0898,-3.0898,-3.0898,-3.0898,-3.0898,-3.0898,-3.0898,-3.0898,-3.0898,-3.0898,-3.0898,-3.0898,-3.0898,-3.0898,-3.0898,-3.0898,-3.0898,-3.0898,-3.0898,-3.0898,-3.0898,-3.0898,-3.0898,-3.0898,-3.0898,-3.0898,-3.0898,-3.0898,-3.0898,-3.0898,-3.0898,-3.0898,-3.0898,-3.0898,-3.0898,-3.0898,-3.0898,-3.0898,-3.0898,-3.0918,-3.0918,-3.0898,-3.0898,-3.0898,-3.0898,-3.0918,-3.1074,-3.1211,-3.1289,-3.1406,-3.1504,-3.1523,-3.1543,-3.1562,-3.1582,-3.1348,-3.123,-3.1172,-3.1055,-3.0937,-3.0918,-3.0918,-3.0937,-3.0957,-3.0937,-3.0918,-3.0898,-3.0898,-3.0898,-3.0898,-3.0898,-3.0898,-3.0898,-3.0898,-3.0898,-3.0898,-3.0898,-3.0898,-3.0898,-3.0898,-3.0898,-3.0898,-3.0898,-3.0898,-3.0898,-3.0898,-3.0898,-3.0898,-3.0898,-3.0898,-3.0762,-3.0587,-3.0274,-2.9922,-2.9016,-2.8104,-2.7099,-2.6083,-2.498,-3.0898,-3.0898,-3.0898,-3.0898,-3.0898,-3.0898,-3.0898,-3.0898,-3.0898,-3.0898,-3.0898,-3.0898,-3.0898,-3.0898,-3.0898,-3.0898,-3.0898,-3.0898,-3.0898,-3.0898,-3.0898,-3.0898,-3.0898,-3.0898,-3.0898,-3.0898,-3.0898,-3.0898,-3.0898,-3.0898,-3.0898,-3.0898,-3.0898,-3.0898,-3.0898,-3.0898,-3.0898,-3.0898,-3.0898,-3.0898,-3.0898,-3.0898,-3.0898,-3.0898,-3.0898,-3.0898,-3.0898,-3.0898,-3.0898,-3.0898,-3.0898,-3.0898,-3.0898,-3.0976,-3.1016,-3.1016,-3.1016,-3.1016,-3.1055,-3.1191,-3.1289,-3.1309,-3.1504,-3.1601,-3.1699,-3.1875,-3.209,-3.2229,-3.219,-3.215,-3.1992,-3.1836,-3.168,-3.1601,-3.1387,-3.1172,-3.125,-3.1269,-3.123,-3.1172,-3.1055,-3.0996,-3.0976,-3.0898,-3.0898,-3.0898,-3.0898,-3.0898,-3.0898,-3.0898,-3.0898,-3.0898,-3.0898,-3.0898,-3.0898,-3.0898,-3.0898,-3.0898,-3.0898,-3.0898,-3.0898,-3.0898,-3.0898,-3.0898,-3.0898,-3.0898,-3.0762,-3.0645,-3.0274,-2.9785,-2.9076,-2.8182,-2.7177,-2.6083,-2.498,-3.0898,-3.0898,-3.0898,-3.0898,-3.0898,-3.0898,-3.0898,-3.0898,-3.0898,-3.0898,-3.0898,-3.0898,-3.0898,-3.0898,-3.0898,-3.0898,-3.0898,-3.0898,-3.0898,-3.0898,-3.0898,-3.0898,-3.0898,-3.0898,-3.0898,-3.0898,-3.0898,-3.0898,-3.0898,-3.0898,-3.0898,-3.0898,-3.0898,-3.0898,-3.0898,-3.0898,-3.0898,-3.0898,-3.0898,-3.0898,-3.0898,-3.0898,-3.0898,-3.0898,-3.0898,-3.0898,-3.0918,-3.0937,-3.0957,-3.0937,-3.0937,-3.0918,-3.0957,-3.1269,-3.1406,-3.1445,-3.1445,-3.1445,-3.1504,-3.168,-3.1855,-3.1855,-3.2031,-3.207,-3.2187,-3.2207,-3.2305,-3.2229,-3.2226,-3.2285,-3.2324,-3.2148,-3.209,-3.2051,-3.1934,-3.1955,-3.1914,-3.166,-3.1621,-3.1543,-3.1465,-3.123,-3.1113,-3.0996,-3.0898,-3.0898,-3.0898,-3.0898,-3.0898,-3.0898,-3.0898,-3.0898,-3.0898,-3.0898,-3.0898,-3.0898,-3.0898,-3.0898,-3.0898,-3.0898,-3.0898,-3.0898,-3.0898,-3.0898,-3.0898,-3.0898,-3.082,-3.0645,-3.0274,-2.9726,-2.9076,-2.8182,-2.7177,-2.6083,-2.4919,-3.0898,-3.0898,-3.0898,-3.0898,-3.0898,-3.0898,-3.0898,-3.0898,-3.0898,-3.0898,-3.0898,-3.0898,-3.0898,-3.0898,-3.0898,-3.0898,-3.0898,-3.0898,-3.0898,-3.0898,-3.0898,-3.0898,-3.0898,-3.0898,-3.0898,-3.0957,-3.0898,-3.0898,-3.0898,-3.0918,-3.0898,-3.0898,-3.0898,-3.0898,-3.0898,-3.0898,-3.0898,-3.0898,-3.0898,-3.0898,-3.0898,-3.0898,-3.0898,-3.0918,-3.0918,-3.0937,-3.0976,-3.1152,-3.123,-3.1289,-3.1426,-3.1621,-3.1641,-3.1797,-3.1894,-3.1914,-3.2129,-3.2129,-3.1973,-3.217,-3.2248,-3.2266,-3.2402,-3.2617,-3.2793,-3.2851,-3.2832,-3.2891,-3.2891,-3.2851,-3.2773,-3.2656,-3.2559,-3.248,-3.2383,-3.2346,-3.2266,-3.2229,-3.2031,-3.1953,-3.1855,-3.166,-3.1426,-3.1211,-3.1074,-3.0957,-3.0937,-3.0898,-3.0898,-3.0898,-3.0898,-3.0898,-3.0898,-3.0898,-3.0898,-3.0898,-3.0898,-3.0898,-3.0898,-3.0898,-3.0898,-3.0898,-3.0898,-3.0898,-3.0898,-3.0898,-3.0879,-3.0567,-3.0216,-2.9745,-2.9153,-2.8182,-2.7177,-2.59,-2.4734,-3.0898,-3.0898,-3.0898,-3.0898,-3.0898,-3.0898,-3.0898,-3.0898,-3.0898,-3.0898,-3.0898,-3.0898,-3.0898,-3.0898,-3.0898,-3.0898,-3.0898,-3.0898,-3.0898,-3.0918,-3.0996,-3.1074,-3.1152,-3.1152,-3.1269,-3.1191,-3.1328,-3.1328,-3.1289,-3.123,-3.1191,-3.0918,-3.0898,-3.0898,-3.0898,-3.0898,-3.0937,-3.1113,-3.123,-3.1289,-3.1269,-3.1269,-3.1269,-3.125,-3.1211,-3.1211,-3.1269,-3.1484,-3.166,-3.1738,-3.1914,-3.2051,-3.2131,-3.2207,-3.2305,-3.2402,-3.2656,-3.2793,-3.2617,-3.2578,-3.248,-3.2578,-3.2715,-3.3047,-3.3262,-3.3418,-3.3398,-3.332,-3.332,-3.334,-3.334,-3.3086,-3.3008,-3.2871,-3.2734,-3.2578,-3.248,-3.2539,-3.25,-3.2363,-3.2285,-3.2187,-3.1914,-3.1523,-3.1289,-3.1094,-3.0996,-3.0918,-3.0918,-3.0918,-3.0898,-3.0898,-3.0898,-3.0898,-3.0898,-3.0898,-3.0898,-3.0898,-3.0898,-3.0898,-3.0898,-3.0898,-3.0898,-3.0898,-3.0898,-3.0898,-3.0879,-3.0528,-3.0157,-2.9686,-2.9094,-2.8122,-2.7056,-2.5778,-2.4425,-3.0898,-3.0898,-3.0898,-3.0898,-3.0898,-3.0898,-3.0898,-3.0898,-3.0898,-3.0898,-3.0898,-3.0898,-3.0898,-3.0918,-3.0937,-3.0957,-3.0918,-3.0898,-3.0996,-3.1133,-3.125,-3.1445,-3.1562,-3.1758,-3.2033,-3.1973,-3.1894,-3.1914,-3.2012,-3.1855,-3.1504,-3.1016,-3.1133,-3.0976,-3.0996,-3.1133,-3.125,-3.1484,-3.1738,-3.1914,-3.1934,-3.1953,-3.1973,-3.1992,-3.2031,-3.207,-3.207,-3.209,-3.2129,-3.2129,-3.2285,-3.2344,-3.2441,-3.2617,-3.2734,-3.2832,-3.3066,-3.3184,-3.3144,-3.3125,-3.3262,-3.332,-3.332,-3.332,-3.3398,-3.3418,-3.3418,-3.3418,-3.3418,-3.3418,-3.3418,-3.3379,-3.3281,-3.3203,-3.3086,-3.3066,-3.3027,-3.3105,-3.3027,-3.2832,-3.2715,-3.2637,-3.248,-3.2109,-3.1738,-3.1543,-3.1172,-3.1094,-3.0996,-3.0976,-3.0918,-3.0898,-3.0898,-3.0898,-3.0898,-3.0898,-3.0898,-3.0898,-3.0898,-3.0898,-3.0898,-3.0898,-3.0898,-3.0898,-3.0898,-3.0898,-3.084,-3.0411,-3.0039,-2.9686,-2.8975,-2.79,-2.6554,-2.521,-2.3852,-3.0898,-3.0898,-3.0898,-3.0898,-3.0898,-3.0898,-3.0898,-3.0898,-3.0898,-3.0898,-3.0898,-3.0898,-3.0898,-3.0957,-3.1191,-3.1269,-3.1309,-3.1582,-3.1601,-3.1699,-3.1855,-3.1914,-3.2012,-3.2131,-3.2148,-3.2268,-3.2248,-3.2229,-3.2129,-3.2368,-3.2131,-3.1738,-3.1739,-3.168,-3.168,-3.1681,-3.1818,-3.1935,-3.2131,-3.2229,-3.2229,-3.2229,-3.2229,-3.2229,-3.2229,-3.2229,-3.2187,-3.2441,-3.2519,-3.2617,-3.2793,-3.2832,-3.2851,-3.3047,-3.3125,-3.3144,-3.334,-3.3398,-3.3418,-3.3418,-3.3418,-3.3418,-3.3398,-3.3418,-3.3418,-3.3418,-3.3418,-3.3418,-3.3418,-3.3418,-3.3418,-3.3418,-3.3379,-3.3418,-3.3418,-3.3418,-3.3418,-3.3418,-3.3379,-3.3086,-3.3105,-3.3125,-3.2949,-3.2715,-3.2344,-3.1973,-3.1582,-3.1269,-3.123,-3.1133,-3.1094,-3.1016,-3.1016,-3.0918,-3.0918,-3.0898,-3.0898,-3.0898,-3.0898,-3.0898,-3.0898,-3.0898,-3.0898,-3.0898,-3.0898,-3.0898,-3.0704,-3.0294,-2.9922,-2.9745,-2.8797,-2.7539,-2.6128,-2.4656,-2.3479,-3.0898,-3.0898,-3.0898,-3.0898,-3.0898,-3.0898,-3.0898,-3.0898,-3.0898,-3.0898,-3.0898,-3.0996,-3.1074,-3.1191,-3.1504,-3.1699,-3.1777,-3.1953,-3.209,-3.2187,-3.2246,-3.2385,-3.2505,-3.2684,-3.2903,-3.2785,-3.2846,-3.2947,-3.3006,-3.2866,-3.2927,-3.2927,-3.2826,-3.2747,-3.2391,-3.2548,-3.2649,-3.2668,-3.2806,-3.2826,-3.2866,-3.2947,-3.2947,-3.2966,-3.2986,-3.2986,-3.3065,-3.3181,-3.3155,-3.3172,-3.3246,-3.3359,-3.3398,-3.3418,-3.3418,-3.3418,-3.3418,-3.3418,-3.3418,-3.3418,-3.3418,-3.3418,-3.3418,-3.3418,-3.3418,-3.3418,-3.3418,-3.3418,-3.3418,-3.3418,-3.3418,-3.3418,-3.3418,-3.3418,-3.3418,-3.3418,-3.3418,-3.3418,-3.3418,-3.334,-3.3379,-3.3359,-3.3262,-3.3027,-3.2656,-3.2285,-3.1953,-3.1719,-3.1699,-3.1562,-3.1387,-3.1289,-3.1172,-3.1055,-3.0918,-3.0937,-3.0918,-3.0898,-3.0898,-3.0898,-3.0898,-3.0898,-3.0898,-3.0898,-3.0898,-3.0898,-3.0645,-3.0294,-3.0039,-2.9922,-2.86,-2.7177,-2.5762,-2.4363,-2.3355,-3.0898,-3.0898,-3.0898,-3.0898,-3.0898,-3.0898,-3.0898,-3.0898,-3.0898,-3.0918,-3.0996,-3.1289,-3.1484,-3.1601,-3.1953,-3.2129,-3.2248,-3.2307,-3.2366,-3.2544,-3.2841,-3.3001,-3.3325,-3.3607,-3.3811,-3.4218,-3.418,-3.4161,-3.4282,-3.4182,-3.4222,-3.4242,-3.4121,-3.3797,-3.2913,-3.3395,-3.3759,-3.3819,-3.4017,-3.4097,-3.4035,-3.4015,-3.3995,-3.3995,-3.3975,-3.3893,-3.3933,-3.3766,-3.3701,-3.3697,-3.3529,-3.3481,-3.3418,-3.3418,-3.3418,-3.3418,-3.3418,-3.3418,-3.3418,-3.3418,-3.3418,-3.3418,-3.3418,-3.3418,-3.3418,-3.3418,-3.3418,-3.3418,-3.3418,-3.3418,-3.3418,-3.3418,-3.3418,-3.3418,-3.3418,-3.3418,-3.3418,-3.3418,-3.3418,-3.3418,-3.3418,-3.3418,-3.3418,-3.3281,-3.291,-3.2578,-3.2266,-3.2209,-3.219,-3.1994,-3.1719,-3.1641,-3.1504,-3.1309,-3.1191,-3.1016,-3.0957,-3.0918,-3.0898,-3.0898,-3.0898,-3.0898,-3.0898,-3.0898,-3.0898,-3.0898,-3.0645,-3.0352,-2.9922,-2.939,-2.8122,-2.6753,-2.5333,-2.4177,-2.3183,-3.0898,-3.0898,-3.0898,-3.0898,-3.0898,-3.0898,-3.0898,-3.0898,-3.0918,-3.1055,-3.1289,-3.1484,-3.1719,-3.1992,-3.2405,-3.264,-3.2679,-3.326,-3.3299,-3.3361,-3.3687,-3.3871,-3.4138,-3.4427,-3.4652,-3.4797,-3.4922,-3.5108,-3.5005,-3.517,-3.5108,-3.5108,-3.5273,-3.4841,-3.4143,-3.4099,-3.4202,-3.4222,-3.428,-3.436,-3.4423,-3.4423,-3.4485,-3.4485,-3.4485,-3.4548,-3.4548,-3.436,-3.4235,-3.4047,-3.3796,-3.367,-3.3481,-3.3418,-3.3418,-3.3418,-3.3418,-3.3418,-3.3418,-3.3418,-3.3418,-3.3437,-3.3418,-3.3418,-3.3418,-3.3418,-3.3418,-3.3418,-3.3418,-3.3418,-3.3418,-3.3418,-3.3418,-3.3418,-3.3418,-3.3418,-3.3418,-3.3418,-3.3418,-3.3418,-3.3418,-3.3418,-3.3418,-3.3418,-3.3125,-3.2969,-3.2715,-3.2598,-3.2578,-3.2326,-3.2072,-3.2012,-3.1914,-3.168,-3.1484,-3.1367,-3.1191,-3.1133,-3.1016,-3.0898,-3.0898,-3.0957,-3.0898,-3.0918,-3.0898,-3.0898,-3.0587,-3.0176,-2.945,-2.8618,-2.7659,-2.6571,-2.5349,-2.4177,-2.3043,-3.0898,-3.0898,-3.0898,-3.0898,-3.0898,-3.0898,-3.0957,-3.1074,-3.1113,-3.1348,-3.1719,-3.1875,-3.217,-3.2645,-3.2979,-3.3319,-3.3421,-3.3826,-3.4215,-3.4235,-3.4403,-3.4694,-3.4963,-3.5294,-3.552,-3.5665,-3.5911,-3.6156,-3.6156,-3.6095,-3.6156,-3.6218,-3.6279,-3.6053,-3.5602,-3.5355,-3.5191,-3.5191,-3.5294,-3.5232,-3.5232,-3.517,-3.517,-3.517,-3.517,-3.517,-3.5046,-3.4859,-3.4673,-3.4423,-3.4173,-3.3922,-3.367,-3.3544,-3.3481,-3.3418,-3.3418,-3.3496,-3.3613,-3.3672,-3.3769,-3.3945,-3.3633,-3.3437,-3.3418,-3.3418,-3.3418,-3.3418,-3.3457,-3.3457,-3.3476,-3.3457,-3.3457,-3.3457,-3.3437,-3.3437,-3.3418,-3.3418,-3.3418,-3.3418,-3.3418,-3.3418,-3.3418,-3.3418,-3.332,-3.3262,-3.3184,-3.3086,-3.2969,-3.2715,-3.2422,-3.2383,-3.2344,-3.2129,-3.1953,-3.1797,-3.1601,-3.1367,-3.1269,-3.1211,-3.1133,-3.123,-3.1074,-3.0937,-3.0937,-3.0859,-3.047,-3.0,-2.9331,-2.8498,-2.7599,-2.651,-2.5349,-2.4115,-2.2918,-3.0898,-3.0898,-3.0898,-3.0898,-3.0898,-3.0996,-3.1211,-3.1504,-3.1523,-3.1777,-3.2268,-3.262,-3.2962,-3.3367,-3.3723,-3.405,-3.428,-3.4403,-3.4715,-3.4922,-3.5149,-3.5479,-3.5911,-3.6319,-3.6624,-3.6928,-3.7253,-3.7435,-3.7435,-3.7435,-3.7435,-3.7435,-3.7495,-3.7374,-3.7132,-3.6889,-3.6524,-3.634,-3.6218,-3.6218,-3.6218,-3.6279,-3.6239,-3.6239,-3.6218,-3.6239,-3.6095,-3.5849,-3.5479,-3.517,-3.4797,-3.436,-3.4047,-3.3942,-3.3753,-3.3623,-3.3618,-3.3789,-3.4004,-3.4082,-3.4219,-3.4336,-3.3945,-3.3613,-3.3574,-3.3691,-3.373,-3.3711,-3.373,-3.3633,-3.3574,-3.3555,-3.3535,-3.3496,-3.3457,-3.3437,-3.3418,-3.3418,-3.3418,-3.3418,-3.3418,-3.3418,-3.3418,-3.3418,-3.3418,-3.3379,-3.332,-3.3301,-3.3223,-3.3242,-3.2988,-3.2812,-3.2734,-3.2598,-3.2422,-3.2226,-3.2012,-3.1777,-3.1836,-3.1797,-3.168,-3.1523,-3.1465,-3.1328,-3.1055,-3.0762,-3.0313,-2.9863,-2.9272,-2.8439,-2.7418,-2.6449,-2.5288,-2.4053,-2.2918,-3.0898,-3.0898,-3.0898,-3.0898,-3.0996,-3.1446,-3.1643,-3.1543,-3.1836,-3.2348,-3.2986,-3.3105,-3.3528,-3.4055,-3.4175,-3.4465,-3.4797,-3.5046,-3.5459,-3.5828,-3.6197,-3.6585,-3.7011,-3.7473,-3.7774,-3.8074,-3.8395,-3.8693,-3.8752,-3.8752,-3.8752,-3.8752,-3.8752,-3.8752,-3.8693,-3.8537,-3.7976,-3.7435,-3.7314,-3.7193,-3.7193,-3.7193,-3.7214,-3.7214,-3.7193,-3.7193,-3.7011,-3.6749,-3.6383,-3.583,-3.5376,-3.4942,-3.4298,-3.4515,-3.4648,-3.4769,-3.455,-3.4414,-3.4492,-3.4512,-3.4629,-3.4746,-3.4473,-3.4414,-3.4336,-3.4297,-3.4258,-3.416,-3.4141,-3.4101,-3.4023,-3.3984,-3.3926,-3.3867,-3.373,-3.3555,-3.3516,-3.3457,-3.3437,-3.3418,-3.3418,-3.3418,-3.3418,-3.3418,-3.3418,-3.3418,-3.3418,-3.3418,-3.3418,-3.3418,-3.3379,-3.3184,-3.3086,-3.2949,-3.2793,-3.2617,-3.2402,-3.2226,-3.2305,-3.2305,-3.209,-3.1953,-3.1894,-3.1738,-3.1484,-3.0818,-3.0077,-2.9664,-2.9383,-2.8157,-2.7116,-2.6266,-2.5288,-2.3976,-2.2918,-3.0898,-3.0937,-3.0995,-3.121,-3.1643,-3.2356,-3.2615,-3.2614,-3.2792,-3.321,-3.3691,-3.3917,-3.4244,-3.4736,-3.4963,-3.5294,-3.5767,-3.5972,-3.6441,-3.711,-3.7352,-3.7714,-3.8194,-3.8611,-3.8848,-3.9144,-3.9439,-3.9814,-3.9873,-3.9989,-3.9989,-3.9989,-3.9989,-4.0013,-3.9989,-3.9931,-3.9638,-3.9026,-3.8574,-3.8276,-3.8178,-3.8178,-3.8156,-3.8201,-3.8201,-3.8141,-3.8005,-3.7808,-3.7414,-3.6927,-3.6599,-3.629,-3.5682,-3.5695,-3.5453,-3.5431,-3.5106,-3.5074,-3.5166,-3.5046,-3.5059,-3.5156,-3.5195,-3.5234,-3.5019,-3.4883,-3.4726,-3.457,-3.4629,-3.4648,-3.457,-3.4492,-3.4414,-3.4316,-3.4023,-3.3711,-3.3613,-3.3516,-3.3457,-3.3418,-3.3418,-3.3418,-3.3418,-3.3418,-3.3418,-3.3418,-3.3418,-3.3418,-3.3418,-3.3418,-3.3418,-3.332,-3.332,-3.3281,-3.3125,-3.2988,-3.2871,-3.2773,-3.2851,-3.2773,-3.2519,-3.2363,-3.2305,-3.2129,-3.1914,-3.1262,-3.0534,-2.9927,-2.943,-2.8275,-2.7158,-2.6239,-2.5242,-2.4053,-2.3043,-3.1015,-3.1015,-3.1306,-3.1936,-3.2712,-3.3518,-3.4106,-3.4431,-3.4248,-3.4226,-3.4592,-3.4901,-3.5191,-3.5603,-3.5911,-3.6401,-3.6746,-3.6989,-3.7533,-3.8373,-3.8432,-3.873,-3.9285,-3.9755,-3.9931,-4.0165,-4.0455,-4.0803,-4.0884,-4.1095,-4.1225,-4.122,-4.1331,-4.1427,-4.1417,-4.1475,-4.1266,-4.1115,-4.0399,-3.9962,-3.9669,-3.9541,-3.9541,-3.9669,-3.9633,-3.9515,-3.9286,-3.913,-3.8959,-3.8583,-3.8301,-3.8078,-3.7509,-3.6761,-3.6286,-3.6037,-3.579,-3.5666,-3.5665,-3.5611,-3.5605,-3.5801,-3.6016,-3.5859,-3.5586,-3.5351,-3.5176,-3.5117,-3.5156,-3.5156,-3.5098,-3.4941,-3.4805,-3.4668,-3.4414,-3.4101,-3.3867,-3.3672,-3.3437,-3.3418,-3.3418,-3.3418,-3.3418,-3.3418,-3.3418,-3.3418,-3.3418,-3.3418,-3.3418,-3.3418,-3.3418,-3.3418,-3.3398,-3.3398,-3.3359,-3.3262,-3.332,-3.332,-3.3281,-3.3203,-3.291,-3.2773,-3.2695,-3.248,-3.2266,-3.1803,-3.1184,-3.0513,-2.972,-2.8631,-2.7528,-2.6338,-2.5212,-2.4052,-2.3058,-3.1556,-3.1654,-3.2324,-3.3089,-3.3922,-3.4672,-3.5328,-3.5905,-3.6109,-3.5907,-3.5644,-3.5911,-3.6197,-3.6585,-3.695,-3.7435,-3.7834,-3.8074,-3.8611,-3.9144,-3.9462,-3.9791,-4.0281,-4.0629,-4.0884,-4.1206,-4.1492,-4.1834,-4.1964,-4.2217,-4.2494,-4.2519,-4.269,-4.2885,-4.2885,-4.291,-4.2885,-4.2837,-4.2642,-4.1945,-4.1483,-4.1745,-4.1971,-4.1828,-4.1662,-4.1376,-4.1148,-4.0903,-4.0495,-3.9972,-3.9623,-3.9242,-3.868,-3.7756,-3.7443,-3.7427,-3.6656,-3.6383,-3.6174,-3.6051,-3.5898,-3.5937,-3.6035,-3.6035,-3.5937,-3.5781,-3.5684,-3.5664,-3.5644,-3.5644,-3.5586,-3.5371,-3.5195,-3.5019,-3.4824,-3.4492,-3.4141,-3.3809,-3.3496,-3.3457,-3.3437,-3.3418,-3.3418,-3.3418,-3.3418,-3.3418,-3.3418,-3.3418,-3.3418,-3.3418,-3.3418,-3.3418,-3.3418,-3.3418,-3.3418,-3.3418,-3.3418,-3.3418,-3.3359,-3.3301,-3.3262,-3.3144,-3.3008,-3.2812,-3.2575,-3.2127,-3.1684,-3.0969,-3.0064,-2.9039,-2.7837,-2.6715,-2.5373,-2.4172,-2.316,-3.2292,-3.2615,-3.3623,-3.4458,-3.5158,-3.5752,-3.6471,-3.7188,-3.7473,-3.7473,-3.7374,-3.7352,-3.7352,-3.7654,-3.8036,-3.8455,-3.8967,-3.9085,-3.9697,-4.0223,-4.0561,-4.0918,-4.1287,-4.1532,-4.1816,-4.2209,-4.2758,-4.3103,-4.3144,-4.3424,-4.3672,-4.3664,-4.402,-4.4144,-4.4144,-4.4119,-4.4144,-4.4069,-4.4318,-4.4033,-4.336,-4.3413,-4.327,-4.3128,-4.3033,-4.2855,-4.2532,-4.2242,-4.1859,-4.1322,-4.0899,-4.0259,-3.9692,-3.8936,-3.8495,-3.8113,-3.7421,-3.6789,-3.6606,-3.6336,-3.6035,-3.6035,-3.6035,-3.6035,-3.6035,-3.5879,-3.5879,-3.5879,-3.5879,-3.5859,-3.5859,-3.5703,-3.5664,-3.5547,-3.5234,-3.4883,-3.4473,-3.4082,-3.3867,-3.3789,-3.3672,-3.3418,-3.3418,-3.3418,-3.3418,-3.3418,-3.3418,-3.3418,-3.3418,-3.3418,-3.3418,-3.3418,-3.3418,-3.3418,-3.3418,-3.3418,-3.3418,-3.3418,-3.3418,-3.3379,-3.334,-3.3379,-3.332,-3.3105,-3.2883,-3.2633,-3.2085,-3.1383,-3.0523,-2.9547,-2.834,-2.7048,-2.5707,-2.4384,-2.335,-3.3388,-3.393,-3.5061,-3.5883,-3.6448,-3.6937,-3.7632,-3.835,-3.8492,-3.8848,-3.9285,-3.8848,-3.867,-3.8789,-3.9167,-3.9638,-3.9989,-4.0199,-4.0745,-4.1317,-4.1629,-4.2053,-4.2274,-4.2454,-4.284,-4.3193,-4.3747,-4.4103,-4.4244,-4.4527,-4.4627,-4.4686,-4.4736,-4.4811,-4.4844,-4.4811,-4.4878,-4.5028,-4.5229,-4.5488,-4.511,-4.465,-4.4314,-4.4131,-4.3939,-4.3643,-4.3456,-4.3313,-4.3174,-4.2552,-4.1948,-4.1324,-4.0644,-3.9953,-3.9322,-3.8814,-3.775,-3.728,-3.6944,-3.6355,-3.6152,-3.6035,-3.6035,-3.6035,-3.6035,-3.6035,-3.6035,-3.6035,-3.6035,-3.6016,-3.6016,-3.6016,-3.5996,-3.5918,-3.5566,-3.5273,-3.4824,-3.4394,-3.4238,-3.4121,-3.3848,-3.3555,-3.3437,-3.3437,-3.3418,-3.3418,-3.3418,-3.3418,-3.3418,-3.3418,-3.3418,-3.3418,-3.3418,-3.3418,-3.3418,-3.3418,-3.3418,-3.3418,-3.3418,-3.3418,-3.3418,-3.3418,-3.3418,-3.3398,-3.3131,-3.2884,-3.2447,-3.1753,-3.0919,-2.9938,-2.8575,-2.7222,-2.604,-2.4747,-2.3563,-3.5316,-3.6096,-3.6669,-3.7229,-3.7918,-3.8268,-3.8848,-3.9462,-3.9521,-3.9873,-4.0339,-4.0595,-4.0397,-3.9849,-4.0199,-4.0653,-4.1153,-4.1359,-4.188,-4.2527,-4.2667,-4.3136,-4.3507,-4.3598,-4.3937,-4.4253,-4.4494,-4.4527,-4.497,-4.5196,-4.5321,-4.5321,-4.5799,-4.5899,-4.5924,-4.5899,-4.5824,-4.5874,-4.5874,-4.605,-4.61,-4.5795,-4.5905,-4.5735,-4.5555,-4.5374,-4.5242,-4.5049,-4.4585,-4.3831,-4.2832,-4.2206,-4.155,-4.0777,-4.0062,-3.921,-3.815,-3.7415,-3.6944,-3.6355,-3.6084,-3.6035,-3.6035,-3.6035,-3.6035,-3.6035,-3.6035,-3.6035,-3.6035,-3.6035,-3.6016,-3.6016,-3.5996,-3.5898,-3.5664,-3.5508,-3.5215,-3.4824,-3.4551,-3.4336,-3.4062,-3.3769,-3.3516,-3.3476,-3.3418,-3.3418,-3.3418,-3.3418,-3.3418,-3.3418,-3.3418,-3.3418,-3.3418,-3.3418,-3.3418,-3.3418,-3.3418,-3.3418,-3.3418,-3.3418,-3.3418,-3.3418,-3.3418,-3.3418,-3.3292,-3.3063,-3.2562,-3.2016,-3.1038,-3.0012,-2.8626,-2.7327,-2.621,-2.503,-2.3753]},{"header":{"parameterUnit":"m.s-1","parameterCategory":1,"la1":31.0,"la2":29.5877,"lo1":-88.7671,"lo2":-86.6584,"dx":0.0162,"dy":0.0185,"nx":115,"ny":88,"refTime":"2023-02-03T18:00:00:Z","depth":0,"parameterNumber":3,"parameterNumberName":"V-component_of_WINDS"},"data":[0.0,0.0,0.0,0.0,0.0,0.0,0.0,0.0,0.0,0.0,0.0,0.0,0.0,0.0,0.0,0.0,0.0,0.0,0.0,0.0,0.0,0.0,0.0,0.0,0.0,0.0,0.0,0.0,0.0,0.0,0.0,0.0,0.0,0.0,0.0,0.0,0.0,0.0,0.0,0.0,0.0,0.0,0.0,0.0,0.0,0.0,0.0,0.0,0.0,0.0,0.0,0.0,0.0,0.0,0.0,0.0,0.0,0.0,0.0,0.0,0.0,0.0,0.0,0.0,0.0,0.0,0.0,0.0,0.0,0.0,0.0,0.0,0.0,0.0,0.0,0.0,0.0,0.0,0.0,0.0,0.0,0.0,0.0,0.0,0.0,0.0,0.0,0.0,0.0,0.0,0.0,0.0,0.0,0.0,0.0,0.0,0.0,0.0,0.0,0.0,0.0,0.0,0.0,0.0,0.0,0.0,0.0,0.0,0.0,0.0,0.0,0.0,0.0,0.0,0.0,0.0,0.0,0.0,0.0,0.0,0.0,0.0,0.0,0.0,0.0,0.0,0.0,0.0,0.0,0.0,0.0,0.0,0.0,0.0,0.0,0.0,0.0,0.0,0.0,0.0,0.0,0.0,0.0,0.0,0.0,0.0,0.0,0.0,0.0,0.0,0.0,0.0,0.0,0.0,0.0,0.0,0.0,0.0,0.0,0.0,0.0,0.0,0.0,0.0,0.0,0.0,0.0,0.0,0.0,0.0,0.0,0.0,0.0,0.0,0.0,0.0,0.0,0.0,0.0,0.0,0.0,0.0,0.0,0.0,0.0,0.0,0.0,0.0,0.0,0.0,0.0,0.0,0.0,0.0,0.0,0.0,0.0,0.0,0.0,0.0,0.0,0.0,0.0,0.0,0.0,0.0,0.0,0.0,0.0,0.0,0.0,0.0,0.0,0.0,0.0,0.0,0.0,0.0,0.0,0.0,0.0,0.0,0.0,0.0,0.0,0.0,0.0,0.0,0.0,0.0,0.0,0.0,0.0,0.0,0.0,0.0,0.0,0.0,0.0,0.0,0.0,0.0,0.0,0.0,0.0,0.0,0.0,0.0,0.0,0.0,0.0,0.0,0.0,0.0,0.0,0.0,0.0,0.0,0.0,0.0,0.0,0.0,0.0,0.0,0.0,0.0,0.0,0.0,0.0,0.0,0.0,0.0,0.0,0.0,0.0,0.0,0.0,0.0,0.0,0.0,0.0,0.0,0.0,0.0,0.0,0.0,0.0,0.0,0.0,0.0,0.0,0.0,0.0,0.0,0.0,0.0,0.0,0.0,0.0,0.0,0.0,0.0,0.0,0.0,0.0,0.0,0.0,0.0,0.0,0.0,0.0,0.0,0.0,0.0,0.0,0.0,0.0,0.0,0.0,0.0,0.0,0.0,0.0,0.0,0.0,0.0,0.0,0.0,0.0,0.0,0.0,0.0,0.0,0.0,0.0,0.0,0.0,0.0,0.0,0.0,0.0,0.0,0.0,0.0,0.0,0.0,0.0,0.0,0.0,0.0,0.0,0.0,0.0,0.0,0.0,0.0,0.0,0.0,0.0,0.0,0.0,0.0,0.0,0.0,0.0,0.0,0.0,0.0,0.0,0.0,0.0,0.0,0.0,0.0,0.0,0.0,0.0,0.0,0.0,0.0,0.0,0.0,0.0,0.0,0.0,0.0,0.0,0.0,0.0,0.0,0.0,0.0,0.0,0.0,0.0,0.0,0.0,0.0,0.0,0.0,0.0,0.0,0.0,0.0,0.0,0.0,0.0,0.0,0.0,0.0,0.0,0.0,0.0,0.0,0.0,0.0,0.0,0.0,0.0,0.0,0.0,0.0,0.0,0.0,0.0,0.0,0.0,0.0,0.0,0.0,0.0,0.0,0.0,0.0,0.0,0.0,0.0,0.0,0.0,0.0,0.0,0.0,0.0,0.0,0.0,0.0,0.0,0.0,0.0,0.0,0.0,0.0,0.0,0.0,0.0,0.0,0.0,0.0,0.0,0.0,0.0,0.0,0.0,0.0,0.0,0.0,0.0,0.0,0.0,0.0,0.0,0.0,0.0,0.0,0.0,0.0,0.0,0.0,0.0,0.0,0.0,0.0,0.0,0.0,0.0,0.0,0.0,0.0,0.0,0.0,0.0,0.0,0.0,0.0,0.0,0.0,0.0,0.0,0.0,0.0,0.0,0.0,0.0,0.0,0.0,0.0,0.0,0.0,0.0,0.0,0.0,0.0,0.0,0.0,0.0,0.0,0.0,0.0,0.0,0.0,0.0,0.0,0.0,0.0,0.0,0.0,0.0,0.0,0.0,0.0,0.0,0.0,0.0,0.0,0.0,0.0,0.0,0.0,0.0,0.0,0.0,0.0,0.0,0.0,0.0,0.0,0.0,0.0,0.0,0.0,0.0,0.0,0.0,0.0,0.0,0.0,0.0,0.0,0.0,0.0,0.0,0.0,0.0,0.0,0.0,0.0,0.0,0.0,0.0,0.0,0.0,0.0,0.0,0.0,0.0,0.0,0.0,0.0,0.0,0.0,0.0,0.0,0.0,0.0,0.0,0.0,0.0,0.0,0.0,0.0,0.0,0.0,0.0,0.0,0.0,0.0,0.0,0.0,0.0,0.0,0.0,0.0,0.0,0.0,0.0,0.0,0.0,0.0,0.0,0.0,0.0,0.0,0.0,0.0,0.0,0.0,0.0,0.0,0.0,0.0,0.0,0.0,0.0,0.0,0.0,0.0,0.0,0.0,0.0,0.0,0.0,0.0,0.0,0.0,0.0,0.0,0.0,0.0,0.0,0.0,0.0,0.0,0.0,0.0,0.0,0.0,0.0,0.0,0.0,0.0,0.0,0.0,0.0,0.0,0.0,0.0,0.0,0.0,0.0,0.0,0.0,0.0,0.0,0.0,0.0,0.0,0.0,0.0,0.0,0.0,0.0,0.0,0.0,0.0,0.0,0.0,0.0,0.0,0.0,0.0,0.0,0.0,0.0,0.0,0.0,0.0,0.0,0.0,0.0,0.0,0.0,0.0,0.0,0.0,0.0,0.0,0.0,0.0,0.0,0.0,0.0,0.0,0.0,0.0,0.0,0.0,0.0,0.0,0.0,0.0,0.0,0.0,0.0,0.0,0.0,0.0,0.0,0.0,0.0,0.0,0.0,0.0,0.0,0.0,0.0,0.0,0.0,0.0,0.0,0.0,0.0,0.0,0.0,0.0,0.0,0.0,0.0,0.0,0.0,0.0,0.0,0.0,0.0,0.0,0.0,0.0,0.0,0.0,0.0,0.0,0.0,0.0,0.0,0.0,0.0,0.0,0.0,0.0,0.0,0.0,0.0,0.0,0.0,0.0,0.0,0.0,0.0,0.0,0.0,0.0,0.0,0.0,0.0,0.0,0.0,0.0,0.0,0.0,0.0,0.0,0.0,0.0,0.0,0.0,0.0,0.0,0.0,0.0,0.0,0.0,0.0,0.0,0.0,0.0,0.0,0.0,0.0,0.0,0.0,0.0,0.0,0.0,0.0,0.0,0.0,0.0,0.0,0.0,0.0,0.0,0.0,0.0,0.0,0.0,0.0,0.0,0.0,0.0,0.0,0.0,0.0,0.0,0.0,0.0,0.0,0.0,0.0,0.0,0.0,0.0,0.0,0.0,0.0,0.0,0.0,0.0,0.0,0.0,0.0,0.0,0.0,0.0,0.0,0.0,0.0,0.0,0.0,0.0,0.0,0.0,0.0,0.0,0.0,0.0,0.0,0.0,0.0,0.0,0.0,0.0,0.0,0.0,0.0,0.0,0.0,0.0,0.0,0.0,0.0,0.0,0.0,0.0,0.0,0.0,0.0,0.0,0.0,0.0,0.0,0.0,0.0,0.0,0.0,0.0,0.0,0.0,0.0,0.0,0.0,0.0,0.0,0.0,0.0,0.0,0.0,0.0,0.0,0.0,0.0,0.0,0.0,0.0,0.0,0.0,0.0,0.0,0.0,0.0,0.0,0.0,0.0,0.0,0.0,0.0,0.0,0.0,0.0,0.0,0.0,0.0,0.0,0.0,0.0,0.0,0.0,0.0,0.0,0.0,0.0,0.0,0.0,0.0,0.0,0.0,0.0,0.0,0.0,0.0,0.0,0.0,0.0,0.0,0.0,0.0,0.0,0.0,0.0,0.0,0.0,0.0,0.0,0.0,0.0,0.0,0.0,0.0,0.0,0.0,0.0,0.0,0.0,0.0,0.0,0.0,0.0,0.0,2.3761,0.0,0.0,0.0,0.0,0.0,0.0,0.0,0.0,0.0,0.0,0.0,0.0,0.0,0.0,0.0,0.0,0.0,0.0,0.0,0.0,0.0,0.0,0.0,0.0,0.0,0.0,0.0,0.0,0.0,0.0,0.0,0.0,0.0,0.0,0.0,0.0,0.0,0.0,0.0,0.0,0.0,0.0,0.0,0.0,0.0,0.0,0.0,0.0,0.0,0.0,0.0,0.0,0.0,0.0,0.0,0.0,0.0,0.0,0.0,0.0,0.0,0.0,0.0,0.0,0.0,0.0,0.0,0.0,0.0,0.0,0.0,0.0,0.0,0.0,0.0,0.0,0.0,0.0,0.0,0.0,0.0,0.0,0.0,0.0,0.0,0.0,0.0,0.0,0.0,0.0,0.0,0.0,0.0,0.0,0.0,0.0,0.0,0.0,0.0,0.0,0.0,0.0,0.0,0.0,0.0,0.0,0.0,0.0,0.0,0.0,2.3703,2.3757,2.3757,2.38,2.3894,0.0,0.0,0.0,0.0,0.0,0.0,0.0,0.0,0.0,0.0,0.0,0.0,0.0,0.0,0.0,0.0,0.0,0.0,0.0,0.0,0.0,0.0,0.0,0.0,0.0,0.0,0.0,0.0,0.0,0.0,0.0,0.0,0.0,0.0,0.0,0.0,0.0,0.0,0.0,0.0,0.0,0.0,0.0,0.0,0.0,0.0,0.0,0.0,0.0,0.0,0.0,0.0,0.0,0.0,0.0,0.0,0.0,0.0,0.0,0.0,0.0,0.0,0.0,0.0,0.0,0.0,0.0,0.0,0.0,0.0,0.0,0.0,0.0,0.0,0.0,0.0,0.0,0.0,0.0,0.0,0.0,0.0,0.0,0.0,0.0,0.0,0.0,0.0,0.0,0.0,0.0,0.0,0.0,0.0,0.0,0.0,0.0,0.0,0.0,0.0,0.0,0.0,0.0,0.0,0.0,0.0,0.0,0.0,0.0,0.0,0.0,0.0,2.3935,2.3966,2.4016,0.0,0.0,0.0,0.0,0.0,0.0,0.0,0.0,0.0,0.0,0.0,0.0,0.0,0.0,0.0,0.0,0.0,0.0,0.0,0.0,0.0,0.0,0.0,0.0,0.0,0.0,0.0,0.0,0.0,0.0,0.0,0.0,0.0,0.0,0.0,0.0,0.0,0.0,0.0,0.0,0.0,0.0,0.0,0.0,0.0,0.0,0.0,0.0,0.0,0.0,0.0,0.0,0.0,0.0,0.0,0.0,0.0,0.0,0.0,0.0,0.0,0.0,0.0,0.0,0.0,0.0,0.0,0.0,0.0,0.0,0.0,0.0,0.0,0.0,0.0,0.0,0.0,0.0,0.0,0.0,0.0,0.0,0.0,0.0,0.0,0.0,0.0,0.0,0.0,0.0,0.0,0.0,0.0,0.0,0.0,0.0,0.0,0.0,0.0,0.0,0.0,0.0,0.0,0.0,0.0,0.0,0.0,0.0,0.0,0.0,2.3986,2.3986,2.3996,0.0,2.4066,0.0,0.0,0.0,0.0,0.0,0.0,0.0,0.0,0.0,0.0,0.0,0.0,0.0,0.0,0.0,0.0,0.0,0.0,0.0,0.0,0.0,0.0,0.0,0.0,0.0,0.0,0.0,0.0,0.0,0.0,0.0,0.0,0.0,0.0,0.0,0.0,0.0,0.0,0.0,0.0,0.0,0.0,0.0,0.0,0.0,0.0,0.0,0.0,0.0,0.0,0.0,0.0,0.0,0.0,0.0,0.0,0.0,0.0,0.0,0.0,0.0,0.0,0.0,0.0,0.0,0.0,0.0,0.0,0.0,0.0,0.0,0.0,0.0,0.0,0.0,0.0,0.0,0.0,0.0,0.0,0.0,0.0,0.0,0.0,0.0,0.0,0.0,0.0,0.0,0.0,0.0,0.0,0.0,0.0,0.0,0.0,0.0,0.0,0.0,0.0,0.0,0.0,0.0,0.0,0.0,0.0,0.0,0.0,0.0,0.0,2.4132,2.4132,2.4132,2.4141,0.0,0.0,0.0,0.0,0.0,0.0,0.0,0.0,0.0,0.0,0.0,0.0,0.0,0.0,0.0,0.0,0.0,0.0,0.0,0.0,0.0,0.0,0.0,0.0,0.0,0.0,0.0,0.0,0.0,0.0,0.0,0.0,0.0,0.0,0.0,0.0,0.0,0.0,0.0,0.0,0.0,0.0,0.0,0.0,0.0,0.0,0.0,0.0,0.0,0.0,0.0,0.0,0.0,0.0,0.0,0.0,0.0,0.0,0.0,0.0,0.0,0.0,0.0,0.0,0.0,0.0,0.0,0.0,0.0,0.0,0.0,0.0,0.0,0.0,0.0,0.0,0.0,0.0,0.0,0.0,0.0,0.0,0.0,0.0,0.0,0.0,0.0,0.0,0.0,0.0,0.0,0.0,0.0,0.0,0.0,0.0,0.0,0.0,0.0,0.0,0.0,0.0,0.0,0.0,0.0,0.0,0.0,0.0,0.0,0.0,2.417,2.4199,2.4199,2.4199,2.4199,2.4199,0.0,0.0,0.0,0.0,0.0,0.0,0.0,0.0,0.0,0.0,0.0,0.0,0.0,0.0,0.0,0.0,0.0,0.0,0.0,0.0,0.0,0.0,0.0,0.0,0.0,0.0,0.0,0.0,0.0,0.0,0.0,0.0,0.0,0.0,0.0,0.0,0.0,0.0,0.0,0.0,0.0,0.0,0.0,0.0,0.0,0.0,0.0,0.0,0.0,0.0,0.0,0.0,0.0,0.0,0.0,0.0,0.0,0.0,0.0,0.0,0.0,0.0,0.0,0.0,0.0,0.0,0.0,0.0,0.0,0.0,0.0,0.0,0.0,0.0,0.0,0.0,0.0,0.0,0.0,0.0,0.0,0.0,0.0,0.0,0.0,0.0,0.0,0.0,0.0,0.0,0.0,0.0,0.0,0.0,0.0,0.0,0.0,0.0,0.0,0.0,0.0,0.0,0.0,0.0,0.0,0.0,0.0,0.0,2.419,2.419,2.4199,2.4199,2.4199,2.4199,0.0,0.0,0.0,0.0,0.0,0.0,0.0,0.0,0.0,0.0,0.0,0.0,0.0,0.0,0.0,0.0,0.0,0.0,0.0,0.0,0.0,0.0,0.0,0.0,0.0,0.0,0.0,0.0,0.0,0.0,0.0,0.0,0.0,0.0,0.0,0.0,0.0,0.0,0.0,0.0,0.0,0.0,0.0,0.0,0.0,0.0,0.0,0.0,0.0,0.0,0.0,0.0,0.0,0.0,0.0,0.0,0.0,0.0,0.0,0.0,0.0,0.0,0.0,0.0,0.0,0.0,0.0,0.0,0.0,0.0,0.0,0.0,0.0,0.0,0.0,0.0,0.0,0.0,0.0,0.0,0.0,0.0,0.0,0.0,0.0,0.0,0.0,0.0,0.0,0.0,0.0,0.0,0.0,0.0,0.0,0.0,0.0,0.0,0.0,0.0,0.0,0.0,0.0,0.0,0.0,0.0,0.0,0.0,0.0,2.4226,2.4199,2.4199,2.4199,2.4199,2.4199,0.0,0.0,0.0,0.0,0.0,0.0,0.0,0.0,0.0,0.0,0.0,0.0,0.0,0.0,0.0,0.0,0.0,0.0,0.0,0.0,0.0,0.0,0.0,0.0,0.0,0.0,0.0,0.0,0.0,0.0,0.0,0.0,0.0,0.0,0.0,0.0,0.0,0.0,0.0,0.0,0.0,0.0,0.0,0.0,0.0,0.0,0.0,0.0,0.0,0.0,0.0,0.0,0.0,0.0,0.0,0.0,0.0,0.0,0.0,0.0,0.0,0.0,0.0,0.0,0.0,0.0,0.0,0.0,0.0,0.0,0.0,0.0,0.0,0.0,0.0,0.0,0.0,0.0,0.0,0.0,0.0,0.0,0.0,0.0,0.0,0.0,0.0,0.0,0.0,0.0,0.0,0.0,0.0,0.0,0.0,0.0,0.0,0.0,0.0,0.0,0.0,0.0,0.0,0.0,0.0,0.0,0.0,0.0,0.0,2.4997,0.0,2.4997,2.4997,2.4997,2.485,0.0,0.0,0.0,0.0,0.0,0.0,0.0,0.0,0.0,0.0,0.0,0.0,0.0,0.0,0.0,0.0,0.0,0.0,0.0,0.0,0.0,0.0,0.0,0.0,0.0,0.0,0.0,0.0,0.0,0.0,0.0,0.0,0.0,0.0,0.0,0.0,0.0,0.0,0.0,0.0,0.0,0.0,0.0,0.0,0.0,0.0,0.0,0.0,0.0,0.0,0.0,0.0,0.0,0.0,0.0,0.0,0.0,0.0,0.0,0.0,0.0,0.0,0.0,0.0,0.0,0.0,0.0,0.0,0.0,0.0,0.0,0.0,0.0,0.0,0.0,0.0,0.0,0.0,0.0,0.0,0.0,0.0,0.0,0.0,0.0,0.0,0.0,0.0,0.0,0.0,0.0,0.0,0.0,0.0,0.0,0.0,0.0,0.0,0.0,0.0,0.0,0.0,0.0,0.0,0.0,0.0,0.0,0.0,2.6612,2.6565,2.6576,2.6502,2.6602,2.6539,2.6209,0.0,0.0,0.0,0.0,0.0,0.0,0.0,0.0,0.0,0.0,0.0,0.0,0.0,0.0,0.0,0.0,0.0,0.0,0.0,0.0,0.0,0.0,0.0,0.0,0.0,0.0,0.0,0.0,0.0,0.0,0.0,0.0,0.0,0.0,0.0,0.0,0.0,0.0,0.0,0.0,0.0,0.0,0.0,0.0,0.0,0.0,0.0,0.0,0.0,0.0,0.0,0.0,0.0,0.0,0.0,0.0,0.0,0.0,0.0,0.0,0.0,0.0,0.0,0.0,0.0,0.0,0.0,0.0,0.0,0.0,0.0,0.0,0.0,0.0,0.0,0.0,0.0,0.0,0.0,0.0,0.0,0.0,0.0,0.0,0.0,0.0,0.0,0.0,0.0,0.0,0.0,0.0,0.0,0.0,0.0,0.0,0.0,0.0,0.0,0.0,0.0,0.0,0.0,0.0,0.0,0.0,0.0,0.0,0.0,2.6649,2.6602,2.6602,2.6602,2.6602,2.6465,0.0,0.0,0.0,0.0,0.0,0.0,0.0,0.0,0.0,0.0,0.0,0.0,0.0,0.0,0.0,0.0,0.0,0.0,0.0,0.0,0.0,0.0,0.0,0.0,0.0,0.0,0.0,0.0,0.0,0.0,0.0,0.0,0.0,0.0,0.0,0.0,0.0,0.0,0.0,0.0,0.0,0.0,0.0,0.0,0.0,0.0,0.0,0.0,0.0,0.0,0.0,0.0,0.0,0.0,0.0,0.0,0.0,0.0,0.0,0.0,0.0,0.0,0.0,0.0,0.0,0.0,0.0,0.0,0.0,0.0,0.0,0.0,0.0,0.0,0.0,0.0,0.0,0.0,0.0,0.0,0.0,0.0,0.0,0.0,0.0,0.0,0.0,0.0,0.0,0.0,0.0,0.0,0.0,0.0,0.0,0.0,0.0,0.0,0.0,0.0,0.0,0.0,0.0,0.0,0.0,0.0,0.0,0.0,0.0,2.7556,2.7493,2.7482,2.7482,2.7482,2.7383,2.7053,0.0,0.0,0.0,0.0,0.0,0.0,0.0,0.0,0.0,0.0,0.0,0.0,0.0,0.0,0.0,0.0,0.0,0.0,0.0,0.0,0.0,0.0,0.0,0.0,0.0,0.0,0.0,0.0,0.0,0.0,0.0,0.0,0.0,0.0,0.0,0.0,0.0,0.0,0.0,0.0,0.0,0.0,0.0,0.0,0.0,0.0,0.0,0.0,0.0,0.0,0.0,0.0,0.0,0.0,0.0,0.0,0.0,0.0,0.0,0.0,0.0,0.0,0.0,0.0,0.0,0.0,0.0,0.0,0.0,0.0,0.0,0.0,0.0,0.0,0.0,0.0,0.0,0.0,0.0,0.0,0.0,0.0,0.0,0.0,0.0,0.0,0.0,0.0,0.0,0.0,0.0,0.0,0.0,0.0,0.0,0.0,0.0,0.0,0.0,0.0,0.0,0.0,0.0,0.0,0.0,0.0,0.0,0.0,2.8987,2.8987,2.895,2.895,2.895,2.862,0.0,0.0,0.0,0.0,0.0,0.0,0.0,0.0,0.0,0.0,0.0,0.0,0.0,0.0,0.0,0.0,0.0,0.0,0.0,0.0,0.0,0.0,0.0,0.0,0.0,0.0,0.0,0.0,0.0,0.0,0.0,0.0,0.0,0.0,0.0,0.0,0.0,0.0,0.0,0.0,0.0,0.0,0.0,0.0,0.0,0.0,0.0,0.0,0.0,0.0,0.0,0.0,0.0,0.0,0.0,0.0,0.0,0.0,0.0,0.0,0.0,0.0,0.0,0.0,0.0,0.0,0.0,0.0,0.0,0.0,0.0,0.0,0.0,0.0,0.0,0.0,0.0,0.0,0.0,0.0,0.0,0.0,0.0,0.0,0.0,0.0,0.0,0.0,0.0,0.0,0.0,0.0,0.0,0.0,0.0,0.0,0.0,0.0,0.0,0.0,0.0,0.0,0.0,0.0,0.0,0.0,0.0,0.0,0.0,2.8987,2.8987,2.8987,2.8987,2.8987,2.8913,0.0,0.0,0.0,0.0,0.0,0.0,0.0,0.0,0.0,0.0,0.0,0.0,0.0,0.0,0.0,0.0,0.0,0.0,0.0,0.0,0.0,0.0,0.0,0.0,0.0,0.0,0.0,0.0,0.0,0.0,0.0,0.0,0.0,0.0,0.0,0.0,0.0,0.0,0.0,0.0,0.0,0.0,0.0,0.0,0.0,0.0,0.0,0.0,0.0,0.0,0.0,0.0,0.0,0.0,0.0,0.0,0.0,0.0,0.0,0.0,0.0,0.0,0.0,0.0,0.0,0.0,0.0,0.0,0.0,0.0,0.0,0.0,0.0,0.0,0.0,0.0,0.0,0.0,0.0,0.0,0.0,0.0,0.0,0.0,0.0,0.0,0.0,0.0,0.0,0.0,0.0,0.0,0.0,0.0,0.0,0.0,0.0,0.0,0.0,0.0,0.0,0.0,0.0,0.0,0.0,0.0,0.0,0.0,2.8987,2.8987,2.8987,2.8987,2.8987,2.8987,2.9035,0.0,0.0,0.0,0.0,0.0,0.0,0.0,0.0,0.0,0.0,0.0,0.0,0.0,0.0,0.0,0.0,0.0,0.0,0.0,0.0,0.0,0.0,0.0,0.0,0.0,0.0,0.0,0.0,0.0,0.0,0.0,0.0,0.0,0.0,0.0,0.0,0.0,0.0,0.0,0.0,0.0,0.0,0.0,0.0,0.0,0.0,0.0,0.0,0.0,0.0,0.0,0.0,0.0,0.0,0.0,0.0,0.0,0.0,0.0,0.0,0.0,0.0,0.0,0.0,0.0,0.0,0.0,0.0,0.0,0.0,0.0,0.0,0.0,0.0,0.0,0.0,0.0,0.0,0.0,0.0,0.0,0.0,0.0,0.0,0.0,0.0,0.0,0.0,0.0,0.0,0.0,0.0,0.0,0.0,0.0,0.0,0.0,0.0,0.0,0.0,0.0,0.0,0.0,0.0,0.0,0.0,0.0,0.0,2.9133,2.9133,2.9023,2.8987,2.8987,2.8987,2.9058,0.0,0.0,0.0,0.0,0.0,0.0,0.0,0.0,0.0,0.0,0.0,0.0,0.0,0.0,0.0,0.0,0.0,0.0,0.0,0.0,0.0,0.0,0.0,0.0,0.0,0.0,0.0,0.0,0.0,0.0,0.0,0.0,0.0,0.0,0.0,0.0,0.0,0.0,0.0,0.0,0.0,0.0,0.0,0.0,0.0,0.0,0.0,0.0,0.0,0.0,0.0,0.0,0.0,0.0,0.0,0.0,0.0,0.0,0.0,0.0,0.0,0.0,0.0,0.0,0.0,0.0,0.0,0.0,0.0,0.0,0.0,0.0,0.0,0.0,0.0,0.0,0.0,0.0,0.0,0.0,0.0,0.0,0.0,0.0,0.0,0.0,0.0,0.0,0.0,0.0,0.0,0.0,0.0,0.0,0.0,0.0,0.0,0.0,0.0,0.0,0.0,0.0,0.0,0.0,0.0,0.0,0.0,0.0,2.9953,2.9941,2.9317,2.8987,2.8987,2.8987,2.901,0.0,0.0,0.0,0.0,0.0,0.0,0.0,0.0,0.0,0.0,0.0,0.0,0.0,0.0,0.0,0.0,0.0,0.0,0.0,0.0,0.0,0.0,0.0,0.0,0.0,0.0,0.0,0.0,0.0,0.0,0.0,0.0,0.0,0.0,0.0,0.0,0.0,0.0,0.0,0.0,0.0,0.0,0.0,0.0,0.0,0.0,0.0,0.0,3.0515,0.0,0.0,0.0,0.0,0.0,0.0,0.0,0.0,0.0,0.0,0.0,0.0,0.0,0.0,0.0,0.0,0.0,0.0,0.0,0.0,0.0,0.0,0.0,0.0,0.0,0.0,0.0,0.0,0.0,0.0,0.0,0.0,0.0,0.0,0.0,0.0,0.0,0.0,0.0,0.0,0.0,0.0,0.0,0.0,0.0,0.0,0.0,0.0,0.0,0.0,0.0,0.0,0.0,0.0,0.0,0.0,0.0,0.0,0.0,3.076,3.076,3.0356,3.0136,3.0136,3.0136,2.9816,0.0,0.0,0.0,0.0,0.0,0.0,0.0,0.0,0.0,0.0,0.0,0.0,0.0,0.0,0.0,0.0,0.0,0.0,0.0,0.0,0.0,0.0,0.0,0.0,0.0,0.0,0.0,0.0,0.0,0.0,0.0,0.0,0.0,0.0,0.0,0.0,0.0,0.0,0.0,0.0,0.0,0.0,0.0,0.0,0.0,0.0,0.0,0.0,0.0,0.0,0.0,0.0,0.0,0.0,0.0,0.0,0.0,0.0,0.0,0.0,0.0,0.0,0.0,0.0,0.0,0.0,0.0,0.0,0.0,0.0,0.0,0.0,0.0,0.0,0.0,0.0,0.0,0.0,0.0,0.0,0.0,0.0,0.0,0.0,0.0,0.0,0.0,0.0,0.0,0.0,0.0,0.0,0.0,0.0,0.0,0.0,0.0,0.0,0.0,0.0,0.0,0.0,0.0,0.0,0.0,0.0,0.0,3.1654,3.158,3.1568,3.1458,3.1384,3.1384,3.1384,3.0833,2.9621,0.0,0.0,0.0,0.0,0.0,0.0,0.0,0.0,0.0,0.0,0.0,0.0,0.0,0.0,0.0,0.0,0.0,0.0,0.0,0.0,0.0,0.0,0.0,0.0,0.0,0.0,0.0,0.0,0.0,0.0,0.0,0.0,0.0,0.0,0.0,0.0,0.0,0.0,3.0941,3.0969,0.0,0.0,0.0,0.0,0.0,0.0,0.0,0.0,3.16,0.0,0.0,0.0,0.0,0.0,0.0,0.0,0.0,0.0,0.0,0.0,0.0,0.0,0.0,0.0,0.0,0.0,0.0,0.0,0.0,0.0,0.0,0.0,0.0,0.0,0.0,0.0,0.0,0.0,0.0,0.0,0.0,0.0,0.0,0.0,0.0,0.0,0.0,0.0,0.0,0.0,0.0,0.0,0.0,0.0,0.0,0.0,0.0,0.0,0.0,0.0,0.0,0.0,0.0,0.0,0.0,3.3403,3.2742,3.2399,3.2399,3.1751,3.1384,3.1384,3.1384,3.1336,3.1198,0.0,0.0,0.0,0.0,0.0,0.0,0.0,0.0,0.0,0.0,0.0,0.0,0.0,0.0,0.0,0.0,0.0,0.0,0.0,0.0,0.0,0.0,0.0,0.0,0.0,0.0,0.0,0.0,0.0,0.0,0.0,0.0,0.0,0.0,0.0,0.0,0.0,0.0,0.0,3.2706,3.2687,0.0,0.0,0.0,0.0,0.0,0.0,0.0,0.0,3.284,0.0,0.0,0.0,0.0,0.0,0.0,0.0,0.0,0.0,0.0,0.0,0.0,0.0,0.0,0.0,0.0,0.0,0.0,0.0,0.0,0.0,0.0,0.0,0.0,0.0,0.0,0.0,0.0,0.0,0.0,0.0,0.0,0.0,0.0,0.0,0.0,0.0,0.0,0.0,0.0,0.0,0.0,0.0,0.0,0.0,0.0,0.0,0.0,0.0,0.0,0.0,0.0,0.0,0.0,0.0,3.377,3.3403,3.3206,3.322,3.2852,3.2632,3.2632,3.2632,3.2513,0.0,0.0,0.0,0.0,0.0,0.0,0.0,0.0,0.0,0.0,0.0,0.0,0.0,0.0,0.0,0.0,0.0,0.0,0.0,0.0,0.0,0.0,0.0,0.0,0.0,0.0,0.0,0.0,0.0,0.0,0.0,0.0,0.0,0.0,0.0,0.0,0.0,0.0,0.0,0.0,3.3097,3.3063,3.3063,0.0,0.0,0.0,0.0,0.0,0.0,3.3486,3.32,0.0,0.0,0.0,0.0,0.0,0.0,0.0,0.0,0.0,0.0,0.0,0.0,0.0,0.0,0.0,0.0,0.0,0.0,0.0,0.0,0.0,0.0,0.0,0.0,0.0,0.0,0.0,0.0,0.0,0.0,0.0,0.0,0.0,0.0,0.0,0.0,0.0,0.0,0.0,0.0,0.0,0.0,0.0,0.0,0.0,0.0,0.0,0.0,0.0,0.0,0.0,0.0,0.0,0.0,0.0,3.4064,3.4064,3.3954,3.3807,3.3807,3.3807,3.3807,3.3807,3.3579,0.0,0.0,0.0,0.0,0.0,0.0,0.0,0.0,0.0,0.0,0.0,0.0,0.0,0.0,0.0,0.0,0.0,0.0,0.0,0.0,0.0,0.0,0.0,0.0,0.0,0.0,0.0,0.0,0.0,0.0,0.0,0.0,0.0,0.0,0.0,0.0,0.0,0.0,0.0,0.0,0.0,3.36,3.3517,3.4163,0.0,0.0,0.0,0.0,3.4643,3.4105,0.0,0.0,0.0,0.0,0.0,0.0,0.0,0.0,0.0,0.0,0.0,0.0,0.0,0.0,0.0,0.0,0.0,0.0,0.0,0.0,0.0,0.0,0.0,0.0,0.0,0.0,0.0,0.0,0.0,0.0,0.0,0.0,0.0,0.0,0.0,0.0,0.0,0.0,0.0,0.0,0.0,0.0,0.0,0.0,0.0,0.0,0.0,0.0,0.0,0.0,0.0,0.0,0.0,0.0,0.0,0.0,3.4894,3.4857,3.4491,3.3844,3.3807,3.3807,3.3807,3.3807,3.3837,0.0,0.0,0.0,0.0,0.0,0.0,0.0,0.0,0.0,0.0,0.0,0.0,0.0,0.0,0.0,0.0,0.0,0.0,0.0,0.0,0.0,0.0,0.0,0.0,0.0,0.0,0.0,0.0,0.0,0.0,0.0,0.0,0.0,0.0,0.0,0.0,0.0,0.0,0.0,0.0,0.0,3.5314,3.5308,3.5397,3.5475,0.0,0.0,3.5481,3.5475,3.5403,0.0,0.0,0.0,0.0,0.0,0.0,0.0,0.0,0.0,0.0,0.0,0.0,0.0,0.0,0.0,0.0,0.0,0.0,0.0,0.0,0.0,0.0,0.0,0.0,0.0,0.0,0.0,0.0,0.0,0.0,0.0,0.0,0.0,0.0,0.0,0.0,0.0,0.0,0.0,0.0,0.0,0.0,0.0,0.0,0.0,0.0,0.0,0.0,0.0,0.0,0.0,0.0,0.0,0.0,0.0,3.6119,3.5752,3.5738,3.5569,3.5238,3.5202,3.4981,3.4491,3.4491,3.4325,0.0,0.0,0.0,0.0,0.0,0.0,0.0,0.0,0.0,0.0,0.0,0.0,0.0,0.0,0.0,0.0,0.0,0.0,0.0,0.0,0.0,0.0,0.0,0.0,0.0,0.0,0.0,0.0,0.0,0.0,0.0,0.0,0.0,0.0,0.0,0.0,0.0,0.0,0.0,0.0,0.0,0.0,3.6143,3.6234,0.0,0.0,0.0,3.6954,3.6913,0.0,0.0,0.0,0.0,0.0,0.0,0.0,0.0,0.0,0.0,0.0,0.0,0.0,0.0,0.0,0.0,0.0,0.0,0.0,0.0,0.0,0.0,0.0,0.0,0.0,0.0,0.0,0.0,0.0,0.0,0.0,0.0,0.0,0.0,0.0,0.0,0.0,0.0,0.0,0.0,0.0,0.0,0.0,0.0,0.0,0.0,0.0,0.0,0.0,0.0,0.0,0.0,0.0,0.0,0.0,0.0,0.0,3.6611,3.6611,3.6486,3.6303,3.6303,3.5973,3.5371,3.5334,0.0,0.0,0.0,0.0,0.0,0.0,0.0,0.0,0.0,0.0,0.0,0.0,0.0,0.0,0.0,0.0,0.0,0.0,0.0,0.0,0.0,0.0,0.0,0.0,0.0,0.0,0.0,3.4326,0.0,0.0,0.0,0.0,0.0,0.0,0.0,0.0,0.0,0.0,0.0,0.0,0.0,0.0,3.6205,3.6865,3.6957,3.7156,0.0,0.0,3.7924,3.787,3.7417,3.7031,0.0,0.0,0.0,0.0,0.0,0.0,0.0,0.0,0.0,0.0,0.0,0.0,0.0,0.0,0.0,0.0,0.0,0.0,0.0,0.0,0.0,0.0,0.0,0.0,0.0,0.0,0.0,0.0,0.0,0.0,0.0,0.0,0.0,0.0,0.0,0.0,0.0,0.0,0.0,0.0,0.0,0.0,0.0,0.0,0.0,0.0,0.0,0.0,0.0,0.0,0.0,0.0,0.0,0.0,3.8175,3.7456,3.7419,3.7052,3.634,3.6303,3.6266,3.6229,3.6193,3.6221,0.0,0.0,0.0,0.0,0.0,0.0,0.0,0.0,0.0,0.0,0.0,0.0,0.0,0.0,0.0,0.0,0.0,0.0,0.0,0.0,0.0,0.0,0.0,0.0,0.0,0.0,0.0,0.0,0.0,0.0,0.0,0.0,0.0,0.0,0.0,0.0,0.0,0.0,0.0,0.0,0.0,3.7551,3.7636,3.7636,3.7674,0.0,3.7712,3.7729,3.7802,3.7772,3.7729,3.7809,0.0,0.0,0.0,0.0,0.0,0.0,0.0,0.0,0.0,0.0,0.0,0.0,0.0,0.0,0.0,0.0,0.0,0.0,0.0,0.0,0.0,0.0,0.0,0.0,0.0,0.0,0.0,0.0,0.0,0.0,0.0,0.0,0.0,0.0,0.0,0.0,0.0,0.0,0.0,0.0,0.0,0.0,0.0,0.0,0.0,0.0,0.0,0.0,0.0,0.0,0.0,0.0,0.0,3.8542,3.8248,3.8248,3.8102,3.7808,3.7771,3.7551,3.7052,3.7052,3.6831,0.0,0.0,0.0,0.0,0.0,0.0,0.0,0.0,0.0,0.0,0.0,0.0,0.0,0.0,0.0,0.0,0.0,0.0,0.0,0.0,0.0,0.0,0.0,0.0,0.0,0.0,0.0,0.0,3.6835,3.6959,3.7251,0.0,0.0,0.0,0.0,0.0,0.0,0.0,0.0,0.0,0.0,3.7718,3.8232,3.8318,0.0,0.0,3.9127,3.9147,3.9195,3.8775,3.846,3.8485,3.81,0.0,0.0,0.0,0.0,0.0,0.0,0.0,0.0,0.0,0.0,0.0,0.0,0.0,0.0,0.0,0.0,0.0,0.0,0.0,0.0,0.0,0.0,0.0,0.0,0.0,0.0,0.0,0.0,0.0,0.0,0.0,0.0,0.0,0.0,0.0,0.0,0.0,0.0,0.0,0.0,0.0,0.0,0.0,0.0,0.0,0.0,0.0,0.0,0.0,0.0,0.0,0.0,3.9423,3.9423,3.9203,3.9056,3.9056,3.8836,3.8432,3.7896,3.786,3.7603,0.0,0.0,0.0,0.0,0.0,0.0,0.0,0.0,0.0,0.0,0.0,0.0,0.0,0.0,0.0,0.0,0.0,0.0,0.0,0.0,0.0,0.0,0.0,0.0,0.0,0.0,0.0,0.0,3.7674,3.781,3.7763,0.0,0.0,0.0,0.0,0.0,0.0,0.0,0.0,0.0,0.0,3.825,3.8828,3.8915,3.9115,3.9709,3.9796,3.9856,3.9911,3.9402,3.9054,3.9105,0.0,0.0,0.0,0.0,0.0,0.0,0.0,0.0,0.0,0.0,0.0,0.0,0.0,0.0,0.0,0.0,0.0,0.0,0.0,0.0,0.0,0.0,0.0,0.0,0.0,0.0,0.0,4.3461,0.0,0.0,4.3497,0.0,0.0,0.0,0.0,0.0,0.0,0.0,0.0,0.0,0.0,0.0,0.0,0.0,0.0,0.0,0.0,0.0,0.0,0.0,0.0,0.0,0.0,4.1022,4.1022,4.0267,3.99,3.9863,3.9129,3.8726,3.8726,3.8689,3.8689,3.8615,0.0,0.0,0.0,0.0,0.0,0.0,0.0,0.0,0.0,0.0,0.0,0.0,0.0,0.0,0.0,0.0,0.0,0.0,0.0,0.0,0.0,0.0,0.0,0.0,0.0,0.0,3.7925,3.8736,3.9199,0.0,0.0,0.0,0.0,0.0,0.0,0.0,0.0,0.0,0.0,3.9439,3.9414,3.9389,3.9364,3.9389,3.9375,3.9413,3.9477,3.9552,3.9575,3.9635,0.0,0.0,0.0,0.0,0.0,0.0,0.0,0.0,0.0,0.0,0.0,0.0,0.0,0.0,0.0,0.0,0.0,0.0,0.0,0.0,0.0,0.0,0.0,0.0,0.0,0.0,0.0,4.3497,4.3497,0.0,0.0,0.0,0.0,0.0,0.0,0.0,0.0,0.0,0.0,0.0,4.3497,4.3497,0.0,0.0,0.0,0.0,0.0,0.0,0.0,0.0,0.0,0.0,0.0,0.0,4.1095,4.1095,4.0838,4.0708,4.0708,4.0451,4.0288,4.0288,4.0288,4.0047,3.9496,0.0,0.0,0.0,0.0,0.0,0.0,0.0,0.0,0.0,0.0,0.0,0.0,0.0,0.0,0.0,0.0,0.0,0.0,0.0,0.0,0.0,0.0,0.0,0.0,0.0,3.8289,0.0,0.0,0.0,0.0,0.0,0.0,0.0,0.0,0.0,0.0,0.0,3.905,3.9261,3.9259,3.9405,3.9937,3.9998,4.0184,0.0,0.0,0.0,0.0,0.0,0.0,0.0,0.0,0.0,0.0,0.0,0.0,0.0,0.0,3.8984,3.806,3.7901,3.7932,3.7947,0.0,0.0,0.0,0.0,0.0,0.0,0.0,0.0,0.0,0.0,0.0,0.0,0.0,0.0,4.3497,0.0,4.3497,0.0,0.0,0.0,0.0,0.0,0.0,0.0,0.0,4.3497,4.3497,4.3497,4.3497,4.3497,0.0,4.3497,4.3497,0.0,0.0,0.0,0.0,0.0,0.0,0.0,0.0,4.1919,4.1919,4.1662,4.1499,4.1499,4.1242,4.1095,4.1095,4.1095,4.0838,4.0341,3.9827,3.9533,0.0,0.0,0.0,0.0,0.0,0.0,0.0,0.0,0.0,0.0,0.0,0.0,0.0,0.0,0.0,0.0,0.0,0.0,0.0,0.0,0.0,0.0,0.0,3.9651,0.0,0.0,0.0,0.0,0.0,0.0,0.0,0.0,0.0,4.0095,3.9979,3.9908,3.9946,3.9917,4.0022,4.0563,0.0,0.0,0.0,0.0,0.0,0.0,0.0,4.1534,4.1673,4.1636,4.1464,4.1054,4.0598,4.0314,4.0428,0.0,0.0,3.8823,3.862,3.8618,3.8695,3.8753,3.8792,3.8816,3.8854,3.8914,0.0,0.0,0.0,0.0,0.0,0.0,0.0,0.0,4.3497,4.3497,0.0,4.3497,0.0,0.0,0.0,0.0,0.0,4.3497,0.0,0.0,4.3497,4.3497,4.3497,4.3497,4.3497,4.3497,4.3497,4.3497,4.3497,4.3497,0.0,0.0,0.0,0.0,0.0,0.0,4.3497,4.3424,4.2727,4.2323,4.2323,4.1572,4.1205,4.1205,4.1168,4.1168,4.1132,4.1058,4.1095,4.1095,4.1058,0.0,0.0,0.0,0.0,0.0,0.0,0.0,0.0,0.0,0.0,0.0,0.0,0.0,0.0,0.0,0.0,0.0,0.0,0.0,0.0,4.0634,0.0,0.0,0.0,0.0,0.0,0.0,0.0,0.0,0.0,0.0,4.1388,4.1314,4.1298,4.1261,0.0,0.0,0.0,0.0,4.1245,4.1185,4.125,4.1314,4.1314,4.1378,4.1409,4.1425,0.0,0.0,4.1667,4.1623,4.1615,4.1829,4.1809,4.1505,4.0344,4.0165,4.0186,4.0234,4.0329,4.0375,4.0384,4.0419,4.0483,4.3497,0.0,0.0,0.0,0.0,4.3497,4.3497,4.3497,4.3497,4.3497,4.3497,4.3497,0.0,0.0,0.0,0.0,0.0,0.0,4.3497,4.3497,4.3497,4.3497,4.3497,4.3497,4.3497,4.3497,4.3497,4.3497,4.3497,4.3497,4.3497,4.3497,0.0,0.0,0.0,0.0,4.3497,4.3478,4.3277,4.313,4.3147,4.291,4.28,4.28,4.2249,4.1956,4.1956,4.1425,4.1095,4.1095,4.1095,0.0,0.0,0.0,0.0,0.0,0.0,0.0,0.0,0.0,0.0,0.0,0.0,0.0,0.0,0.0,0.0,0.0,0.0,0.0,4.0744,4.0965,4.1111,0.0,0.0,0.0,0.0,0.0,0.0,0.0,0.0,0.0,4.2757,4.1887,4.1235,0.0,0.0,4.1344,4.1915,4.1989,4.2209,4.2727,4.2834,0.0,4.2918,4.2884,4.2901,4.2934,4.2488,4.2115,4.22,4.1714,4.1422,4.1557,4.1615,4.1581,4.1402,4.148,4.1609,4.1748,4.1846,4.1958,4.193,4.199,4.2011,4.3497,4.3497,4.3497,4.3497,4.3497,4.3497,4.3497,4.3497,4.3497,4.3497,4.3497,4.3497,4.3681,4.3975,4.4322,0.0,0.0,0.0,4.4452,4.4452,4.4452,4.4452,4.4452,4.4415,4.4452,4.4452,4.4415,4.4452,4.4415,4.4121,4.3975,4.3975,0.0,0.0,4.3497,4.3497,4.3497,4.3497,4.3497,4.3497,4.3497,4.3497,4.3497,4.3461,4.3037,4.2763,4.2763,4.2323,4.2029,4.2066,4.2066,4.2029,0.0,0.0,0.0,0.0,0.0,0.0,0.0,0.0,0.0,0.0,0.0,4.1095,4.1095,0.0,0.0,0.0,4.1405,4.1589,4.1589,4.1882,0.0,0.0,0.0,0.0,0.0,0.0,0.0,4.2607,4.2643,4.2844,4.3372,4.2653,4.2062,4.2112,4.2099,4.2249,4.269,0.0,4.2947,4.3441,4.3497,4.3515,4.3566,4.3495,4.3515,4.3566,4.3162,4.2848,4.2881,4.2472,4.2242,4.2337,4.2421,4.2498,4.262,4.2772,4.2704,4.2347,4.2342,4.2424,4.2435,4.2525,4.2563,4.3698,4.3698,4.3681,4.3608,4.3515,4.3588,4.3625,4.3625,4.3662,4.3698,4.3698,4.3698,4.4085,4.4838,4.559,0.0,4.5883,4.5883,4.5883,4.5883,4.5883,4.5883,4.5883,4.5883,4.5883,4.5883,4.5883,4.5883,4.5847,4.5149,4.4782,4.4782,4.4048,4.3625,4.3515,4.3497,4.3497,4.3497,4.3497,4.3497,4.3497,4.3497,4.3497,4.3497,4.3497,4.3497,4.3497,4.3497,4.3497,4.3497,4.3497,4.3497,4.3497,0.0,0.0,0.0,0.0,0.0,0.0,0.0,0.0,0.0,0.0,0.0,0.0,0.0,0.0,0.0,4.1956,0.0,4.2379,4.3057,0.0,0.0,0.0,4.3359,4.3196,4.3196,4.3196,4.3196,0.0,0.0,4.3376,4.3394,4.3375,4.348,4.3497,4.3497,4.3497,4.3443,4.348,4.3426,4.348,4.3497,4.3497,4.3497,4.3515,4.3515,4.3497,4.3495,4.3526,4.3526,4.3614,4.3644,4.3734,4.3783,4.3865,4.3786,4.3509,4.2408,4.2333,4.2435,4.2486,4.261,4.2695,4.5333,4.5333,4.5333,4.4635,4.3534,4.4158,4.4415,4.4488,4.5039,4.5333,4.5333,4.5333,4.5443,4.5626,4.581,4.5883,4.5883,4.5883,4.5883,4.5883,4.5883,4.5883,4.5883,4.5883,4.5883,4.5883,4.5883,4.5883,4.5883,4.57,4.5626,4.5626,4.5406,4.4709,4.3534,4.3497,4.3497,4.3497,4.3497,4.3497,4.3497,4.3497,4.3497,4.3497,4.3497,4.3497,4.3497,4.3428,4.3429,4.3429,4.3429,4.3429,4.3447,4.3463,0.0,0.0,0.0,0.0,0.0,0.0,0.0,0.0,0.0,4.291,4.291,0.0,4.2947,0.0,4.3094,4.3187,4.3154,4.3283,0.0,0.0,4.3251,4.3214,4.3141,4.3141,4.3141,4.3141,4.3123,4.3178,4.3233,4.3251,4.3251,4.3286,4.334,4.3447,4.3393,4.334,4.3269,4.3286,4.3358,4.3429,4.3447,4.3463,4.3497,4.3497,4.3497,4.3515,4.3532,4.3532,4.3549,4.3566,4.3617,4.3651,4.3647,4.3771,4.3742,4.3447,4.358,4.3746,4.3854,4.3922,4.3976,4.5883,4.5883,4.5883,4.5369,4.4599,4.5039,4.5205,4.5259,4.57,4.5883,4.592,4.6287,4.6415,4.6471,4.6801,4.6985,4.6985,4.6985,4.6985,4.6985,4.6948,4.6948,4.6985,4.6985,4.6985,4.6985,4.6985,4.6948,4.6948,4.6617,4.6415,4.6434,4.6067,4.5443,4.4599,4.4562,4.4562,4.4562,4.4562,4.458,4.4562,4.458,4.4415,4.4048,4.4048,4.3847,4.3482,4.3429,4.3376,4.3304,4.3286,4.3359,4.3394,4.3777,4.383,0.0,0.0,0.0,0.0,0.0,0.0,0.0,0.0,0.0,0.0,0.0,4.3428,4.3375,4.3375,4.3358,4.3341,4.3251,4.3196,4.305,4.305,4.2975,4.2917,4.2861,4.2898,4.2898,4.2898,4.2899,4.2994,4.3012,4.3031,4.305,4.3105,4.316,4.3269,4.3251,4.3214,4.3214,4.3251,4.3322,4.3394,4.3445,4.3497,4.3497,4.3497,4.3497,4.3497,4.3497,4.3497,4.3515,4.3549,4.3566,4.3566,4.36,4.3651,4.3718,4.3812,4.3986,4.4147,4.4237,4.4296,4.6434,4.6544,4.6544,4.6544,4.6507,4.6544,4.6361,4.6067,4.6177,4.6214,4.625,4.6948,4.7296,4.748,4.8159,4.8526,4.8636,4.8636,4.8636,4.8636,4.8636,4.8617,4.8636,4.8636,4.8636,4.8636,4.8617,4.8563,4.8453,4.7755,4.7369,4.7223,4.6581,4.6214,4.6214,4.6214,4.6104,4.5883,4.5883,4.5883,4.5883,4.5883,4.5553,4.4929,4.4838,4.4509,4.3706,4.3633,4.3561,4.3414,4.3414,4.3451,4.3579,4.4309,4.4382,0.0,4.4399,0.0,0.0,0.0,0.0,0.0,0.0,0.0,0.0,4.3359,4.3305,4.3178,4.3178,4.316,4.316,4.3104,4.2975,4.288,4.2785,4.2688,4.255,4.255,4.255,4.255,4.255,4.2589,4.2707,4.2763,4.2746,4.2768,4.2765,4.2876,4.3176,4.3159,4.3105,4.3142,4.316,4.3196,4.3322,4.3428,4.348,4.348,4.3497,4.3497,4.3497,4.3497,4.3497,4.3497,4.3515,4.3515,4.3497,4.3515,4.3532,4.3583,4.3617,4.3684,4.3849,4.3961,4.3971,4.926,4.9884,4.9884,4.9884,4.9884,4.9884,4.8746,4.6929,4.7572,4.7829,4.7865,4.8012,4.8489,4.9133,4.928,4.9701,5.0325,5.0325,5.0325,5.0325,5.0325,5.0325,5.0325,5.0325,5.0325,5.0325,5.0325,4.9994,4.9353,4.9187,4.8746,4.8067,4.7902,4.7865,4.7865,0.0,0.0,0.0,4.5883,4.5883,4.5883,4.5883,4.581,4.5663,4.5627,0.0,4.5203,4.4917,4.4718,4.4597,4.4597,0.0,0.0,0.0,0.0,0.0,0.0,0.0,0.0,0.0,0.0,0.0,4.3821,4.3609,4.3214,4.305,4.3012,4.2957,4.2957,4.292,4.2861,4.2842,4.2746,4.2514,4.2474,4.243,4.2246,4.2205,4.2205,4.2205,4.2205,4.2267,4.244,4.2389,4.2425,4.2481,4.2409,4.266,4.3289,4.3005,4.2763,4.2727,4.2989,4.3086,4.3214,4.3395,4.3522,4.3447,4.3463,4.3534,4.3571,4.3571,4.3534,4.3571,4.3497,4.3534,4.3534,4.3497,4.3625,4.3532,4.3569,4.3583,4.3788,4.3837,4.3853,5.0435,5.0802,5.0802,5.0802,0.0,5.0802,5.0105,4.8947,4.937,4.9554,4.9517,4.9554,4.9754,5.0118,5.0118,5.0297,5.0639,5.0602,5.0602,5.0602,5.0602,5.0602,5.0602,5.0602,5.0623,5.0684,5.0684,5.0521,5.0215,5.0178,4.9958,4.9554,4.9554,4.9517,4.9517,4.915,4.8343,4.7095,4.7095,4.7095,4.7095,4.7095,4.6874,4.647,4.6413,0.0,0.0,0.0,0.0,0.0,0.0,0.0,0.0,4.5285,0.0,4.5142,4.5488,4.5482,4.506,4.4988,4.4746,4.4205,4.4007,4.3626,4.2818,4.2688,4.2629,4.2629,4.2593,4.2609,4.255,4.249,4.2532,4.2703,4.269,4.2711,4.2948,4.301,4.2975,4.2975,4.2975,4.2997,4.3098,4.3098,4.3098,4.3098,4.3098,4.3205,4.351,4.3294,4.313,4.3586,4.38,4.398,4.4174,4.4307,4.4381,4.4473,4.4565,4.4637,4.4655,4.4654,4.4672,4.4709,4.4672,4.4672,4.4672,4.4672,4.4672,4.469,4.469,4.456,4.4316,4.3928,4.3651,5.1096,5.1242,5.1206,5.1206,5.1242,5.1185,5.1202,5.1145,0.0,0.0,0.0,5.0741,5.0774,5.0764,5.0764,5.079,5.0794,5.0794,5.0772,5.0751,5.0751,5.0772,5.0794,5.0794,5.0858,5.0984,5.0984,5.0989,5.0925,5.0961,5.0872,5.0782,5.0762,5.0782,5.0765,5.0141,4.9444,4.8783,4.8453,4.8306,4.8306,4.8306,4.7955,4.7236,4.718,4.6696,4.5723,4.556,4.5315,4.5078,4.4969,4.4867,4.4969,4.5584,4.5721,4.5215,4.5738,4.5787,4.5049,4.4955,4.4818,4.4511,4.4119,4.3553,4.2695,4.2617,4.259,4.259,4.259,4.259,4.2554,4.247,4.2646,4.3187,4.3132,4.3265,4.3746,4.3828,4.3757,4.378,4.371,4.378,4.3687,4.3687,4.3757,4.3722,4.3617,4.3827,4.3956,4.3703,4.3736,4.4378,4.4542,4.4854,4.5132,4.52,4.5372,4.5416,4.5567,4.5716,4.5754,4.5828,4.5902,4.5737,4.5865,4.5847,4.5883,4.5773,4.5883,4.5883,4.5883,4.57,4.5076,4.4378,4.3936,5.2234,5.2894,5.2873,5.2894,5.2837,5.2752,5.2645,5.2412,5.1167,5.0623,5.0623,5.0519,5.0821,5.1441,5.1441,5.1741,5.2286,5.2286,5.2241,5.2127,5.2127,5.2173,5.2286,5.2286,5.2353,5.2477,5.2477,5.2134,5.1536,5.1463,5.1198,5.0696,5.0623,5.07,5.0782,5.0692,5.0582,5.0435,4.904,4.8306,4.8306,4.8306,4.8212,4.8041,4.7926,4.7652,4.719,4.6886,4.655,4.62,4.6046,4.5925,4.5828,4.6031,4.6103,4.6022,4.6128,4.6103,4.5974,4.5974,4.5644,4.4879,4.3972,4.345,4.3652,4.3698,4.3675,4.364,4.3604,4.3675,4.3675,4.3581,4.3547,4.3605,4.3617,4.358,4.3635,4.3635,4.3621,4.3523,4.3395,4.338,4.3375,4.335,4.3385,4.3281,4.3514,4.3548,4.4173,4.4178,4.4105,4.4263,4.4498,4.4671,4.5,4.5045,4.5296,4.5329,4.5537,4.5688,4.5821,4.5916,4.6011,4.5883,4.6048,4.6012,4.5993,4.5883,4.603,4.6067,4.6104,4.5957,4.5773,4.5553,4.5094,5.2858,5.3167,5.3124,5.3082,5.3082,5.2937,5.2806,5.2644,5.193,5.1646,5.1653,5.161,5.1718,5.1991,5.1969,5.2059,5.2209,5.2233,5.2162,5.2042,5.209,5.2162,5.2209,5.2304,5.2397,5.2549,5.2513,5.24,5.2148,5.2134,5.1996,5.1776,5.1776,5.1819,5.1862,5.1459,5.1282,5.1323,5.0211,4.9664,4.9664,4.9568,4.9488,4.9403,4.9237,4.8981,4.8592,4.8293,4.7961,4.7533,4.7417,4.7264,4.7056,4.7082,4.7082,4.6969,4.6969,4.6969,4.6969,4.689,4.6672,4.6307,4.575,4.549,4.564,4.4306,4.3468,4.3468,4.3468,4.3468,4.3468,4.3468,4.3558,4.3825,4.386,4.3982,4.426,4.4303,4.4277,4.4225,4.4259,4.4199,4.4155,4.4121,4.4121,4.4121,4.4121,4.4318,4.4741,4.4724,4.4809,4.5115,4.5329,4.5551,4.5721,4.5958,4.6191,4.632,4.6431,4.6576,4.6715,4.6819,4.6917,4.707,4.711,4.7148,4.7149,4.7205,4.7205,4.7205,4.7205,4.7095,4.6672,4.625,4.5626,5.3146,5.3124,5.3017,5.2915,5.2886,5.2739,5.2604,5.2467,5.2351,5.2327,5.2315,5.2384,5.2351,5.2162,5.2138,5.2054,5.1833,5.1783,5.1672,5.1632,5.1683,5.1733,5.1808,5.1932,5.2054,5.2138,5.2198,5.228,5.2408,5.249,5.2581,5.2717,5.2739,5.2761,5.2806,5.2186,5.1937,5.1987,5.1522,5.1108,5.0762,5.0623,5.0462,5.0329,5.0156,4.9888,4.946,4.9197,4.8876,4.8495,4.8286,4.8047,4.7837,4.7755,4.7665,4.7554,4.7492,4.7492,4.7492,4.7442,4.7358,4.7358,4.7244,4.7158,4.6954,4.5213,4.3941,4.4027,4.4156,4.4122,4.4191,4.4122,4.4207,4.4651,4.4719,4.5001,4.5398,4.5507,4.5473,4.5446,4.548,4.5446,4.5425,4.5425,4.5425,4.5391,4.5391,4.5425,4.548,4.5528,4.5799,4.6092,4.6225,4.6098,4.6447,4.6649,4.6799,4.7043,4.7173,4.7277,4.7406,4.7648,4.7793,4.7882,4.8055,4.8041,4.8192,4.8231,4.8194,4.8103,4.8122,4.7993,4.7443,4.6985,4.6287,5.3002,5.298,5.285,5.2731,5.2526,5.241,5.2222,5.2016,5.1956,5.1697,5.1505,5.1772,5.1918,5.1747,5.1794,5.1729,5.1576,5.1367,5.135,5.1395,5.122,5.1298,5.1576,5.1566,5.1632,5.1783,5.1918,5.1967,5.2005,5.2126,5.2269,5.2503,5.2581,5.2658,5.2725,5.271,5.2674,5.2696,5.2645,5.198,5.0712,5.0498,5.0329,5.0148,5.014,4.9843,4.9424,4.905,4.8725,4.8339,4.8008,4.7707,4.7573,4.7392,4.7278,4.7278,4.7278,4.7244,4.7278,4.7216,4.7284,4.7216,4.7174,4.7087,4.7087,4.6695,4.6549,4.6647,4.6766,4.6595,4.68,4.6697,4.6532,4.6538,4.6641,4.6942,4.6846,4.7011,4.6954,4.681,4.664,4.6753,4.653,4.6467,4.6506,4.6433,4.6394,4.6457,4.6544,4.6572,4.6692,4.6803,4.6427,4.6028,4.6195,4.6301,4.6707,4.6779,4.6918,4.7244,4.7474,4.7681,4.7756,4.8176,4.8109,4.8324,4.8331,4.8207,4.8356,4.8598,4.8544,4.8306,4.8196,4.8012,4.7498,5.2828,5.2761,5.2686,5.2457,5.2186,5.2545,5.2502,5.2242,5.2643,5.2581,5.2255,5.2427,5.2262,5.19,5.2324,5.2455,5.2318,5.2227,5.2144,5.2124,5.2159,5.2207,5.2318,5.24,5.2324,5.2033,5.205,5.1967,5.1754,5.1882,5.2029,5.215,5.2233,5.2327,5.2374,5.2374,5.2421,5.249,5.2421,5.2118,5.1687,5.1637,5.1592,5.1516,5.1202,5.0855,5.0449,5.0178,4.9775,4.932,4.9067,4.8839,4.8523,4.843,4.8341,4.8252,4.8252,4.8252,4.8252,4.8286,4.8252,4.8252,4.8226,4.8196,4.8196,4.8135,4.8165,4.8154,4.7471,4.6961,4.7024,4.699,4.6927,4.699,4.6956,4.699,4.6961,4.699,4.6932,4.6903,4.6874,4.6874,4.6815,4.6786,4.6786,4.6786,4.6786,4.6917,4.6908,4.6874,4.6961,4.6975,4.6719,4.6694,4.6888,4.7213,4.742,4.7598,4.7823,4.8043,4.8117,4.8424,4.869,4.8753,4.8924,4.9153,4.944,4.9533,4.9634,4.9548,4.9241,4.9096,4.904,4.8673,4.8012,5.2581,5.2503,5.2497,5.246,5.2386,5.286,5.2874,5.2596,5.3042,5.3063,5.2753,5.2874,5.2665,5.2335,5.2729,5.2834,5.2724,5.2665,5.2636,5.2547,5.2606,5.266,5.2689,5.2834,5.2669,5.2327,5.234,5.2251,5.2015,5.1948,5.2029,5.2069,5.199,5.198,5.2005,5.2005,5.2054,5.2114,5.2054,5.2054,5.2114,5.2138,5.2198,5.2222,5.1822,5.1408,5.1123,5.0803,5.0425,4.9942,4.9796,4.956,4.9229,4.9168,4.9107,4.9049,4.9018,4.9018,4.9018,4.9018,4.9018,4.9018,4.9018,4.9018,4.9018,4.9018,4.9018,4.8917,4.8003,4.7462,4.7394,4.7394,4.7394,4.7394,4.7394,4.7394,4.7428,4.7394,4.7458,4.7394,4.756,4.7394,4.7394,4.7462,4.7496,4.7496,4.7462,4.7394,4.7394,4.7462,4.7522,4.7543,4.7573,4.7544,4.7614,4.7617,4.7974,4.8135,4.8234,4.8432,4.8725,4.8976,4.9245,4.8994,4.9644,4.9965,4.9887,5.0189,5.0576,5.0492,5.0244,4.9921,4.9921,4.937,4.9114,5.2209,5.2186,5.2457,5.291,5.3431,5.3329,5.3106,5.2857,5.2782,5.2518,5.2455,5.2888,5.2975,5.2775,5.2628,5.2403,5.2252,5.22,5.2234,5.2326,5.2135,5.21,5.2218,5.2369,5.2458,5.2483,5.2712,5.293,5.307,5.2498,5.2342,5.251,5.1967,5.1653,5.179,5.1851,5.1769,5.1851,5.1851,5.1804,5.1779,5.1479,5.1541,5.179,5.1383,5.1096,5.0803,5.0453,5.0114,4.9913,4.95,4.9229,4.9168,4.9111,4.9052,4.9086,4.9086,4.9052,4.912,4.9154,4.912,4.9086,4.9187,4.9086,4.9221,4.9221,4.9221,4.9052,4.9052,4.8917,4.8883,4.8714,4.8714,4.8748,4.8815,4.8781,4.8815,4.868,4.8883,4.8815,4.8714,4.8646,4.8781,4.8917,4.8748,4.8748,4.8815,4.8748,4.868,4.8748,4.8748,4.8744,4.8677,4.8531,4.7534,4.77,4.7801,4.8038,4.8459,4.8336,4.8435,4.8624,4.8947,4.923,4.9662,4.9959,5.0064,5.0286,5.0583,5.0675,5.0826,5.0725,5.0688,5.0729,5.0435,5.2784,5.2989,5.2952,5.2986,5.3127,5.3474,5.342,5.3221,5.3487,5.3507,5.3386,5.3597,5.357,5.3374,5.3263,5.3288,5.332,5.3257,5.3288,5.332,5.3288,5.3288,5.332,5.3384,5.3204,5.2919,5.303,5.3058,5.2898,5.2698,5.2706,5.2783,5.2654,5.256,5.2588,5.2588,5.2588,5.2552,5.2588,5.2588,5.2552,5.2388,5.2368,5.2408,5.1411,5.0694,5.0425,5.0171,4.982,4.9471,4.929,4.9168,4.9145,4.9489,4.9932,5.0371,5.0439,5.0405,5.0439,5.0405,5.0439,5.0407,5.0405,5.0371,5.0407,5.0439,5.0405,5.0373,5.0405,5.0405,5.0236,4.9593,4.9018,4.9018,4.9018,4.9052,4.9018,4.9018,4.9018,4.9018,4.9018,4.9018,4.9052,4.9018,4.9018,4.9018,4.9018,4.9018,4.9018,4.9018,4.9018,4.9018,4.8984,4.888,4.8531,4.8477,4.8655,4.886,4.9097,4.9234,4.9326,4.9552,4.9881,4.9995,5.0191,5.0456,5.0797,5.1207,5.1366,5.161,5.1731,5.1428,5.1449,5.1364,5.1075,5.3164,5.3577,5.3363,5.33,5.3465,5.3766,5.3763,5.3582,5.3903,5.4013,5.3915,5.3849,5.375,5.3651,5.3651,5.3684,5.3816,5.3816,5.3816,5.385,5.3816,5.385,5.385,5.3882,5.3674,5.3361,5.345,5.3394,5.319,5.3093,5.3072,5.3131,5.3038,5.2956,5.2984,5.2956,5.2984,5.2956,5.2927,5.2863,5.2869,5.266,5.2572,5.2433,5.1535,5.0957,5.0812,5.0577,5.0279,4.9974,4.9882,4.9788,4.9796,5.0202,5.0676,5.115,5.1217,5.1217,5.1217,5.1217,5.1185,5.1185,5.1217,5.1217,5.1217,5.1217,5.1217,5.1217,5.1217,5.1217,5.1048,5.0304,4.9729,4.9729,4.9695,4.9729,4.9729,4.9763,4.9763,4.9763,4.956,4.9424,4.9323,4.912,4.9052,4.9018,4.9018,4.9018,4.9018,4.9018,4.9018,4.9018,4.9018,4.9018,4.8812,4.8836,4.8991,4.9206,4.9257,4.9576,4.9854,5.0165,5.0418,5.0612,5.0884,5.1228,5.1622,5.2078,5.2351,5.259,5.2455,5.2047,5.1987,5.1909,5.1768,5.3317,5.3887,5.3723,5.3891,5.4253,5.4164,5.4074,5.3912,5.3782,5.3717,5.3684,5.3584,5.3551,5.3518,5.3551,5.3518,5.3551,5.3585,5.3551,5.3551,5.3551,5.3551,5.3551,5.3685,5.3683,5.3648,5.3881,5.4009,5.3997,5.357,5.3383,5.3463,5.3068,5.2919,5.277,5.2879,5.281,5.2815,5.2731,5.2572,5.2403,5.2299,5.2211,5.2111,5.1884,5.1912,5.2157,5.1688,5.1301,5.1337,5.1178,5.1183,5.1116,5.1217,5.1251,5.1354,5.132,5.1319,5.132,5.142,5.1488,5.1488,5.1352,5.1455,5.1555,5.1488,5.1488,5.1522,5.1454,5.1386,5.142,5.1286,5.115,5.1117,5.0947,5.0914,5.1016,5.115,5.1183,5.098,5.0473,5.0135,4.9965,4.9661,4.9357,4.9323,4.9289,4.9323,4.939,4.939,4.9154,4.9154,4.939,4.9593,4.9323,4.9052,4.9178,4.927,4.9226,4.935,4.953,4.9825,5.0051,5.025,5.064,5.0991,5.1357,5.1797,5.2102,5.2291,5.2309,5.2453,5.2382,5.2346,5.2657,5.3456,5.4077,5.3925,5.3967,5.4143,5.3948,5.3815,5.3783,5.3651,5.3551,5.3551,5.3551,5.3518,5.3518,5.3518,5.3518,5.3518,5.3518,5.3518,5.3518,5.3518,5.3518,5.3518,5.3551,5.3618,5.3717,5.375,5.3882,5.3977,5.3836,5.3832,5.3827,5.3653,5.3616,5.3579,5.3616,5.3616,5.3584,5.3518,5.3487,5.3487,5.3391,5.3327,5.3327,5.3166,5.3134,5.3164,5.2147,5.1444,5.1348,5.1249,5.1454,5.186,5.1961,5.2232,5.2706,5.2807,5.2773,5.2773,5.2739,5.2739,5.2773,5.2773,5.2773,5.2807,5.2739,5.2739,5.2773,5.2807,5.2807,5.2807,5.2807,5.2334,5.1286,5.1217,5.1319,5.1352,5.1319,5.1217,5.1217,5.1014,5.0879,5.0845,5.0541,5.0405,5.0405,5.0439,5.0439,5.0473,5.0371,5.0541,5.0509,5.0509,5.0338,5.0168,5.0067,5.0132,4.9992,4.9752,4.9474,4.9559,4.9641,4.9845,4.9999,5.0363,5.0721,5.1123,5.1434,5.1747,5.2078,5.2221,5.2408,5.2604,5.2798,5.2952,5.3697,5.4108,5.3913,5.3882,5.3882,5.3718,5.3617,5.3584,5.3517,5.3518,5.3518,5.3518,5.3518,5.3518,5.3518,5.3518,5.3518,5.3518,5.3518,5.3518,5.3518,5.3518,5.3518,5.3518,5.3517,5.3584,5.3617,5.3684,5.3817,5.3849,5.3882,5.3882,5.3948,5.3979,5.398,5.398,5.398,5.398,5.3913,5.3882,5.3882,5.3816,5.3817,5.3783,5.3684,5.3617,5.355,5.2701,5.2194,5.2063,5.2063,5.23,5.2706,5.2773,5.2976,5.3348,5.3518,5.3484,5.3518,5.3416,5.3518,5.3518,5.3518,5.3484,5.3484,5.3518,5.3518,5.3518,5.3484,5.3518,5.3484,5.3484,5.3044,5.2232,5.2131,5.2063,5.2063,5.2063,5.2097,5.2097,5.1793,5.1657,5.1623,5.1319,5.1251,5.1217,5.1217,5.1217,5.1217,5.1183,5.1219,5.1219,5.1016,5.098,5.1116,5.115,5.115,5.0843,5.0503,5.0094,4.9882,4.9967,5.0082,4.9904,5.0143,5.0369,5.0721,5.1017,5.1315,5.1647,5.2029,5.2222,5.241,5.2649,5.2828,5.398,5.3948,5.3783,5.3684,5.3684,5.3551,5.3518,5.3518,5.3518,5.3518,5.3518,5.3518,5.3518,5.3518,5.3518,5.3518,5.3518,5.3518,5.3518,5.3518,5.3518,5.3518,5.3518,5.3518,5.3518,5.3517,5.3518,5.3518,5.3551,5.3651,5.3684,5.3717,5.3849,5.3948,5.3915,5.3948,5.3915,5.3882,5.3783,5.3717,5.3684,5.3584,5.3551,5.3551,5.3517,5.3518,5.3484,5.3382,5.3382,5.345,5.3315,5.3315,5.345,5.3518,5.345,5.3518,5.3518,5.3518,5.3518,5.3518,5.3518,5.3518,5.3518,5.3518,5.3518,5.3518,5.3518,5.3518,5.3518,5.3518,5.3518,5.3518,5.3416,5.3484,5.3247,5.3281,5.345,5.3382,5.3247,5.3179,5.2841,5.2367,5.2367,5.186,5.1623,5.1555,5.1589,5.1657,5.1624,5.1726,5.1422,5.1489,5.1792,5.186,5.2063,5.2063,5.2063,5.1995,5.1554,5.1046,5.0435,5.0422,5.0478,5.0245,5.0106,5.0264,5.0452,5.0864,5.1086,5.1315,5.1622,5.1956,5.2222,5.2467,5.2717,5.3618,5.3618,5.3584,5.3551,5.3551,5.3518,5.3518,5.3518,5.3518,5.3518,5.3518,5.3518,5.3518,5.3518,5.3518,5.3518,5.3518,5.3518,5.3518,5.3518,5.3518,5.3518,5.3518,5.3518,5.3518,5.3518,5.3518,5.3518,5.3484,5.3551,5.3551,5.3551,5.3618,5.3651,5.3618,5.3651,5.3618,5.3618,5.3584,5.3551,5.3551,5.3517,5.3518,5.3518,5.3518,5.3518,5.3518,5.3518,5.3518,5.3518,5.3518,5.3518,5.3518,5.3518,5.3518,5.3518,5.3518,5.3518,5.3518,5.3518,5.3518,5.3518,5.3518,5.3518,5.3518,5.3518,5.3518,5.3518,5.3518,5.3518,5.3518,5.3518,5.3518,5.3518,5.3518,5.3518,5.3518,5.3518,5.3518,5.3484,5.3281,5.3145,5.3044,5.2942,5.2773,5.2773,5.2739,5.2739,5.2604,5.2638,5.247,5.2807,5.301,5.2976,5.2976,5.2976,5.301,5.3078,5.2706,5.2232,5.1553,5.1038,5.1133,5.112,5.0933,5.0974,5.0942,5.1136,5.1186,5.1324,5.1625,5.204,5.2088,5.2305,5.2595,5.3518,5.3518,5.3518,5.3518,5.3518,5.3518,5.3518,5.3518,5.3518,5.3518,5.3518,5.3518,5.3518,5.3518,5.3518,5.3518,5.3518,5.3518,5.3518,5.3518,5.3518,5.3518,5.3518,5.3518,5.3518,5.3518,5.3518,5.3518,5.3518,5.3518,5.3518,5.3518,5.3518,5.3518,5.3518,5.3518,5.3518,5.3518,5.3518,5.3518,5.3518,5.3518,5.3518,5.3518,5.3518,5.3518,5.3518,5.3518,5.3518,5.3518,5.3518,5.3518,5.3518,5.3518,5.3518,5.3518,5.3518,5.3518,5.3518,5.3518,5.3518,5.3518,5.3518,5.3518,5.3518,5.3518,5.3518,5.3518,5.3518,5.3518,5.3518,5.3518,5.3518,5.3518,5.3518,5.3518,5.3518,5.3518,5.3518,5.3518,5.3518,5.3518,5.3518,5.3518,5.3518,5.3484,5.3348,5.3382,5.3382,5.3518,5.3518,5.3518,5.3518,5.3348,5.3281,5.3281,5.3247,5.3382,5.3315,5.2942,5.2366,5.1653,5.1481,5.1478,5.1571,5.1595,5.1501,5.1503,5.1784,5.1941,5.2048,5.2173,5.2365,5.2605,5.2808,5.3518,5.3518,5.3518,5.3518,5.3518,5.3518,5.3518,5.3518,5.3518,5.3518,5.3518,5.3518,5.3518,5.3518,5.3518,5.3518,5.3518,5.3518,5.3518,5.3518,5.3518,5.3518,5.3518,5.3518,5.3518,5.3518,5.3518,5.3518,5.3518,5.3518,5.3518,5.3518,5.3518,5.3518,5.3518,5.3518,5.3518,5.3518,5.3518,5.3518,5.3518,5.3518,5.3518,5.3518,5.3518,5.3518,5.3518,5.3518,5.3518,5.3518,5.3518,5.3518,5.3518,5.3518,5.3518,5.3518,5.3518,5.3518,5.3518,5.3518,5.3518,5.3518,5.3518,5.3518,5.3518,5.3518,5.3518,5.3518,5.3518,5.3518,5.3518,5.3518,5.3518,5.3518,5.3518,5.3518,5.3518,5.3518,5.3518,5.3518,5.3518,5.3518,5.3518,5.3518,5.3518,5.3518,5.3518,5.3518,5.3518,5.3518,5.3518,5.3518,5.3518,5.3518,5.3484,5.3484,5.345,5.3484,5.3484,5.3213,5.2807,5.2231,5.1826,5.1756,5.2226,5.2187,5.1841,5.1984,5.2317,5.2363,5.2383,5.2686,5.3015,5.3232,5.3471,5.3518,5.3518,5.3518,5.3518,5.3518,5.3518,5.3518,5.3518,5.3518,5.3518,5.3518,5.3518,5.3518,5.3518,5.3518,5.3518,5.3518,5.3518,5.3518,5.3518,5.3518,5.3518,5.3518,5.3518,5.3518,5.3518,5.3518,5.3518,5.3518,5.3518,5.3518,5.3518,5.3518,5.3518,5.3518,5.3518,5.3518,5.3518,5.3518,5.3518,5.3518,5.3518,5.3518,5.3518,5.3518,5.3518,5.3518,5.3518,5.3518,5.3518,5.3518,5.3518,5.3518,5.3518,5.3518,5.3518,5.3518,5.3518,5.3518,5.3518,5.3518,5.3518,5.3518,5.3518,5.3518,5.3518,5.3518,5.3518,5.3518,5.3518,5.3518,5.3518,5.3518,5.3518,5.3518,5.3518,5.3518,5.3518,5.3518,5.3518,5.3518,5.3518,5.3518,5.3518,5.3518,5.3518,5.3518,5.3518,5.3518,5.3518,5.3518,5.3518,5.3518,5.3518,5.3518,5.3518,5.3518,5.3518,5.3518,5.3484,5.3078,5.2942,5.257,5.2706,5.3111,5.2839,5.2394,5.2484,5.2794,5.2753,5.2828,5.3183,5.3556,5.3813,5.4008,5.3518,5.3518,5.3518,5.3518,5.3518,5.3518,5.3518,5.3518,5.3518,5.3518,5.3518,5.3518,5.3518,5.3518,5.3518,5.3518,5.3518,5.3518,5.3518,5.3518,5.3518,5.3518,5.3518,5.3518,5.3518,5.3518,5.3518,5.3518,5.3518,5.3518,5.3518,5.3518,5.3518,5.3518,5.3518,5.3518,5.3518,5.3518,5.3518,5.3518,5.3518,5.3518,5.3518,5.3518,5.3518,5.3518,5.3518,5.3518,5.3518,5.3518,5.3518,5.3518,5.3518,5.3518,5.3518,5.3518,5.3518,5.3518,5.3518,5.3518,5.3518,5.3518,5.3518,5.3518,5.3518,5.3518,5.3518,5.3518,5.3518,5.3518,5.3518,5.3518,5.3518,5.3518,5.3518,5.3518,5.3518,5.3518,5.3518,5.3518,5.3518,5.3518,5.3518,5.3518,5.3518,5.3518,5.3518,5.3518,5.3518,5.3518,5.3518,5.3518,5.3518,5.3518,5.3518,5.3518,5.3518,5.3518,5.3518,5.3518,5.3348,5.3348,5.3416,5.345,5.3416,5.3416,5.3075,5.3203,5.3293,5.3538,5.3662,5.3859,5.4133,5.4492,5.4528,5.3518,5.3518,5.3518,5.3518,5.3518,5.3518,5.3518,5.3518,5.3518,5.3518,5.3518,5.3518,5.3518,5.3518,5.3518,5.3518,5.3518,5.3518,5.3518,5.3518,5.3518,5.3518,5.3518,5.3518,5.3518,5.3518,5.3518,5.3518,5.3518,5.3518,5.3518,5.3518,5.3518,5.3518,5.3518,5.3518,5.3518,5.3518,5.3518,5.3518,5.3518,5.3518,5.3518,5.3518,5.3518,5.3518,5.3518,5.3518,5.3518,5.3518,5.3518,5.3518,5.3518,5.3518,5.3518,5.3518,5.3518,5.3518,5.3518,5.3518,5.3518,5.3518,5.3518,5.3518,5.3518,5.3518,5.3518,5.3518,5.3518,5.3518,5.3518,5.3518,5.3518,5.3518,5.3518,5.3518,5.3518,5.3518,5.3518,5.3518,5.3518,5.3518,5.3518,5.3518,5.3518,5.3518,5.3518,5.3518,5.3518,5.3518,5.3518,5.3518,5.3518,5.3518,5.3518,5.3518,5.3518,5.3518,5.3518,5.3518,5.3518,5.3518,5.3518,5.3518,5.3484,5.3416,5.3483,5.3513,5.3741,5.4203,5.4409,5.4446,5.4732,5.5194,5.5176,5.3518,5.3518,5.3518,5.3518,5.3518,5.3518,5.3518,5.3518,5.3518,5.3518,5.3518,5.3518,5.3518,5.3518,5.3518,5.3518,5.3518,5.3518,5.3518,5.3518,5.3518,5.3518,5.3518,5.3518,5.3518,5.3518,5.3518,5.3518,5.3518,5.3518,5.3518,5.3518,5.3518,5.3518,5.3518,5.3518,5.3518,5.3518,5.3518,5.3518,5.3518,5.3518,5.3518,5.3518,5.3518,5.3518,5.3518,5.3518,5.3518,5.3518,5.3518,5.3518,5.3518,5.3518,5.3518,5.3518,5.3518,5.3518,5.3518,5.3518,5.3518,5.3518,5.3585,5.3551,5.3551,5.3619,5.3788,5.3721,5.3687,5.3585,5.3518,5.3653,5.3551,5.3551,5.3518,5.3518,5.3518,5.3518,5.3518,5.3518,5.3518,5.3518,5.3518,5.3518,5.3518,5.3518,5.3518,5.3518,5.3518,5.3518,5.3518,5.3518,5.3518,5.3518,5.3518,5.3518,5.3518,5.3518,5.3518,5.3518,5.3518,5.3518,5.3518,5.3518,5.3518,5.3484,5.3584,5.3684,5.3849,5.4076,5.4457,5.4887,5.5215,5.5545,5.6116,5.3518,5.3518,5.3518,5.3518,5.3518,5.3518,5.3518,5.3518,5.3518,5.3518,5.3518,5.3518,5.3518,5.3518,5.3518,5.3518,5.3518,5.3518,5.3518,5.3518,5.3518,5.3518,5.3518,5.3518,5.3518,5.3518,5.3518,5.3518,5.3518,5.3518,5.3518,5.3518,5.3518,5.3518,5.3518,5.3518,5.3518,5.3518,5.3518,5.3518,5.3518,5.3518,5.3518,5.3518,5.3518,5.3518,5.3518,5.3518,5.3518,5.3518,5.3518,5.3518,5.3518,5.3518,5.3518,5.3551,5.3551,5.3518,5.3518,5.3518,5.3518,5.3551,5.3822,5.4059,5.4194,5.4397,5.4566,5.46,5.4634,5.4668,5.4702,5.4296,5.4093,5.3991,5.3788,5.3585,5.3551,5.3551,5.3585,5.3619,5.3585,5.3551,5.3518,5.3518,5.3518,5.3518,5.3518,5.3518,5.3518,5.3518,5.3518,5.3518,5.3518,5.3518,5.3518,5.3518,5.3518,5.3518,5.3518,5.3518,5.3518,5.3518,5.3518,5.3518,5.3518,5.3518,5.3551,5.3651,5.3783,5.398,5.4428,5.4861,5.5408,5.5936,5.6437,5.3518,5.3518,5.3518,5.3518,5.3518,5.3518,5.3518,5.3518,5.3518,5.3518,5.3518,5.3518,5.3518,5.3518,5.3518,5.3518,5.3518,5.3518,5.3518,5.3518,5.3518,5.3518,5.3518,5.3518,5.3518,5.3518,5.3518,5.3518,5.3518,5.3518,5.3518,5.3518,5.3518,5.3518,5.3518,5.3518,5.3518,5.3518,5.3518,5.3518,5.3518,5.3518,5.3518,5.3518,5.3518,5.3518,5.3518,5.3518,5.3518,5.3518,5.3518,5.3518,5.3518,5.3653,5.3721,5.3721,5.3721,5.3721,5.3788,5.4025,5.4194,5.4228,5.4566,5.4735,5.4905,5.5209,5.5581,5.5681,5.5614,5.5546,5.5412,5.5141,5.4871,5.4735,5.4363,5.3991,5.4126,5.416,5.4093,5.3991,5.3788,5.3687,5.3653,5.3518,5.3518,5.3518,5.3518,5.3518,5.3518,5.3518,5.3518,5.3518,5.3518,5.3518,5.3518,5.3518,5.3518,5.3518,5.3518,5.3518,5.3518,5.3518,5.3518,5.3518,5.3518,5.3518,5.3551,5.3618,5.3783,5.4011,5.4397,5.4865,5.5413,5.5936,5.6437,5.3518,5.3518,5.3518,5.3518,5.3518,5.3518,5.3518,5.3518,5.3518,5.3518,5.3518,5.3518,5.3518,5.3518,5.3518,5.3518,5.3518,5.3518,5.3518,5.3518,5.3518,5.3518,5.3518,5.3518,5.3518,5.3518,5.3518,5.3518,5.3518,5.3518,5.3518,5.3518,5.3518,5.3518,5.3518,5.3518,5.3518,5.3518,5.3518,5.3518,5.3518,5.3518,5.3518,5.3518,5.3518,5.3518,5.3551,5.3585,5.3619,5.3585,5.3585,5.3551,5.3619,5.416,5.4397,5.4465,5.4465,5.4465,5.4566,5.4871,5.5175,5.5175,5.548,5.5547,5.575,5.5784,5.5953,5.5681,5.5818,5.5919,5.5987,5.5683,5.5581,5.5513,5.531,5.5208,5.5277,5.4837,5.4769,5.4634,5.4499,5.4093,5.389,5.3687,5.3518,5.3518,5.3518,5.3518,5.3518,5.3518,5.3518,5.3518,5.3518,5.3518,5.3518,5.3518,5.3518,5.3518,5.3518,5.3518,5.3518,5.3518,5.3518,5.3518,5.3518,5.3518,5.3517,5.3618,5.3783,5.4044,5.4397,5.4865,5.5413,5.5936,5.6465,5.3518,5.3518,5.3518,5.3518,5.3518,5.3518,5.3518,5.3518,5.3518,5.3518,5.3518,5.3518,5.3518,5.3518,5.3518,5.3518,5.3518,5.3518,5.3518,5.3518,5.3518,5.3518,5.3518,5.3518,5.3518,5.3619,5.3518,5.3518,5.3518,5.3551,5.3518,5.3518,5.3518,5.3518,5.3518,5.3518,5.3518,5.3518,5.3518,5.3518,5.3518,5.3518,5.3518,5.3551,5.3551,5.3585,5.3653,5.3957,5.4093,5.4194,5.4431,5.4769,5.4803,5.5074,5.5243,5.5277,5.5649,5.5649,5.5378,5.558,5.5715,5.5886,5.6122,5.6494,5.6799,5.69,5.6867,5.6968,5.6968,5.69,5.6765,5.6562,5.6393,5.6258,5.6089,5.5884,5.5886,5.5681,5.548,5.5344,5.5175,5.4837,5.4431,5.4059,5.3822,5.3619,5.3585,5.3518,5.3518,5.3518,5.3518,5.3518,5.3518,5.3518,5.3518,5.3518,5.3518,5.3518,5.3518,5.3518,5.3518,5.3518,5.3518,5.3518,5.3518,5.3518,5.3484,5.3617,5.3816,5.4078,5.4399,5.4865,5.5413,5.6021,5.6546,5.3518,5.3518,5.3518,5.3518,5.3518,5.3518,5.3518,5.3518,5.3518,5.3518,5.3518,5.3518,5.3518,5.3518,5.3518,5.3518,5.3518,5.3518,5.3518,5.3551,5.3687,5.3822,5.3957,5.3957,5.416,5.4025,5.4262,5.4262,5.4194,5.4093,5.4025,5.3551,5.3518,5.3518,5.3518,5.3518,5.3585,5.389,5.4093,5.4194,5.416,5.416,5.416,5.4126,5.4059,5.4059,5.416,5.4532,5.4837,5.4972,5.5277,5.5513,5.5512,5.5784,5.5953,5.6122,5.6562,5.6799,5.6494,5.6427,5.6258,5.6427,5.6664,5.7239,5.7611,5.7881,5.7848,5.7712,5.7712,5.7746,5.7746,5.7306,5.7171,5.6934,5.6697,5.6427,5.6258,5.6359,5.6292,5.6055,5.5919,5.575,5.5277,5.46,5.4194,5.3856,5.3687,5.3551,5.3551,5.3551,5.3518,5.3518,5.3518,5.3518,5.3518,5.3518,5.3518,5.3518,5.3518,5.3518,5.3518,5.3518,5.3518,5.3518,5.3518,5.3518,5.3484,5.3685,5.3849,5.411,5.4431,5.4896,5.5472,5.6077,5.668,5.3518,5.3518,5.3518,5.3518,5.3518,5.3518,5.3518,5.3518,5.3518,5.3518,5.3518,5.3518,5.3518,5.3551,5.3585,5.3619,5.3551,5.3518,5.3687,5.3923,5.4126,5.4465,5.4668,5.5006,5.5343,5.5378,5.5243,5.5277,5.5446,5.5175,5.4566,5.3721,5.3923,5.3653,5.3687,5.3923,5.4126,5.4532,5.4972,5.5277,5.531,5.5344,5.5378,5.5412,5.548,5.5547,5.5547,5.5581,5.5649,5.5649,5.5919,5.6021,5.619,5.6494,5.6697,5.6867,5.7273,5.7476,5.7408,5.7374,5.7611,5.7712,5.7712,5.7712,5.7848,5.7881,5.7881,5.7881,5.7881,5.7881,5.7881,5.7814,5.7645,5.7509,5.7306,5.7273,5.7205,5.734,5.7205,5.6867,5.6664,5.6528,5.6258,5.5615,5.4972,5.4634,5.3991,5.3856,5.3687,5.3653,5.3551,5.3518,5.3518,5.3518,5.3518,5.3518,5.3518,5.3518,5.3518,5.3518,5.3518,5.3518,5.3518,5.3518,5.3518,5.3518,5.3551,5.3751,5.3915,5.411,5.4494,5.5053,5.5671,5.6292,5.6881,5.3518,5.3518,5.3518,5.3518,5.3518,5.3518,5.3518,5.3518,5.3518,5.3518,5.3518,5.3518,5.3518,5.3619,5.4025,5.416,5.4228,5.4702,5.4735,5.4905,5.5175,5.5277,5.5446,5.5512,5.5683,5.5749,5.5715,5.5681,5.5649,5.5781,5.5512,5.4972,5.4836,5.4871,5.4871,5.4735,5.4971,5.5174,5.5512,5.5681,5.5681,5.5681,5.5681,5.5681,5.5681,5.5681,5.575,5.619,5.6325,5.6494,5.6799,5.6867,5.69,5.7239,5.7374,5.7408,5.7746,5.7848,5.7881,5.7881,5.7881,5.7881,5.7848,5.7881,5.7881,5.7881,5.7881,5.7881,5.7881,5.7881,5.7881,5.7881,5.7814,5.7881,5.7881,5.7881,5.7881,5.7881,5.7814,5.7306,5.734,5.7374,5.707,5.6664,5.6021,5.5378,5.4702,5.416,5.4093,5.3923,5.3856,5.3721,5.3721,5.3551,5.3551,5.3518,5.3518,5.3518,5.3518,5.3518,5.3518,5.3518,5.3518,5.3518,5.3518,5.3518,5.3584,5.3817,5.398,5.4078,5.4589,5.5234,5.5872,5.6537,5.7036,5.3518,5.3518,5.3518,5.3518,5.3518,5.3518,5.3518,5.3518,5.3518,5.3518,5.3518,5.3687,5.3822,5.4025,5.4566,5.4905,5.504,5.5344,5.5581,5.575,5.5852,5.5952,5.6018,5.6185,5.6419,5.6217,5.6181,5.6212,5.6314,5.6215,5.6179,5.6179,5.6147,5.6012,5.5542,5.5812,5.5844,5.5877,5.6113,5.6147,5.6215,5.6212,5.6212,5.6246,5.628,5.628,5.6415,5.6754,5.6995,5.7167,5.7439,5.778,5.7848,5.7881,5.7881,5.7881,5.7881,5.7881,5.7881,5.7881,5.7881,5.7881,5.7881,5.7881,5.7881,5.7881,5.7881,5.7881,5.7881,5.7881,5.7881,5.7881,5.7881,5.7881,5.7881,5.7881,5.7881,5.7881,5.7881,5.7746,5.7814,5.778,5.7611,5.7205,5.6562,5.5919,5.5344,5.4938,5.4905,5.4668,5.4363,5.4194,5.3991,5.3788,5.3551,5.3585,5.3551,5.3518,5.3518,5.3518,5.3518,5.3518,5.3518,5.3518,5.3518,5.3518,5.3618,5.3817,5.3915,5.398,5.4648,5.5413,5.6042,5.6707,5.7087,5.3518,5.3518,5.3518,5.3518,5.3518,5.3518,5.3518,5.3518,5.3518,5.3551,5.3687,5.4194,5.4532,5.4735,5.5344,5.5649,5.5715,5.5817,5.5918,5.6085,5.6455,5.6588,5.6715,5.6912,5.6972,5.723,5.7025,5.6854,5.7055,5.6888,5.6955,5.6988,5.6787,5.6526,5.5598,5.5993,5.6185,5.6285,5.6895,5.7029,5.7066,5.7033,5.6999,5.6999,5.6966,5.6969,5.7036,5.7181,5.7355,5.7493,5.7637,5.7845,5.7881,5.7881,5.7881,5.7881,5.7881,5.7881,5.7881,5.7881,5.7881,5.7881,5.7881,5.7881,5.7881,5.7881,5.7881,5.7881,5.7881,5.7881,5.7881,5.7881,5.7881,5.7881,5.7881,5.7881,5.7881,5.7881,5.7881,5.7881,5.7881,5.7881,5.7881,5.7645,5.7002,5.6427,5.5886,5.5647,5.5614,5.5276,5.4938,5.4803,5.4566,5.4228,5.4025,5.3721,5.3619,5.3551,5.3518,5.3518,5.3518,5.3518,5.3518,5.3518,5.3518,5.3518,5.3618,5.3784,5.398,5.4271,5.4896,5.5619,5.6237,5.6786,5.7199,5.3518,5.3518,5.3518,5.3518,5.3518,5.3518,5.3518,5.3518,5.3551,5.3788,5.4194,5.4532,5.4938,5.5412,5.5986,5.6391,5.6459,5.6889,5.6956,5.692,5.7046,5.7073,5.7096,5.7014,5.7105,5.7063,5.6987,5.6872,5.6844,5.6834,5.6872,5.6872,5.6724,5.6716,5.6683,5.6891,5.6921,5.6955,5.7193,5.7327,5.7289,5.7289,5.7252,5.7252,5.7252,5.7214,5.7214,5.7327,5.7402,5.7514,5.7662,5.7735,5.7845,5.7881,5.7881,5.7881,5.7881,5.7881,5.7881,5.7881,5.7881,5.7915,5.7881,5.7881,5.7881,5.7881,5.7881,5.7881,5.7881,5.7881,5.7881,5.7881,5.7881,5.7881,5.7881,5.7881,5.7881,5.7881,5.7881,5.7881,5.7881,5.7881,5.7881,5.7881,5.7374,5.7103,5.6664,5.6461,5.6427,5.585,5.5411,5.5446,5.5277,5.4871,5.4532,5.4329,5.4025,5.3923,5.3721,5.3518,5.3518,5.3619,5.3518,5.3551,5.3518,5.3518,5.3651,5.3883,5.4239,5.4683,5.5174,5.5706,5.6273,5.6786,5.7213,5.3518,5.3518,5.3518,5.3518,5.3518,5.3518,5.3619,5.3822,5.389,5.4296,5.4938,5.5209,5.558,5.6117,5.6691,5.699,5.7021,5.7282,5.7368,5.7402,5.7256,5.7034,5.6915,5.6757,5.6569,5.6525,5.6369,5.6211,5.6211,5.6251,5.6211,5.6172,5.6132,5.6185,5.6426,5.6581,5.6729,5.6729,5.6757,5.6796,5.6796,5.6834,5.6834,5.6834,5.6834,5.6834,5.6911,5.7025,5.7139,5.7289,5.7439,5.7588,5.7735,5.7808,5.7845,5.7881,5.7881,5.8017,5.822,5.8321,5.849,5.8795,5.8254,5.7915,5.7881,5.7881,5.7881,5.7881,5.7949,5.7949,5.7983,5.7949,5.7949,5.7949,5.7915,5.7915,5.7881,5.7881,5.7881,5.7881,5.7881,5.7881,5.7881,5.7881,5.7712,5.7611,5.7476,5.7306,5.7103,5.6664,5.6156,5.6089,5.6021,5.5649,5.5344,5.5074,5.4735,5.4329,5.416,5.4059,5.3923,5.4093,5.3822,5.3585,5.3585,5.3585,5.3718,5.3982,5.4303,5.4745,5.5204,5.5735,5.6273,5.6812,5.7264,5.3518,5.3518,5.3518,5.3518,5.3518,5.3551,5.3923,5.4566,5.46,5.504,5.5749,5.6357,5.652,5.6645,5.7251,5.7376,5.7193,5.7256,5.7067,5.6987,5.6801,5.6641,5.6369,5.606,5.5861,5.5661,5.5491,5.5369,5.5369,5.5369,5.5369,5.5369,5.5328,5.5409,5.5572,5.5733,5.5974,5.6093,5.6172,5.6172,5.6172,5.6132,5.6205,5.6205,5.6172,5.6205,5.6251,5.6408,5.6641,5.6834,5.7063,5.7327,5.7514,5.7621,5.7732,5.7944,5.8082,5.8524,5.8896,5.9032,5.9268,5.9471,5.8795,5.822,5.8152,5.8355,5.8423,5.8389,5.8423,5.8254,5.8152,5.8118,5.8084,5.8017,5.7949,5.7915,5.7881,5.7881,5.7881,5.7881,5.7881,5.7881,5.7881,5.7881,5.7881,5.7814,5.7712,5.7679,5.7543,5.7577,5.7137,5.6833,5.6697,5.6461,5.6156,5.5818,5.5446,5.504,5.5141,5.5074,5.4871,5.46,5.4499,5.4262,5.3788,5.3686,5.3851,5.4013,5.4335,5.4776,5.5294,5.5764,5.63,5.6839,5.7264,5.3518,5.3518,5.3518,5.3518,5.3551,5.3922,5.426,5.4634,5.5141,5.5747,5.628,5.6482,5.6777,5.71,5.7301,5.7218,5.7063,5.6911,5.6608,5.6375,5.6139,5.5934,5.5653,5.5295,5.509,5.4883,5.4707,5.4497,5.4454,5.4454,5.4454,5.4454,5.4454,5.4454,5.4497,5.4655,5.4998,5.5369,5.545,5.5531,5.5531,5.5531,5.5564,5.5564,5.5531,5.5531,5.5653,5.5919,5.6158,5.6513,5.6752,5.702,5.7364,5.7871,5.8383,5.9174,5.9393,5.9607,5.9742,5.9776,5.9979,6.0182,5.9708,5.9607,5.9471,5.9404,5.9336,5.9167,5.9133,5.9066,5.893,5.8863,5.8761,5.866,5.8423,5.8118,5.8051,5.7949,5.7915,5.7881,5.7881,5.7881,5.7881,5.7881,5.7881,5.7881,5.7881,5.7881,5.7881,5.7881,5.7814,5.7476,5.7306,5.707,5.6799,5.6494,5.6122,5.5818,5.5953,5.5953,5.5581,5.5344,5.5243,5.4972,5.4532,5.4194,5.3983,5.4211,5.4542,5.4965,5.5443,5.585,5.63,5.6829,5.7264,5.3518,5.345,5.3416,5.3517,5.3853,5.4656,5.5093,5.523,5.5669,5.6239,5.6771,5.6727,5.685,5.6963,5.6915,5.6757,5.6414,5.633,5.5981,5.5539,5.5377,5.5131,5.48,5.4507,5.4338,5.4125,5.3911,5.3683,5.364,5.3552,5.3552,5.3552,5.3552,5.3584,5.3552,5.3596,5.3813,5.421,5.4581,5.479,5.4906,5.4906,5.4874,5.4938,5.4938,5.498,5.5168,5.5398,5.5994,5.6457,5.6763,5.7377,5.7803,5.8391,5.8858,5.9554,5.9746,5.9991,6.03,6.055,6.0723,6.0892,6.096,6.1028,6.0655,6.0419,6.0148,5.9877,5.9979,6.0013,5.9877,5.9742,5.9607,5.9438,5.893,5.8389,5.822,5.8051,5.7949,5.7881,5.7881,5.7881,5.7881,5.7881,5.7881,5.7881,5.7881,5.7881,5.7881,5.7881,5.7881,5.7712,5.7712,5.7645,5.7374,5.7137,5.6934,5.6765,5.69,5.6765,5.6325,5.6055,5.5953,5.5649,5.5277,5.4975,5.4802,5.4691,5.4916,5.5344,5.5683,5.595,5.6364,5.6839,5.7213,5.345,5.345,5.328,5.3679,5.4307,5.5509,5.5929,5.5913,5.6025,5.6542,5.7005,5.6954,5.6729,5.6564,5.6369,5.6053,5.5781,5.562,5.5254,5.4675,5.4633,5.4423,5.4071,5.3726,5.3596,5.3421,5.3201,5.2935,5.2922,5.2956,5.3004,5.276,5.302,5.3143,5.325,5.3205,5.3416,5.3582,5.3978,5.4253,5.4226,5.4175,5.4175,5.4226,5.4301,5.4387,5.4697,5.524,5.6028,5.6666,5.7187,5.7804,5.8454,5.8973,5.9358,5.9828,6.0158,6.055,6.1003,6.1216,6.167,6.2009,6.2381,6.211,6.1637,6.1231,6.0926,6.0825,6.0892,6.0892,6.0791,6.052,6.0283,6.0047,5.9607,5.9066,5.866,5.8321,5.7915,5.7881,5.7881,5.7881,5.7881,5.7881,5.7881,5.7881,5.7881,5.7881,5.7881,5.7881,5.7881,5.7881,5.7848,5.7848,5.778,5.7611,5.7712,5.7712,5.7645,5.7509,5.7002,5.6765,5.663,5.6258,5.5886,5.5926,5.5826,5.5617,5.5602,5.6039,5.6285,5.6162,5.6462,5.7009,5.725,5.3041,5.3074,5.34,5.4261,5.5355,5.5487,5.5721,5.5955,5.587,5.6093,5.6492,5.6369,5.6139,5.5934,5.5693,5.5369,5.5049,5.4883,5.4507,5.4125,5.3942,5.3652,5.3334,5.3069,5.2922,5.2622,5.2397,5.2475,5.2521,5.2719,5.2947,5.2977,5.319,5.3434,5.3434,5.3465,5.3434,5.3373,5.3728,5.3929,5.394,5.428,5.4451,5.4512,5.4541,5.466,5.4979,5.5404,5.5993,5.6559,5.6851,5.7635,5.8717,5.9408,6.0067,6.0628,6.1006,6.1306,6.1565,6.1818,6.2178,6.2245,6.2415,6.2415,6.2245,6.1975,6.1806,6.1772,6.1738,6.1738,6.1637,6.1264,6.096,6.0655,6.0317,5.9742,5.9133,5.8558,5.8017,5.7949,5.7915,5.7881,5.7881,5.7881,5.7881,5.7881,5.7881,5.7881,5.7881,5.7881,5.7881,5.7881,5.7881,5.7881,5.7881,5.7881,5.7881,5.7881,5.778,5.7679,5.7611,5.7408,5.7171,5.6833,5.6564,5.664,5.6576,5.6303,5.6393,5.6839,5.6917,5.6805,5.6989,5.7467,5.7503,5.2826,5.3223,5.407,5.4746,5.532,5.545,5.5495,5.5393,5.5295,5.5295,5.5409,5.5377,5.5377,5.5172,5.4957,5.4665,5.4253,5.4168,5.377,5.3377,5.3219,5.2846,5.2608,5.2565,5.2688,5.2474,5.2684,5.2755,5.2571,5.2795,5.3097,5.3205,5.3519,5.367,5.367,5.364,5.367,5.3579,5.3881,5.4013,5.3905,5.4213,5.4277,5.434,5.4465,5.4606,5.5055,5.5425,5.6056,5.6744,5.7338,5.8169,5.9123,5.967,6.028,6.0846,6.1365,6.1837,6.1991,6.215,6.2415,6.2415,6.2415,6.2415,6.2415,6.2144,6.2144,6.2144,6.2144,6.211,6.211,6.1839,6.1772,6.1569,6.1028,6.0419,5.9708,5.9032,5.866,5.8524,5.8321,5.7881,5.7881,5.7881,5.7881,5.7881,5.7881,5.7881,5.7881,5.7881,5.7881,5.7881,5.7881,5.7881,5.7881,5.7881,5.7881,5.7881,5.7881,5.7814,5.7746,5.7814,5.7712,5.734,5.7243,5.7386,5.7291,5.7056,5.7255,5.7677,5.7627,5.7512,5.7739,5.7971,5.7974,5.2788,5.3647,5.464,5.4992,5.4807,5.528,5.514,5.4643,5.4591,5.4338,5.4071,5.4338,5.4465,5.438,5.4157,5.3813,5.3552,5.3346,5.298,5.2883,5.2687,5.275,5.2673,5.2427,5.2667,5.2984,5.3187,5.3146,5.308,5.3301,5.3421,5.3373,5.3432,5.3522,5.3443,5.3522,5.3721,5.3901,5.4141,5.4331,5.4239,5.4164,5.4238,5.4135,5.414,5.4379,5.4877,5.5438,5.6138,5.6855,5.7737,5.8473,5.9137,5.9653,6.0118,6.0633,6.1301,6.1588,6.179,6.2183,6.2302,6.2415,6.2415,6.2415,6.2415,6.2415,6.2415,6.2415,6.2415,6.2381,6.2381,6.2381,6.2347,6.2212,6.1603,6.1095,6.0317,5.9573,5.9302,5.9099,5.8626,5.8118,5.7915,5.7915,5.7881,5.7881,5.7881,5.7881,5.7881,5.7881,5.7881,5.7881,5.7881,5.7881,5.7881,5.7881,5.7881,5.7881,5.7881,5.7881,5.7881,5.7881,5.7881,5.7848,5.7821,5.7827,5.7939,5.7878,5.815,5.8442,5.8425,5.8379,5.8659,5.8835,5.8689,5.298,5.415,5.4236,5.4422,5.4659,5.4653,5.4338,5.3942,5.3899,5.364,5.329,5.3144,5.3246,5.3608,5.3346,5.31,5.2911,5.27,5.2887,5.287,5.2807,5.3031,5.3131,5.3006,5.3182,5.3327,5.338,5.3301,5.3593,5.3862,5.4012,5.4012,5.4581,5.47,5.473,5.47,5.461,5.467,5.467,5.488,5.494,5.494,5.495,5.499,5.5139,5.5288,5.5497,5.5755,5.6176,5.6865,5.7621,5.8226,5.8792,5.9331,5.9816,6.0378,6.1053,6.1506,6.179,6.2183,6.2341,6.2415,6.2415,6.2415,6.2415,6.2415,6.2415,6.2415,6.2415,6.2415,6.2381,6.2381,6.2347,6.2178,6.1772,6.1501,6.0994,6.0317,5.9844,5.9471,5.8998,5.849,5.8051,5.7983,5.7881,5.7881,5.7881,5.7881,5.7881,5.7881,5.7881,5.7881,5.7881,5.7881,5.7881,5.7881,5.7881,5.7881,5.7881,5.7881,5.7881,5.7881,5.7881,5.7881,5.7954,5.7995,5.8144,5.8357,5.8838,5.9062,5.9183,5.9277,5.9567,5.9691,5.9538]}]]